<?xml version="1.0" encoding="UTF-8" standalone="no" ?>
<gpx xmlns="http://www.topografix.com/GPX/1/1" xmlns:xsi="http://www.w3.org/2001/XMLSchema-instance" xsi:schemaLocation="http://www.topografix.com/GPX/1/1 http://www.topografix.com/GPX/1/1/gpx.xsd" version="1.1" creator="VisuGPX - https://www.visugpx.com">
  <metadata>
    <name>Rando forêt de Port-Royal (78-91)</name>
    <desc><![CDATA[Belle et difficile randonnée passant par la forêt de Port-Royal  (34 km) . Départ de la gare de la Verrière - retour gare de Saint-Cyr-l'école]]></desc>
  </metadata>
  <trk>
    <name><![CDATA[15 sept. 2019 à 10:11:14]]></name>
    <cmt><![CDATA[15 sept. 2019 à 10:11:14]]></cmt>
    <trkseg>
      <trkpt lat="48.75536" lon="1.94533">
        <ele>168</ele>
        <time>2019-09-15T08:11:15Z</time>
      </trkpt>
      <trkpt lat="48.75536" lon="1.94533">
        <ele>168</ele>
        <time>2019-09-15T08:11:16Z</time>
      </trkpt>
      <trkpt lat="48.75537" lon="1.94541">
        <ele>168</ele>
        <time>2019-09-15T08:11:22Z</time>
      </trkpt>
      <trkpt lat="48.7554" lon="1.94547">
        <ele>168</ele>
        <time>2019-09-15T08:11:25Z</time>
      </trkpt>
      <trkpt lat="48.75542" lon="1.94554">
        <ele>169</ele>
        <time>2019-09-15T08:11:29Z</time>
      </trkpt>
      <trkpt lat="48.75548" lon="1.94569">
        <ele>169</ele>
        <time>2019-09-15T08:11:37Z</time>
      </trkpt>
      <trkpt lat="48.75553" lon="1.94576">
        <ele>169</ele>
        <time>2019-09-15T08:11:41Z</time>
      </trkpt>
      <trkpt lat="48.75557" lon="1.94592">
        <ele>169</ele>
        <time>2019-09-15T08:11:49Z</time>
      </trkpt>
      <trkpt lat="48.75557" lon="1.946">
        <ele>169</ele>
        <time>2019-09-15T08:11:53Z</time>
      </trkpt>
      <trkpt lat="48.75568" lon="1.94646">
        <ele>169</ele>
        <time>2019-09-15T08:12:15Z</time>
      </trkpt>
      <trkpt lat="48.75574" lon="1.94666">
        <ele>169</ele>
        <time>2019-09-15T08:12:25Z</time>
      </trkpt>
      <trkpt lat="48.75579" lon="1.94693">
        <ele>169</ele>
        <time>2019-09-15T08:12:37Z</time>
      </trkpt>
      <trkpt lat="48.75581" lon="1.94701">
        <ele>168</ele>
        <time>2019-09-15T08:12:41Z</time>
      </trkpt>
      <trkpt lat="48.75582" lon="1.94708">
        <ele>169</ele>
        <time>2019-09-15T08:12:44Z</time>
      </trkpt>
      <trkpt lat="48.75588" lon="1.9473">
        <ele>168</ele>
        <time>2019-09-15T08:12:56Z</time>
      </trkpt>
      <trkpt lat="48.75597" lon="1.94779">
        <ele>168</ele>
        <time>2019-09-15T08:13:20Z</time>
      </trkpt>
      <trkpt lat="48.75598" lon="1.94785">
        <ele>168</ele>
        <time>2019-09-15T08:13:23Z</time>
      </trkpt>
      <trkpt lat="48.75608" lon="1.94829">
        <ele>168</ele>
        <time>2019-09-15T08:13:45Z</time>
      </trkpt>
      <trkpt lat="48.7561" lon="1.94846">
        <ele>168</ele>
        <time>2019-09-15T08:13:53Z</time>
      </trkpt>
      <trkpt lat="48.7562" lon="1.94885">
        <ele>168</ele>
        <time>2019-09-15T08:14:12Z</time>
      </trkpt>
      <trkpt lat="48.75621" lon="1.94901">
        <ele>167</ele>
        <time>2019-09-15T08:14:20Z</time>
      </trkpt>
      <trkpt lat="48.75623" lon="1.9491">
        <ele>167</ele>
        <time>2019-09-15T08:14:24Z</time>
      </trkpt>
      <trkpt lat="48.75628" lon="1.94923">
        <ele>167</ele>
        <time>2019-09-15T08:14:31Z</time>
      </trkpt>
      <trkpt lat="48.75639" lon="1.9498">
        <ele>168</ele>
        <time>2019-09-15T08:15:03Z</time>
      </trkpt>
      <trkpt lat="48.7564" lon="1.94989">
        <ele>168</ele>
        <time>2019-09-15T08:15:07Z</time>
      </trkpt>
      <trkpt lat="48.7564" lon="1.95006">
        <ele>168</ele>
        <time>2019-09-15T08:15:15Z</time>
      </trkpt>
      <trkpt lat="48.75654" lon="1.95066">
        <ele>168</ele>
        <time>2019-09-15T08:15:46Z</time>
      </trkpt>
      <trkpt lat="48.75664" lon="1.95112">
        <ele>168</ele>
        <time>2019-09-15T08:16:10Z</time>
      </trkpt>
      <trkpt lat="48.75678" lon="1.95152">
        <ele>169</ele>
        <time>2019-09-15T08:16:34Z</time>
      </trkpt>
      <trkpt lat="48.75681" lon="1.95175">
        <ele>169</ele>
        <time>2019-09-15T08:16:46Z</time>
      </trkpt>
      <trkpt lat="48.75677" lon="1.95206">
        <ele>169</ele>
        <time>2019-09-15T08:17:02Z</time>
      </trkpt>
      <trkpt lat="48.75664" lon="1.95249">
        <ele>169</ele>
        <time>2019-09-15T08:17:25Z</time>
      </trkpt>
      <trkpt lat="48.7566" lon="1.95254">
        <ele>169</ele>
        <time>2019-09-15T08:17:29Z</time>
      </trkpt>
      <trkpt lat="48.75645" lon="1.95285">
        <ele>169</ele>
        <time>2019-09-15T08:17:49Z</time>
      </trkpt>
      <trkpt lat="48.75637" lon="1.95296">
        <ele>169</ele>
        <time>2019-09-15T08:17:57Z</time>
      </trkpt>
      <trkpt lat="48.75613" lon="1.95347">
        <ele>169</ele>
        <time>2019-09-15T08:18:28Z</time>
      </trkpt>
      <trkpt lat="48.75609" lon="1.95354">
        <ele>169</ele>
        <time>2019-09-15T08:18:32Z</time>
      </trkpt>
      <trkpt lat="48.75604" lon="1.95355">
        <ele>169</ele>
        <time>2019-09-15T08:18:43Z</time>
      </trkpt>
      <trkpt lat="48.75596" lon="1.95346">
        <ele>169</ele>
        <time>2019-09-15T08:19:20Z</time>
      </trkpt>
      <trkpt lat="48.75587" lon="1.95338">
        <ele>169</ele>
        <time>2019-09-15T08:19:28Z</time>
      </trkpt>
      <trkpt lat="48.75577" lon="1.95334">
        <ele>169</ele>
        <time>2019-09-15T08:19:34Z</time>
      </trkpt>
      <trkpt lat="48.75572" lon="1.9533">
        <ele>169</ele>
        <time>2019-09-15T08:19:39Z</time>
      </trkpt>
      <trkpt lat="48.75569" lon="1.95325">
        <ele>169</ele>
        <time>2019-09-15T08:19:42Z</time>
      </trkpt>
      <trkpt lat="48.75558" lon="1.95318">
        <ele>169</ele>
        <time>2019-09-15T08:19:50Z</time>
      </trkpt>
      <trkpt lat="48.75554" lon="1.95315">
        <ele>169</ele>
        <time>2019-09-15T08:19:54Z</time>
      </trkpt>
      <trkpt lat="48.75545" lon="1.95308">
        <ele>169</ele>
        <time>2019-09-15T08:20:02Z</time>
      </trkpt>
      <trkpt lat="48.75541" lon="1.95306">
        <ele>169</ele>
        <time>2019-09-15T08:20:07Z</time>
      </trkpt>
      <trkpt lat="48.75515" lon="1.95282">
        <ele>169</ele>
        <time>2019-09-15T08:20:36Z</time>
      </trkpt>
      <trkpt lat="48.75501" lon="1.95272">
        <ele>169</ele>
        <time>2019-09-15T08:20:48Z</time>
      </trkpt>
      <trkpt lat="48.7549" lon="1.95257">
        <ele>169</ele>
        <time>2019-09-15T08:21:00Z</time>
      </trkpt>
      <trkpt lat="48.75485" lon="1.95255">
        <ele>169</ele>
        <time>2019-09-15T08:21:05Z</time>
      </trkpt>
      <trkpt lat="48.75472" lon="1.95245">
        <ele>169</ele>
        <time>2019-09-15T08:21:15Z</time>
      </trkpt>
      <trkpt lat="48.75461" lon="1.95239">
        <ele>169</ele>
        <time>2019-09-15T08:21:23Z</time>
      </trkpt>
      <trkpt lat="48.75453" lon="1.9523">
        <ele>169</ele>
        <time>2019-09-15T08:21:30Z</time>
      </trkpt>
      <trkpt lat="48.7543" lon="1.95213">
        <ele>169</ele>
        <time>2019-09-15T08:21:48Z</time>
      </trkpt>
      <trkpt lat="48.75414" lon="1.95196">
        <ele>169</ele>
        <time>2019-09-15T08:22:05Z</time>
      </trkpt>
      <trkpt lat="48.75392" lon="1.95182">
        <ele>169</ele>
        <time>2019-09-15T08:22:23Z</time>
      </trkpt>
      <trkpt lat="48.75388" lon="1.95176">
        <ele>169</ele>
        <time>2019-09-15T08:22:28Z</time>
      </trkpt>
      <trkpt lat="48.75375" lon="1.95164">
        <ele>169</ele>
        <time>2019-09-15T08:22:40Z</time>
      </trkpt>
      <trkpt lat="48.75371" lon="1.95162">
        <ele>170</ele>
        <time>2019-09-15T08:22:44Z</time>
      </trkpt>
      <trkpt lat="48.75366" lon="1.95159">
        <ele>170</ele>
        <time>2019-09-15T08:22:48Z</time>
      </trkpt>
      <trkpt lat="48.75339" lon="1.9513">
        <ele>170</ele>
        <time>2019-09-15T08:23:14Z</time>
      </trkpt>
      <trkpt lat="48.75329" lon="1.95125">
        <ele>170</ele>
        <time>2019-09-15T08:23:21Z</time>
      </trkpt>
      <trkpt lat="48.75321" lon="1.95115">
        <ele>170</ele>
        <time>2019-09-15T08:23:29Z</time>
      </trkpt>
      <trkpt lat="48.75318" lon="1.95109">
        <ele>170</ele>
        <time>2019-09-15T08:23:33Z</time>
      </trkpt>
      <trkpt lat="48.75291" lon="1.95083">
        <ele>170</ele>
        <time>2019-09-15T08:23:57Z</time>
      </trkpt>
      <trkpt lat="48.75262" lon="1.9505">
        <ele>170</ele>
        <time>2019-09-15T08:24:24Z</time>
      </trkpt>
      <trkpt lat="48.75258" lon="1.95047">
        <ele>170</ele>
        <time>2019-09-15T08:24:28Z</time>
      </trkpt>
      <trkpt lat="48.7525" lon="1.95037">
        <ele>170</ele>
        <time>2019-09-15T08:24:37Z</time>
      </trkpt>
      <trkpt lat="48.75252" lon="1.95038">
        <ele>170</ele>
        <time>2019-09-15T08:25:19Z</time>
      </trkpt>
      <trkpt lat="48.75259" lon="1.95044">
        <ele>170</ele>
        <time>2019-09-15T08:25:29Z</time>
      </trkpt>
      <trkpt lat="48.75289" lon="1.95074">
        <ele>169</ele>
        <time>2019-09-15T08:26:01Z</time>
      </trkpt>
      <trkpt lat="48.75293" lon="1.95078">
        <ele>169</ele>
        <time>2019-09-15T08:26:05Z</time>
      </trkpt>
      <trkpt lat="48.75297" lon="1.95082">
        <ele>169</ele>
        <time>2019-09-15T08:26:09Z</time>
      </trkpt>
      <trkpt lat="48.75306" lon="1.95087">
        <ele>170</ele>
        <time>2019-09-15T08:26:18Z</time>
      </trkpt>
      <trkpt lat="48.75328" lon="1.95108">
        <ele>169</ele>
        <time>2019-09-15T08:26:41Z</time>
      </trkpt>
      <trkpt lat="48.75353" lon="1.95123">
        <ele>169</ele>
        <time>2019-09-15T08:26:59Z</time>
      </trkpt>
      <trkpt lat="48.75388" lon="1.95153">
        <ele>169</ele>
        <time>2019-09-15T08:27:31Z</time>
      </trkpt>
      <trkpt lat="48.75397" lon="1.9516">
        <ele>169</ele>
        <time>2019-09-15T08:27:38Z</time>
      </trkpt>
      <trkpt lat="48.75411" lon="1.95166">
        <ele>169</ele>
        <time>2019-09-15T08:27:46Z</time>
      </trkpt>
      <trkpt lat="48.75418" lon="1.9517">
        <ele>169</ele>
        <time>2019-09-15T08:27:53Z</time>
      </trkpt>
      <trkpt lat="48.75435" lon="1.95197">
        <ele>168</ele>
        <time>2019-09-15T08:28:12Z</time>
      </trkpt>
      <trkpt lat="48.75464" lon="1.95225">
        <ele>168</ele>
        <time>2019-09-15T08:28:44Z</time>
      </trkpt>
      <trkpt lat="48.75488" lon="1.95246">
        <ele>168</ele>
        <time>2019-09-15T08:29:03Z</time>
      </trkpt>
      <trkpt lat="48.75505" lon="1.95255">
        <ele>168</ele>
        <time>2019-09-15T08:29:13Z</time>
      </trkpt>
      <trkpt lat="48.75509" lon="1.95259">
        <ele>168</ele>
        <time>2019-09-15T08:29:16Z</time>
      </trkpt>
      <trkpt lat="48.75526" lon="1.95282">
        <ele>168</ele>
        <time>2019-09-15T08:29:35Z</time>
      </trkpt>
      <trkpt lat="48.7555" lon="1.953">
        <ele>168</ele>
        <time>2019-09-15T08:29:53Z</time>
      </trkpt>
      <trkpt lat="48.75568" lon="1.95319">
        <ele>168</ele>
        <time>2019-09-15T08:30:09Z</time>
      </trkpt>
      <trkpt lat="48.75582" lon="1.95323">
        <ele>168</ele>
        <time>2019-09-15T08:30:17Z</time>
      </trkpt>
      <trkpt lat="48.75586" lon="1.95326">
        <ele>168</ele>
        <time>2019-09-15T08:30:20Z</time>
      </trkpt>
      <trkpt lat="48.75586" lon="1.95334">
        <ele>168</ele>
        <time>2019-09-15T08:30:25Z</time>
      </trkpt>
      <trkpt lat="48.75603" lon="1.95352">
        <ele>167</ele>
        <time>2019-09-15T08:30:43Z</time>
      </trkpt>
      <trkpt lat="48.75604" lon="1.95362">
        <ele>167</ele>
        <time>2019-09-15T08:30:47Z</time>
      </trkpt>
      <trkpt lat="48.75602" lon="1.95368">
        <ele>167</ele>
        <time>2019-09-15T08:30:50Z</time>
      </trkpt>
      <trkpt lat="48.75582" lon="1.95404">
        <ele>166</ele>
        <time>2019-09-15T08:31:12Z</time>
      </trkpt>
      <trkpt lat="48.75566" lon="1.95423">
        <ele>166</ele>
        <time>2019-09-15T08:31:26Z</time>
      </trkpt>
      <trkpt lat="48.75542" lon="1.95462">
        <ele>167</ele>
        <time>2019-09-15T08:31:56Z</time>
      </trkpt>
      <trkpt lat="48.75537" lon="1.95466">
        <ele>167</ele>
        <time>2019-09-15T08:32:00Z</time>
      </trkpt>
      <trkpt lat="48.75531" lon="1.95472">
        <ele>167</ele>
        <time>2019-09-15T08:32:07Z</time>
      </trkpt>
      <trkpt lat="48.75517" lon="1.95494">
        <ele>166</ele>
        <time>2019-09-15T08:32:22Z</time>
      </trkpt>
      <trkpt lat="48.75513" lon="1.95499">
        <ele>167</ele>
        <time>2019-09-15T08:32:26Z</time>
      </trkpt>
      <trkpt lat="48.75509" lon="1.95505">
        <ele>167</ele>
        <time>2019-09-15T08:32:30Z</time>
      </trkpt>
      <trkpt lat="48.75505" lon="1.95509">
        <ele>166</ele>
        <time>2019-09-15T08:32:34Z</time>
      </trkpt>
      <trkpt lat="48.75501" lon="1.95515">
        <ele>167</ele>
        <time>2019-09-15T08:32:38Z</time>
      </trkpt>
      <trkpt lat="48.75496" lon="1.95535">
        <ele>166</ele>
        <time>2019-09-15T08:32:50Z</time>
      </trkpt>
      <trkpt lat="48.75499" lon="1.95549">
        <ele>166</ele>
        <time>2019-09-15T08:32:56Z</time>
      </trkpt>
      <trkpt lat="48.75506" lon="1.95559">
        <ele>166</ele>
        <time>2019-09-15T08:33:03Z</time>
      </trkpt>
      <trkpt lat="48.75517" lon="1.95575">
        <ele>166</ele>
        <time>2019-09-15T08:33:17Z</time>
      </trkpt>
      <trkpt lat="48.75523" lon="1.95586">
        <ele>166</ele>
        <time>2019-09-15T08:33:26Z</time>
      </trkpt>
      <trkpt lat="48.7554" lon="1.95609">
        <ele>166</ele>
        <time>2019-09-15T08:33:44Z</time>
      </trkpt>
      <trkpt lat="48.75528" lon="1.95627">
        <ele>166</ele>
        <time>2019-09-15T08:34:01Z</time>
      </trkpt>
      <trkpt lat="48.75488" lon="1.95626">
        <ele>166</ele>
        <time>2019-09-15T08:34:35Z</time>
      </trkpt>
      <trkpt lat="48.75479" lon="1.95614">
        <ele>166</ele>
        <time>2019-09-15T08:34:46Z</time>
      </trkpt>
      <trkpt lat="48.75474" lon="1.95612">
        <ele>166</ele>
        <time>2019-09-15T08:34:51Z</time>
      </trkpt>
      <trkpt lat="48.7547" lon="1.95607">
        <ele>166</ele>
        <time>2019-09-15T08:34:55Z</time>
      </trkpt>
      <trkpt lat="48.75464" lon="1.95607">
        <ele>166</ele>
        <time>2019-09-15T08:34:59Z</time>
      </trkpt>
      <trkpt lat="48.7546" lon="1.95603">
        <ele>166</ele>
        <time>2019-09-15T08:35:03Z</time>
      </trkpt>
      <trkpt lat="48.7545" lon="1.95601">
        <ele>166</ele>
        <time>2019-09-15T08:35:11Z</time>
      </trkpt>
      <trkpt lat="48.75447" lon="1.95596">
        <ele>166</ele>
        <time>2019-09-15T08:35:15Z</time>
      </trkpt>
      <trkpt lat="48.75442" lon="1.95596">
        <ele>166</ele>
        <time>2019-09-15T08:35:19Z</time>
      </trkpt>
      <trkpt lat="48.75437" lon="1.95598">
        <ele>166</ele>
        <time>2019-09-15T08:35:24Z</time>
      </trkpt>
      <trkpt lat="48.75391" lon="1.95594">
        <ele>166</ele>
        <time>2019-09-15T08:35:57Z</time>
      </trkpt>
      <trkpt lat="48.75385" lon="1.95592">
        <ele>166</ele>
        <time>2019-09-15T08:36:01Z</time>
      </trkpt>
      <trkpt lat="48.7538" lon="1.95593">
        <ele>166</ele>
        <time>2019-09-15T08:36:05Z</time>
      </trkpt>
      <trkpt lat="48.75371" lon="1.95592">
        <ele>166</ele>
        <time>2019-09-15T08:36:14Z</time>
      </trkpt>
      <trkpt lat="48.75356" lon="1.95588">
        <ele>166</ele>
        <time>2019-09-15T08:36:24Z</time>
      </trkpt>
      <trkpt lat="48.75346" lon="1.95587">
        <ele>166</ele>
        <time>2019-09-15T08:36:32Z</time>
      </trkpt>
      <trkpt lat="48.75317" lon="1.95572">
        <ele>166</ele>
        <time>2019-09-15T08:37:00Z</time>
      </trkpt>
      <trkpt lat="48.75312" lon="1.95572">
        <ele>166</ele>
        <time>2019-09-15T08:37:04Z</time>
      </trkpt>
      <trkpt lat="48.75302" lon="1.95568">
        <ele>166</ele>
        <time>2019-09-15T08:37:13Z</time>
      </trkpt>
      <trkpt lat="48.75298" lon="1.95574">
        <ele>166</ele>
        <time>2019-09-15T08:37:18Z</time>
      </trkpt>
      <trkpt lat="48.7528" lon="1.95625">
        <ele>165</ele>
        <time>2019-09-15T08:37:49Z</time>
      </trkpt>
      <trkpt lat="48.75271" lon="1.95651">
        <ele>166</ele>
        <time>2019-09-15T08:38:06Z</time>
      </trkpt>
      <trkpt lat="48.75268" lon="1.95656">
        <ele>166</ele>
        <time>2019-09-15T08:38:10Z</time>
      </trkpt>
      <trkpt lat="48.75267" lon="1.95663">
        <ele>166</ele>
        <time>2019-09-15T08:38:14Z</time>
      </trkpt>
      <trkpt lat="48.75268" lon="1.9567">
        <ele>166</ele>
        <time>2019-09-15T08:38:18Z</time>
      </trkpt>
      <trkpt lat="48.75265" lon="1.95677">
        <ele>166</ele>
        <time>2019-09-15T08:38:22Z</time>
      </trkpt>
      <trkpt lat="48.75241" lon="1.95716">
        <ele>165</ele>
        <time>2019-09-15T08:38:49Z</time>
      </trkpt>
      <trkpt lat="48.75229" lon="1.95752">
        <ele>166</ele>
        <time>2019-09-15T08:39:12Z</time>
      </trkpt>
      <trkpt lat="48.75224" lon="1.95758">
        <ele>166</ele>
        <time>2019-09-15T08:39:16Z</time>
      </trkpt>
      <trkpt lat="48.75219" lon="1.95763">
        <ele>166</ele>
        <time>2019-09-15T08:39:21Z</time>
      </trkpt>
      <trkpt lat="48.75217" lon="1.9577">
        <ele>166</ele>
        <time>2019-09-15T08:39:26Z</time>
      </trkpt>
      <trkpt lat="48.75202" lon="1.95799">
        <ele>166</ele>
        <time>2019-09-15T08:39:45Z</time>
      </trkpt>
      <trkpt lat="48.75197" lon="1.95804">
        <ele>166</ele>
        <time>2019-09-15T08:39:50Z</time>
      </trkpt>
      <trkpt lat="48.75195" lon="1.95812">
        <ele>166</ele>
        <time>2019-09-15T08:39:54Z</time>
      </trkpt>
      <trkpt lat="48.75192" lon="1.95818">
        <ele>166</ele>
        <time>2019-09-15T08:39:58Z</time>
      </trkpt>
      <trkpt lat="48.75152" lon="1.9586">
        <ele>166</ele>
        <time>2019-09-15T08:40:32Z</time>
      </trkpt>
      <trkpt lat="48.75148" lon="1.95865">
        <ele>166</ele>
        <time>2019-09-15T08:40:35Z</time>
      </trkpt>
      <trkpt lat="48.75127" lon="1.95898">
        <ele>166</ele>
        <time>2019-09-15T08:41:00Z</time>
      </trkpt>
      <trkpt lat="48.75118" lon="1.95906">
        <ele>166</ele>
        <time>2019-09-15T08:41:08Z</time>
      </trkpt>
      <trkpt lat="48.75113" lon="1.95909">
        <ele>166</ele>
        <time>2019-09-15T08:41:12Z</time>
      </trkpt>
      <trkpt lat="48.75105" lon="1.9592">
        <ele>166</ele>
        <time>2019-09-15T08:41:22Z</time>
      </trkpt>
      <trkpt lat="48.75101" lon="1.95927">
        <ele>166</ele>
        <time>2019-09-15T08:41:26Z</time>
      </trkpt>
      <trkpt lat="48.75097" lon="1.95931">
        <ele>166</ele>
        <time>2019-09-15T08:41:30Z</time>
      </trkpt>
      <trkpt lat="48.75096" lon="1.95938">
        <ele>166</ele>
        <time>2019-09-15T08:41:34Z</time>
      </trkpt>
      <trkpt lat="48.75069" lon="1.95975">
        <ele>166</ele>
        <time>2019-09-15T08:42:02Z</time>
      </trkpt>
      <trkpt lat="48.75064" lon="1.95989">
        <ele>166</ele>
        <time>2019-09-15T08:42:10Z</time>
      </trkpt>
      <trkpt lat="48.7506" lon="1.95994">
        <ele>165</ele>
        <time>2019-09-15T08:42:14Z</time>
      </trkpt>
      <trkpt lat="48.75056" lon="1.95998">
        <ele>166</ele>
        <time>2019-09-15T08:42:18Z</time>
      </trkpt>
      <trkpt lat="48.75049" lon="1.9601">
        <ele>166</ele>
        <time>2019-09-15T08:42:25Z</time>
      </trkpt>
      <trkpt lat="48.75044" lon="1.96013">
        <ele>166</ele>
        <time>2019-09-15T08:42:29Z</time>
      </trkpt>
      <trkpt lat="48.75039" lon="1.96014">
        <ele>166</ele>
        <time>2019-09-15T08:42:32Z</time>
      </trkpt>
      <trkpt lat="48.75035" lon="1.96019">
        <ele>167</ele>
        <time>2019-09-15T08:42:36Z</time>
      </trkpt>
      <trkpt lat="48.75033" lon="1.96027">
        <ele>167</ele>
        <time>2019-09-15T08:42:40Z</time>
      </trkpt>
      <trkpt lat="48.75031" lon="1.96073">
        <ele>167</ele>
        <time>2019-09-15T08:43:09Z</time>
      </trkpt>
      <trkpt lat="48.75032" lon="1.9608">
        <ele>166</ele>
        <time>2019-09-15T08:45:05Z</time>
      </trkpt>
      <trkpt lat="48.75028" lon="1.96082">
        <ele>166</ele>
        <time>2019-09-15T08:48:39Z</time>
      </trkpt>
      <trkpt lat="48.75028" lon="1.96097">
        <ele>166</ele>
        <time>2019-09-15T08:50:38Z</time>
      </trkpt>
      <trkpt lat="48.75024" lon="1.96109">
        <ele>166</ele>
        <time>2019-09-15T08:50:48Z</time>
      </trkpt>
      <trkpt lat="48.75022" lon="1.96132">
        <ele>166</ele>
        <time>2019-09-15T08:51:00Z</time>
      </trkpt>
      <trkpt lat="48.75025" lon="1.96147">
        <ele>166</ele>
        <time>2019-09-15T08:51:07Z</time>
      </trkpt>
      <trkpt lat="48.7502" lon="1.96219">
        <ele>166</ele>
        <time>2019-09-15T08:51:40Z</time>
      </trkpt>
      <trkpt lat="48.75015" lon="1.96282">
        <ele>166</ele>
        <time>2019-09-15T08:52:12Z</time>
      </trkpt>
      <trkpt lat="48.75013" lon="1.96344">
        <ele>166</ele>
        <time>2019-09-15T08:52:44Z</time>
      </trkpt>
      <trkpt lat="48.75006" lon="1.96406">
        <ele>165</ele>
        <time>2019-09-15T08:53:15Z</time>
      </trkpt>
      <trkpt lat="48.75005" lon="1.96429">
        <ele>166</ele>
        <time>2019-09-15T08:53:29Z</time>
      </trkpt>
      <trkpt lat="48.75006" lon="1.96437">
        <ele>165</ele>
        <time>2019-09-15T08:53:33Z</time>
      </trkpt>
      <trkpt lat="48.75005" lon="1.96453">
        <ele>165</ele>
        <time>2019-09-15T08:53:41Z</time>
      </trkpt>
      <trkpt lat="48.75003" lon="1.96467">
        <ele>165</ele>
        <time>2019-09-15T08:53:48Z</time>
      </trkpt>
      <trkpt lat="48.75" lon="1.96531">
        <ele>165</ele>
        <time>2019-09-15T08:54:20Z</time>
      </trkpt>
      <trkpt lat="48.75" lon="1.96555">
        <ele>165</ele>
        <time>2019-09-15T08:54:31Z</time>
      </trkpt>
      <trkpt lat="48.75" lon="1.96563">
        <ele>165</ele>
        <time>2019-09-15T08:54:35Z</time>
      </trkpt>
      <trkpt lat="48.75" lon="1.9657">
        <ele>165</ele>
        <time>2019-09-15T08:54:39Z</time>
      </trkpt>
      <trkpt lat="48.75006" lon="1.96577">
        <ele>166</ele>
        <time>2019-09-15T08:54:45Z</time>
      </trkpt>
      <trkpt lat="48.75017" lon="1.96581">
        <ele>166</ele>
        <time>2019-09-15T08:54:53Z</time>
      </trkpt>
      <trkpt lat="48.75021" lon="1.96583">
        <ele>166</ele>
        <time>2019-09-15T08:54:58Z</time>
      </trkpt>
      <trkpt lat="48.75035" lon="1.96582">
        <ele>166</ele>
        <time>2019-09-15T08:55:15Z</time>
      </trkpt>
      <trkpt lat="48.75063" lon="1.96586">
        <ele>166</ele>
        <time>2019-09-15T08:55:46Z</time>
      </trkpt>
      <trkpt lat="48.75084" lon="1.96591">
        <ele>166</ele>
        <time>2019-09-15T08:56:01Z</time>
      </trkpt>
      <trkpt lat="48.75089" lon="1.96589">
        <ele>166</ele>
        <time>2019-09-15T08:56:04Z</time>
      </trkpt>
      <trkpt lat="48.75094" lon="1.9659">
        <ele>166</ele>
        <time>2019-09-15T08:56:08Z</time>
      </trkpt>
      <trkpt lat="48.75098" lon="1.96592">
        <ele>167</ele>
        <time>2019-09-15T08:56:13Z</time>
      </trkpt>
      <trkpt lat="48.75106" lon="1.96595">
        <ele>167</ele>
        <time>2019-09-15T08:56:28Z</time>
      </trkpt>
      <trkpt lat="48.75111" lon="1.96597">
        <ele>166</ele>
        <time>2019-09-15T08:56:32Z</time>
      </trkpt>
      <trkpt lat="48.75121" lon="1.96596">
        <ele>166</ele>
        <time>2019-09-15T08:56:40Z</time>
      </trkpt>
      <trkpt lat="48.75126" lon="1.96597">
        <ele>166</ele>
        <time>2019-09-15T08:56:44Z</time>
      </trkpt>
      <trkpt lat="48.75141" lon="1.96601">
        <ele>167</ele>
        <time>2019-09-15T08:56:56Z</time>
      </trkpt>
      <trkpt lat="48.75157" lon="1.96603">
        <ele>167</ele>
        <time>2019-09-15T08:57:07Z</time>
      </trkpt>
      <trkpt lat="48.75203" lon="1.96618">
        <ele>167</ele>
        <time>2019-09-15T08:57:41Z</time>
      </trkpt>
      <trkpt lat="48.75208" lon="1.96619">
        <ele>167</ele>
        <time>2019-09-15T08:57:45Z</time>
      </trkpt>
      <trkpt lat="48.75215" lon="1.9662">
        <ele>167</ele>
        <time>2019-09-15T08:58:08Z</time>
      </trkpt>
      <trkpt lat="48.7522" lon="1.96621">
        <ele>167</ele>
        <time>2019-09-15T08:58:12Z</time>
      </trkpt>
      <trkpt lat="48.75262" lon="1.96627">
        <ele>167</ele>
        <time>2019-09-15T08:58:43Z</time>
      </trkpt>
      <trkpt lat="48.75268" lon="1.96629">
        <ele>167</ele>
        <time>2019-09-15T08:58:47Z</time>
      </trkpt>
      <trkpt lat="48.75279" lon="1.96638">
        <ele>167</ele>
        <time>2019-09-15T08:58:55Z</time>
      </trkpt>
      <trkpt lat="48.75282" lon="1.96644">
        <ele>167</ele>
        <time>2019-09-15T08:58:59Z</time>
      </trkpt>
      <trkpt lat="48.75292" lon="1.96654">
        <ele>165</ele>
        <time>2019-09-15T08:59:08Z</time>
      </trkpt>
      <trkpt lat="48.75297" lon="1.96659">
        <ele>164</ele>
        <time>2019-09-15T08:59:13Z</time>
      </trkpt>
      <trkpt lat="48.75297" lon="1.96667">
        <ele>164</ele>
        <time>2019-09-15T08:59:17Z</time>
      </trkpt>
      <trkpt lat="48.753" lon="1.96673">
        <ele>165</ele>
        <time>2019-09-15T08:59:22Z</time>
      </trkpt>
      <trkpt lat="48.75343" lon="1.9668">
        <ele>165</ele>
        <time>2019-09-15T08:59:56Z</time>
      </trkpt>
      <trkpt lat="48.75384" lon="1.96692">
        <ele>165</ele>
        <time>2019-09-15T09:00:29Z</time>
      </trkpt>
      <trkpt lat="48.75429" lon="1.96701">
        <ele>166</ele>
        <time>2019-09-15T09:01:02Z</time>
      </trkpt>
      <trkpt lat="48.75434" lon="1.96702">
        <ele>166</ele>
        <time>2019-09-15T09:01:07Z</time>
      </trkpt>
      <trkpt lat="48.75436" lon="1.9669">
        <ele>166</ele>
        <time>2019-09-15T09:01:21Z</time>
      </trkpt>
      <trkpt lat="48.75439" lon="1.96681">
        <ele>167</ele>
        <time>2019-09-15T09:01:33Z</time>
      </trkpt>
      <trkpt lat="48.75444" lon="1.9668">
        <ele>168</ele>
        <time>2019-09-15T09:01:37Z</time>
      </trkpt>
      <trkpt lat="48.75449" lon="1.96679">
        <ele>168</ele>
        <time>2019-09-15T09:01:41Z</time>
      </trkpt>
      <trkpt lat="48.7549" lon="1.96688">
        <ele>169</ele>
        <time>2019-09-15T09:02:12Z</time>
      </trkpt>
      <trkpt lat="48.75516" lon="1.96691">
        <ele>169</ele>
        <time>2019-09-15T09:02:31Z</time>
      </trkpt>
      <trkpt lat="48.75521" lon="1.96694">
        <ele>169</ele>
        <time>2019-09-15T09:02:35Z</time>
      </trkpt>
      <trkpt lat="48.75561" lon="1.96706">
        <ele>168</ele>
        <time>2019-09-15T09:03:06Z</time>
      </trkpt>
      <trkpt lat="48.75568" lon="1.96709">
        <ele>168</ele>
        <time>2019-09-15T09:03:12Z</time>
      </trkpt>
      <trkpt lat="48.75571" lon="1.96715">
        <ele>168</ele>
        <time>2019-09-15T09:03:16Z</time>
      </trkpt>
      <trkpt lat="48.7557" lon="1.9674">
        <ele>168</ele>
        <time>2019-09-15T09:03:28Z</time>
      </trkpt>
      <trkpt lat="48.75573" lon="1.96756">
        <ele>167</ele>
        <time>2019-09-15T09:03:37Z</time>
      </trkpt>
      <trkpt lat="48.75576" lon="1.96771">
        <ele>167</ele>
        <time>2019-09-15T09:03:46Z</time>
      </trkpt>
      <trkpt lat="48.75577" lon="1.96778">
        <ele>167</ele>
        <time>2019-09-15T09:03:50Z</time>
      </trkpt>
      <trkpt lat="48.75581" lon="1.96788">
        <ele>167</ele>
        <time>2019-09-15T09:03:59Z</time>
      </trkpt>
      <trkpt lat="48.75583" lon="1.96808">
        <ele>167</ele>
        <time>2019-09-15T09:04:19Z</time>
      </trkpt>
      <trkpt lat="48.75586" lon="1.96814">
        <ele>167</ele>
        <time>2019-09-15T09:04:23Z</time>
      </trkpt>
      <trkpt lat="48.75587" lon="1.96822">
        <ele>167</ele>
        <time>2019-09-15T09:04:28Z</time>
      </trkpt>
      <trkpt lat="48.75591" lon="1.96833">
        <ele>168</ele>
        <time>2019-09-15T09:04:36Z</time>
      </trkpt>
      <trkpt lat="48.75594" lon="1.96838">
        <ele>168</ele>
        <time>2019-09-15T09:04:41Z</time>
      </trkpt>
      <trkpt lat="48.756" lon="1.96843">
        <ele>168</ele>
        <time>2019-09-15T09:04:56Z</time>
      </trkpt>
      <trkpt lat="48.75605" lon="1.96845">
        <ele>168</ele>
        <time>2019-09-15T09:05:00Z</time>
      </trkpt>
      <trkpt lat="48.75609" lon="1.96849">
        <ele>168</ele>
        <time>2019-09-15T09:05:04Z</time>
      </trkpt>
      <trkpt lat="48.75611" lon="1.96856">
        <ele>168</ele>
        <time>2019-09-15T09:05:09Z</time>
      </trkpt>
      <trkpt lat="48.75612" lon="1.96864">
        <ele>168</ele>
        <time>2019-09-15T09:05:14Z</time>
      </trkpt>
      <trkpt lat="48.7561" lon="1.96885">
        <ele>169</ele>
        <time>2019-09-15T09:05:26Z</time>
      </trkpt>
      <trkpt lat="48.75612" lon="1.96901">
        <ele>169</ele>
        <time>2019-09-15T09:05:34Z</time>
      </trkpt>
      <trkpt lat="48.75612" lon="1.96916">
        <ele>169</ele>
        <time>2019-09-15T09:05:43Z</time>
      </trkpt>
      <trkpt lat="48.75613" lon="1.96923">
        <ele>169</ele>
        <time>2019-09-15T09:05:47Z</time>
      </trkpt>
      <trkpt lat="48.75613" lon="1.96939">
        <ele>168</ele>
        <time>2019-09-15T09:05:56Z</time>
      </trkpt>
      <trkpt lat="48.75613" lon="1.96955">
        <ele>169</ele>
        <time>2019-09-15T09:06:05Z</time>
      </trkpt>
      <trkpt lat="48.75619" lon="1.96983">
        <ele>169</ele>
        <time>2019-09-15T09:06:21Z</time>
      </trkpt>
      <trkpt lat="48.75619" lon="1.96999">
        <ele>169</ele>
        <time>2019-09-15T09:06:29Z</time>
      </trkpt>
      <trkpt lat="48.75618" lon="1.97007">
        <ele>169</ele>
        <time>2019-09-15T09:06:33Z</time>
      </trkpt>
      <trkpt lat="48.75619" lon="1.97014">
        <ele>169</ele>
        <time>2019-09-15T09:06:37Z</time>
      </trkpt>
      <trkpt lat="48.75623" lon="1.97029">
        <ele>169</ele>
        <time>2019-09-15T09:06:45Z</time>
      </trkpt>
      <trkpt lat="48.75621" lon="1.97039">
        <ele>169</ele>
        <time>2019-09-15T09:06:49Z</time>
      </trkpt>
      <trkpt lat="48.75621" lon="1.9705">
        <ele>169</ele>
        <time>2019-09-15T09:06:54Z</time>
      </trkpt>
      <trkpt lat="48.75629" lon="1.97072">
        <ele>169</ele>
        <time>2019-09-15T09:07:03Z</time>
      </trkpt>
      <trkpt lat="48.75632" lon="1.97093">
        <ele>169</ele>
        <time>2019-09-15T09:07:15Z</time>
      </trkpt>
      <trkpt lat="48.7563" lon="1.97099">
        <ele>169</ele>
        <time>2019-09-15T09:07:18Z</time>
      </trkpt>
      <trkpt lat="48.75622" lon="1.9711">
        <ele>168</ele>
        <time>2019-09-15T09:07:26Z</time>
      </trkpt>
      <trkpt lat="48.75622" lon="1.97119">
        <ele>169</ele>
        <time>2019-09-15T09:07:30Z</time>
      </trkpt>
      <trkpt lat="48.75622" lon="1.97127">
        <ele>169</ele>
        <time>2019-09-15T09:07:34Z</time>
      </trkpt>
      <trkpt lat="48.75626" lon="1.97141">
        <ele>169</ele>
        <time>2019-09-15T09:07:40Z</time>
      </trkpt>
      <trkpt lat="48.75626" lon="1.97186">
        <ele>169</ele>
        <time>2019-09-15T09:08:03Z</time>
      </trkpt>
      <trkpt lat="48.75627" lon="1.97193">
        <ele>169</ele>
        <time>2019-09-15T09:08:06Z</time>
      </trkpt>
      <trkpt lat="48.75628" lon="1.97209">
        <ele>170</ele>
        <time>2019-09-15T09:08:14Z</time>
      </trkpt>
      <trkpt lat="48.75628" lon="1.97225">
        <ele>170</ele>
        <time>2019-09-15T09:08:22Z</time>
      </trkpt>
      <trkpt lat="48.75628" lon="1.97232">
        <ele>170</ele>
        <time>2019-09-15T09:08:26Z</time>
      </trkpt>
      <trkpt lat="48.75629" lon="1.97248">
        <ele>170</ele>
        <time>2019-09-15T09:08:33Z</time>
      </trkpt>
      <trkpt lat="48.75626" lon="1.97287">
        <ele>170</ele>
        <time>2019-09-15T09:08:52Z</time>
      </trkpt>
      <trkpt lat="48.75628" lon="1.97302">
        <ele>171</ele>
        <time>2019-09-15T09:08:59Z</time>
      </trkpt>
      <trkpt lat="48.75628" lon="1.97318">
        <ele>171</ele>
        <time>2019-09-15T09:09:06Z</time>
      </trkpt>
      <trkpt lat="48.75635" lon="1.97363">
        <ele>171</ele>
        <time>2019-09-15T09:09:31Z</time>
      </trkpt>
      <trkpt lat="48.75634" lon="1.97371">
        <ele>171</ele>
        <time>2019-09-15T09:09:35Z</time>
      </trkpt>
      <trkpt lat="48.75637" lon="1.9738">
        <ele>171</ele>
        <time>2019-09-15T09:09:39Z</time>
      </trkpt>
      <trkpt lat="48.75637" lon="1.9739">
        <ele>171</ele>
        <time>2019-09-15T09:09:44Z</time>
      </trkpt>
      <trkpt lat="48.75635" lon="1.97407">
        <ele>171</ele>
        <time>2019-09-15T09:09:52Z</time>
      </trkpt>
      <trkpt lat="48.75637" lon="1.97427">
        <ele>170</ele>
        <time>2019-09-15T09:10:04Z</time>
      </trkpt>
      <trkpt lat="48.75637" lon="1.97436">
        <ele>170</ele>
        <time>2019-09-15T09:10:08Z</time>
      </trkpt>
      <trkpt lat="48.75639" lon="1.97449">
        <ele>170</ele>
        <time>2019-09-15T09:10:15Z</time>
      </trkpt>
      <trkpt lat="48.75641" lon="1.97457">
        <ele>170</ele>
        <time>2019-09-15T09:10:19Z</time>
      </trkpt>
      <trkpt lat="48.7564" lon="1.97464">
        <ele>170</ele>
        <time>2019-09-15T09:10:23Z</time>
      </trkpt>
      <trkpt lat="48.75639" lon="1.97471">
        <ele>170</ele>
        <time>2019-09-15T09:10:27Z</time>
      </trkpt>
      <trkpt lat="48.75637" lon="1.97494">
        <ele>170</ele>
        <time>2019-09-15T09:10:39Z</time>
      </trkpt>
      <trkpt lat="48.75639" lon="1.97501">
        <ele>170</ele>
        <time>2019-09-15T09:10:44Z</time>
      </trkpt>
      <trkpt lat="48.75639" lon="1.97531">
        <ele>170</ele>
        <time>2019-09-15T09:10:59Z</time>
      </trkpt>
      <trkpt lat="48.7564" lon="1.97547">
        <ele>170</ele>
        <time>2019-09-15T09:11:06Z</time>
      </trkpt>
      <trkpt lat="48.75635" lon="1.97562">
        <ele>170</ele>
        <time>2019-09-15T09:11:13Z</time>
      </trkpt>
      <trkpt lat="48.75634" lon="1.97568">
        <ele>170</ele>
        <time>2019-09-15T09:11:18Z</time>
      </trkpt>
      <trkpt lat="48.75644" lon="1.97586">
        <ele>170</ele>
        <time>2019-09-15T09:11:28Z</time>
      </trkpt>
      <trkpt lat="48.75644" lon="1.97595">
        <ele>170</ele>
        <time>2019-09-15T09:11:32Z</time>
      </trkpt>
      <trkpt lat="48.75649" lon="1.97618">
        <ele>170</ele>
        <time>2019-09-15T09:11:42Z</time>
      </trkpt>
      <trkpt lat="48.75649" lon="1.97685">
        <ele>171</ele>
        <time>2019-09-15T09:12:15Z</time>
      </trkpt>
      <trkpt lat="48.7565" lon="1.97693">
        <ele>171</ele>
        <time>2019-09-15T09:12:19Z</time>
      </trkpt>
      <trkpt lat="48.75647" lon="1.97705">
        <ele>171</ele>
        <time>2019-09-15T09:12:27Z</time>
      </trkpt>
      <trkpt lat="48.7565" lon="1.97712">
        <ele>171</ele>
        <time>2019-09-15T09:12:30Z</time>
      </trkpt>
      <trkpt lat="48.75655" lon="1.97777">
        <ele>172</ele>
        <time>2019-09-15T09:13:03Z</time>
      </trkpt>
      <trkpt lat="48.75656" lon="1.97784">
        <ele>172</ele>
        <time>2019-09-15T09:13:08Z</time>
      </trkpt>
      <trkpt lat="48.75657" lon="1.97793">
        <ele>172</ele>
        <time>2019-09-15T09:13:14Z</time>
      </trkpt>
      <trkpt lat="48.75654" lon="1.97808">
        <ele>172</ele>
        <time>2019-09-15T09:13:21Z</time>
      </trkpt>
      <trkpt lat="48.75654" lon="1.97817">
        <ele>172</ele>
        <time>2019-09-15T09:13:25Z</time>
      </trkpt>
      <trkpt lat="48.75648" lon="1.97847">
        <ele>173</ele>
        <time>2019-09-15T09:13:43Z</time>
      </trkpt>
      <trkpt lat="48.75645" lon="1.97853">
        <ele>173</ele>
        <time>2019-09-15T09:13:47Z</time>
      </trkpt>
      <trkpt lat="48.75635" lon="1.9786">
        <ele>173</ele>
        <time>2019-09-15T09:13:55Z</time>
      </trkpt>
      <trkpt lat="48.75626" lon="1.9788">
        <ele>173</ele>
        <time>2019-09-15T09:14:07Z</time>
      </trkpt>
      <trkpt lat="48.75608" lon="1.97904">
        <ele>173</ele>
        <time>2019-09-15T09:14:26Z</time>
      </trkpt>
      <trkpt lat="48.756" lon="1.97912">
        <ele>173</ele>
        <time>2019-09-15T09:14:35Z</time>
      </trkpt>
      <trkpt lat="48.75571" lon="1.97948">
        <ele>172</ele>
        <time>2019-09-15T09:15:07Z</time>
      </trkpt>
      <trkpt lat="48.75536" lon="1.97997">
        <ele>172</ele>
        <time>2019-09-15T09:15:38Z</time>
      </trkpt>
      <trkpt lat="48.75523" lon="1.98013">
        <ele>171</ele>
        <time>2019-09-15T09:15:49Z</time>
      </trkpt>
      <trkpt lat="48.75513" lon="1.98033">
        <ele>171</ele>
        <time>2019-09-15T09:16:01Z</time>
      </trkpt>
      <trkpt lat="48.75509" lon="1.98038">
        <ele>171</ele>
        <time>2019-09-15T09:16:06Z</time>
      </trkpt>
      <trkpt lat="48.75505" lon="1.98043">
        <ele>171</ele>
        <time>2019-09-15T09:16:10Z</time>
      </trkpt>
      <trkpt lat="48.75484" lon="1.98066">
        <ele>171</ele>
        <time>2019-09-15T09:16:27Z</time>
      </trkpt>
      <trkpt lat="48.75462" lon="1.98099">
        <ele>171</ele>
        <time>2019-09-15T09:16:52Z</time>
      </trkpt>
      <trkpt lat="48.75457" lon="1.98103">
        <ele>171</ele>
        <time>2019-09-15T09:16:56Z</time>
      </trkpt>
      <trkpt lat="48.75426" lon="1.9815">
        <ele>170</ele>
        <time>2019-09-15T09:17:28Z</time>
      </trkpt>
      <trkpt lat="48.75395" lon="1.98196">
        <ele>169</ele>
        <time>2019-09-15T09:17:57Z</time>
      </trkpt>
      <trkpt lat="48.75391" lon="1.982">
        <ele>169</ele>
        <time>2019-09-15T09:18:00Z</time>
      </trkpt>
      <trkpt lat="48.75358" lon="1.98243">
        <ele>168</ele>
        <time>2019-09-15T09:18:32Z</time>
      </trkpt>
      <trkpt lat="48.75343" lon="1.98273">
        <ele>167</ele>
        <time>2019-09-15T09:18:47Z</time>
      </trkpt>
      <trkpt lat="48.75338" lon="1.98276">
        <ele>167</ele>
        <time>2019-09-15T09:18:50Z</time>
      </trkpt>
      <trkpt lat="48.7533" lon="1.98286">
        <ele>167</ele>
        <time>2019-09-15T09:18:57Z</time>
      </trkpt>
      <trkpt lat="48.75328" lon="1.98293">
        <ele>166</ele>
        <time>2019-09-15T09:19:01Z</time>
      </trkpt>
      <trkpt lat="48.75297" lon="1.98339">
        <ele>165</ele>
        <time>2019-09-15T09:19:31Z</time>
      </trkpt>
      <trkpt lat="48.75288" lon="1.98347">
        <ele>165</ele>
        <time>2019-09-15T09:19:38Z</time>
      </trkpt>
      <trkpt lat="48.7528" lon="1.98355">
        <ele>164</ele>
        <time>2019-09-15T09:19:47Z</time>
      </trkpt>
      <trkpt lat="48.75272" lon="1.98366">
        <ele>164</ele>
        <time>2019-09-15T09:19:54Z</time>
      </trkpt>
      <trkpt lat="48.75241" lon="1.98417">
        <ele>163</ele>
        <time>2019-09-15T09:20:24Z</time>
      </trkpt>
      <trkpt lat="48.75212" lon="1.9845">
        <ele>161</ele>
        <time>2019-09-15T09:20:49Z</time>
      </trkpt>
      <trkpt lat="48.75201" lon="1.98469">
        <ele>160</ele>
        <time>2019-09-15T09:21:00Z</time>
      </trkpt>
      <trkpt lat="48.75197" lon="1.98473">
        <ele>160</ele>
        <time>2019-09-15T09:21:04Z</time>
      </trkpt>
      <trkpt lat="48.75185" lon="1.985">
        <ele>160</ele>
        <time>2019-09-15T09:21:18Z</time>
      </trkpt>
      <trkpt lat="48.75175" lon="1.98517">
        <ele>160</ele>
        <time>2019-09-15T09:21:30Z</time>
      </trkpt>
      <trkpt lat="48.75172" lon="1.98525">
        <ele>160</ele>
        <time>2019-09-15T09:21:35Z</time>
      </trkpt>
      <trkpt lat="48.75158" lon="1.98543">
        <ele>160</ele>
        <time>2019-09-15T09:21:50Z</time>
      </trkpt>
      <trkpt lat="48.75156" lon="1.98549">
        <ele>160</ele>
        <time>2019-09-15T09:21:55Z</time>
      </trkpt>
      <trkpt lat="48.75151" lon="1.9857">
        <ele>161</ele>
        <time>2019-09-15T09:22:07Z</time>
      </trkpt>
      <trkpt lat="48.7515" lon="1.98584">
        <ele>162</ele>
        <time>2019-09-15T09:22:15Z</time>
      </trkpt>
      <trkpt lat="48.75148" lon="1.98598">
        <ele>162</ele>
        <time>2019-09-15T09:22:25Z</time>
      </trkpt>
      <trkpt lat="48.75148" lon="1.98607">
        <ele>163</ele>
        <time>2019-09-15T09:22:30Z</time>
      </trkpt>
      <trkpt lat="48.75151" lon="1.98614">
        <ele>163</ele>
        <time>2019-09-15T09:22:34Z</time>
      </trkpt>
      <trkpt lat="48.7515" lon="1.9863">
        <ele>164</ele>
        <time>2019-09-15T09:22:43Z</time>
      </trkpt>
      <trkpt lat="48.75148" lon="1.98638">
        <ele>164</ele>
        <time>2019-09-15T09:22:47Z</time>
      </trkpt>
      <trkpt lat="48.75148" lon="1.98647">
        <ele>165</ele>
        <time>2019-09-15T09:22:51Z</time>
      </trkpt>
      <trkpt lat="48.7515" lon="1.98655">
        <ele>165</ele>
        <time>2019-09-15T09:22:55Z</time>
      </trkpt>
      <trkpt lat="48.75153" lon="1.98661">
        <ele>165</ele>
        <time>2019-09-15T09:22:59Z</time>
      </trkpt>
      <trkpt lat="48.75152" lon="1.98669">
        <ele>166</ele>
        <time>2019-09-15T09:23:03Z</time>
      </trkpt>
      <trkpt lat="48.75154" lon="1.98677">
        <ele>166</ele>
        <time>2019-09-15T09:23:06Z</time>
      </trkpt>
      <trkpt lat="48.75152" lon="1.98737">
        <ele>167</ele>
        <time>2019-09-15T09:23:35Z</time>
      </trkpt>
      <trkpt lat="48.75148" lon="1.98751">
        <ele>167</ele>
        <time>2019-09-15T09:23:42Z</time>
      </trkpt>
      <trkpt lat="48.75148" lon="1.98767">
        <ele>167</ele>
        <time>2019-09-15T09:23:50Z</time>
      </trkpt>
      <trkpt lat="48.75149" lon="1.98773">
        <ele>168</ele>
        <time>2019-09-15T09:23:53Z</time>
      </trkpt>
      <trkpt lat="48.75147" lon="1.9882">
        <ele>169</ele>
        <time>2019-09-15T09:24:15Z</time>
      </trkpt>
      <trkpt lat="48.75142" lon="1.98852">
        <ele>169</ele>
        <time>2019-09-15T09:24:31Z</time>
      </trkpt>
      <trkpt lat="48.75143" lon="1.98859">
        <ele>169</ele>
        <time>2019-09-15T09:24:34Z</time>
      </trkpt>
      <trkpt lat="48.75144" lon="1.98866">
        <ele>168</ele>
        <time>2019-09-15T09:24:37Z</time>
      </trkpt>
      <trkpt lat="48.75142" lon="1.98883">
        <ele>168</ele>
        <time>2019-09-15T09:24:45Z</time>
      </trkpt>
      <trkpt lat="48.75143" lon="1.98906">
        <ele>168</ele>
        <time>2019-09-15T09:24:55Z</time>
      </trkpt>
      <trkpt lat="48.75145" lon="1.98912">
        <ele>168</ele>
        <time>2019-09-15T09:24:58Z</time>
      </trkpt>
      <trkpt lat="48.75145" lon="1.9892">
        <ele>168</ele>
        <time>2019-09-15T09:25:01Z</time>
      </trkpt>
      <trkpt lat="48.75147" lon="1.98928">
        <ele>168</ele>
        <time>2019-09-15T09:25:04Z</time>
      </trkpt>
      <trkpt lat="48.75144" lon="1.98952">
        <ele>169</ele>
        <time>2019-09-15T09:25:15Z</time>
      </trkpt>
      <trkpt lat="48.7514" lon="1.98967">
        <ele>169</ele>
        <time>2019-09-15T09:25:22Z</time>
      </trkpt>
      <trkpt lat="48.75136" lon="1.99013">
        <ele>169</ele>
        <time>2019-09-15T09:25:47Z</time>
      </trkpt>
      <trkpt lat="48.75134" lon="1.9902">
        <ele>170</ele>
        <time>2019-09-15T09:25:51Z</time>
      </trkpt>
      <trkpt lat="48.75137" lon="1.99042">
        <ele>170</ele>
        <time>2019-09-15T09:26:03Z</time>
      </trkpt>
      <trkpt lat="48.75135" lon="1.99059">
        <ele>170</ele>
        <time>2019-09-15T09:26:11Z</time>
      </trkpt>
      <trkpt lat="48.75136" lon="1.99075">
        <ele>170</ele>
        <time>2019-09-15T09:26:19Z</time>
      </trkpt>
      <trkpt lat="48.75135" lon="1.99082">
        <ele>170</ele>
        <time>2019-09-15T09:26:22Z</time>
      </trkpt>
      <trkpt lat="48.75135" lon="1.9909">
        <ele>170</ele>
        <time>2019-09-15T09:26:26Z</time>
      </trkpt>
      <trkpt lat="48.75136" lon="1.99101">
        <ele>170</ele>
        <time>2019-09-15T09:26:34Z</time>
      </trkpt>
      <trkpt lat="48.75139" lon="1.9911">
        <ele>170</ele>
        <time>2019-09-15T09:26:38Z</time>
      </trkpt>
      <trkpt lat="48.75137" lon="1.99117">
        <ele>170</ele>
        <time>2019-09-15T09:26:41Z</time>
      </trkpt>
      <trkpt lat="48.75136" lon="1.99125">
        <ele>170</ele>
        <time>2019-09-15T09:26:46Z</time>
      </trkpt>
      <trkpt lat="48.75133" lon="1.99132">
        <ele>170</ele>
        <time>2019-09-15T09:26:51Z</time>
      </trkpt>
      <trkpt lat="48.75134" lon="1.9914">
        <ele>170</ele>
        <time>2019-09-15T09:26:55Z</time>
      </trkpt>
      <trkpt lat="48.75136" lon="1.99146">
        <ele>170</ele>
        <time>2019-09-15T09:26:58Z</time>
      </trkpt>
      <trkpt lat="48.75135" lon="1.99164">
        <ele>170</ele>
        <time>2019-09-15T09:27:05Z</time>
      </trkpt>
      <trkpt lat="48.75137" lon="1.99187">
        <ele>170</ele>
        <time>2019-09-15T09:27:15Z</time>
      </trkpt>
      <trkpt lat="48.75135" lon="1.99195">
        <ele>170</ele>
        <time>2019-09-15T09:27:19Z</time>
      </trkpt>
      <trkpt lat="48.75133" lon="1.99202">
        <ele>170</ele>
        <time>2019-09-15T09:27:22Z</time>
      </trkpt>
      <trkpt lat="48.75133" lon="1.99209">
        <ele>170</ele>
        <time>2019-09-15T09:27:25Z</time>
      </trkpt>
      <trkpt lat="48.75133" lon="1.99218">
        <ele>170</ele>
        <time>2019-09-15T09:27:29Z</time>
      </trkpt>
      <trkpt lat="48.7513" lon="1.99231">
        <ele>170</ele>
        <time>2019-09-15T09:27:36Z</time>
      </trkpt>
      <trkpt lat="48.75133" lon="1.99248">
        <ele>170</ele>
        <time>2019-09-15T09:27:42Z</time>
      </trkpt>
      <trkpt lat="48.75131" lon="1.99263">
        <ele>170</ele>
        <time>2019-09-15T09:27:49Z</time>
      </trkpt>
      <trkpt lat="48.75134" lon="1.99295">
        <ele>171</ele>
        <time>2019-09-15T09:28:06Z</time>
      </trkpt>
      <trkpt lat="48.75136" lon="1.99302">
        <ele>171</ele>
        <time>2019-09-15T09:28:09Z</time>
      </trkpt>
      <trkpt lat="48.75138" lon="1.99311">
        <ele>171</ele>
        <time>2019-09-15T09:28:12Z</time>
      </trkpt>
      <trkpt lat="48.75135" lon="1.99341">
        <ele>171</ele>
        <time>2019-09-15T09:28:25Z</time>
      </trkpt>
      <trkpt lat="48.75137" lon="1.99349">
        <ele>171</ele>
        <time>2019-09-15T09:28:28Z</time>
      </trkpt>
      <trkpt lat="48.75142" lon="1.9936">
        <ele>171</ele>
        <time>2019-09-15T09:28:35Z</time>
      </trkpt>
      <trkpt lat="48.75143" lon="1.99367">
        <ele>171</ele>
        <time>2019-09-15T09:28:38Z</time>
      </trkpt>
      <trkpt lat="48.75142" lon="1.99376">
        <ele>171</ele>
        <time>2019-09-15T09:28:43Z</time>
      </trkpt>
      <trkpt lat="48.7514" lon="1.99383">
        <ele>171</ele>
        <time>2019-09-15T09:28:47Z</time>
      </trkpt>
      <trkpt lat="48.75136" lon="1.99408">
        <ele>171</ele>
        <time>2019-09-15T09:28:56Z</time>
      </trkpt>
      <trkpt lat="48.75139" lon="1.99421">
        <ele>171</ele>
        <time>2019-09-15T09:29:01Z</time>
      </trkpt>
      <trkpt lat="48.75138" lon="1.99433">
        <ele>171</ele>
        <time>2019-09-15T09:29:09Z</time>
      </trkpt>
      <trkpt lat="48.75138" lon="1.99449">
        <ele>171</ele>
        <time>2019-09-15T09:29:17Z</time>
      </trkpt>
      <trkpt lat="48.75134" lon="1.99464">
        <ele>171</ele>
        <time>2019-09-15T09:29:24Z</time>
      </trkpt>
      <trkpt lat="48.75134" lon="1.99472">
        <ele>171</ele>
        <time>2019-09-15T09:29:28Z</time>
      </trkpt>
      <trkpt lat="48.75132" lon="1.99478">
        <ele>171</ele>
        <time>2019-09-15T09:29:31Z</time>
      </trkpt>
      <trkpt lat="48.75132" lon="1.99516">
        <ele>171</ele>
        <time>2019-09-15T09:29:48Z</time>
      </trkpt>
      <trkpt lat="48.75134" lon="1.99539">
        <ele>171</ele>
        <time>2019-09-15T09:30:00Z</time>
      </trkpt>
      <trkpt lat="48.75132" lon="1.99547">
        <ele>171</ele>
        <time>2019-09-15T09:30:09Z</time>
      </trkpt>
      <trkpt lat="48.75125" lon="1.99551">
        <ele>171</ele>
        <time>2019-09-15T09:30:37Z</time>
      </trkpt>
      <trkpt lat="48.75123" lon="1.99557">
        <ele>171</ele>
        <time>2019-09-15T09:30:41Z</time>
      </trkpt>
      <trkpt lat="48.75123" lon="1.99563">
        <ele>170</ele>
        <time>2019-09-15T09:30:49Z</time>
      </trkpt>
      <trkpt lat="48.75123" lon="1.99571">
        <ele>171</ele>
        <time>2019-09-15T09:31:12Z</time>
      </trkpt>
      <trkpt lat="48.75121" lon="1.99577">
        <ele>170</ele>
        <time>2019-09-15T09:31:15Z</time>
      </trkpt>
      <trkpt lat="48.75117" lon="1.99583">
        <ele>170</ele>
        <time>2019-09-15T09:31:18Z</time>
      </trkpt>
      <trkpt lat="48.75109" lon="1.99591">
        <ele>170</ele>
        <time>2019-09-15T09:31:25Z</time>
      </trkpt>
      <trkpt lat="48.75073" lon="1.99642">
        <ele>170</ele>
        <time>2019-09-15T09:31:56Z</time>
      </trkpt>
      <trkpt lat="48.7507" lon="1.99648">
        <ele>170</ele>
        <time>2019-09-15T09:32:00Z</time>
      </trkpt>
      <trkpt lat="48.75056" lon="1.99672">
        <ele>169</ele>
        <time>2019-09-15T09:32:15Z</time>
      </trkpt>
      <trkpt lat="48.75054" lon="1.99679">
        <ele>169</ele>
        <time>2019-09-15T09:32:29Z</time>
      </trkpt>
      <trkpt lat="48.75049" lon="1.99681">
        <ele>169</ele>
        <time>2019-09-15T09:32:32Z</time>
      </trkpt>
      <trkpt lat="48.7504" lon="1.99694">
        <ele>169</ele>
        <time>2019-09-15T09:32:41Z</time>
      </trkpt>
      <trkpt lat="48.75036" lon="1.99697">
        <ele>169</ele>
        <time>2019-09-15T09:32:46Z</time>
      </trkpt>
      <trkpt lat="48.75033" lon="1.99704">
        <ele>169</ele>
        <time>2019-09-15T09:32:50Z</time>
      </trkpt>
      <trkpt lat="48.75033" lon="1.99713">
        <ele>169</ele>
        <time>2019-09-15T09:32:55Z</time>
      </trkpt>
      <trkpt lat="48.75025" lon="1.99725">
        <ele>169</ele>
        <time>2019-09-15T09:33:03Z</time>
      </trkpt>
      <trkpt lat="48.75022" lon="1.9973">
        <ele>169</ele>
        <time>2019-09-15T09:33:06Z</time>
      </trkpt>
      <trkpt lat="48.75013" lon="1.99739">
        <ele>169</ele>
        <time>2019-09-15T09:33:13Z</time>
      </trkpt>
      <trkpt lat="48.75003" lon="1.99756">
        <ele>169</ele>
        <time>2019-09-15T09:33:22Z</time>
      </trkpt>
      <trkpt lat="48.74991" lon="1.99771">
        <ele>169</ele>
        <time>2019-09-15T09:33:32Z</time>
      </trkpt>
      <trkpt lat="48.7498" lon="1.99788">
        <ele>169</ele>
        <time>2019-09-15T09:33:42Z</time>
      </trkpt>
      <trkpt lat="48.74972" lon="1.99799">
        <ele>169</ele>
        <time>2019-09-15T09:33:50Z</time>
      </trkpt>
      <trkpt lat="48.74955" lon="1.99827">
        <ele>169</ele>
        <time>2019-09-15T09:34:05Z</time>
      </trkpt>
      <trkpt lat="48.74939" lon="1.99848">
        <ele>169</ele>
        <time>2019-09-15T09:34:20Z</time>
      </trkpt>
      <trkpt lat="48.7493" lon="1.99865">
        <ele>169</ele>
        <time>2019-09-15T09:34:31Z</time>
      </trkpt>
      <trkpt lat="48.74925" lon="1.9987">
        <ele>169</ele>
        <time>2019-09-15T09:34:36Z</time>
      </trkpt>
      <trkpt lat="48.74922" lon="1.99877">
        <ele>169</ele>
        <time>2019-09-15T09:34:41Z</time>
      </trkpt>
      <trkpt lat="48.74918" lon="1.9988">
        <ele>168</ele>
        <time>2019-09-15T09:34:50Z</time>
      </trkpt>
      <trkpt lat="48.7491" lon="1.99892">
        <ele>168</ele>
        <time>2019-09-15T09:34:59Z</time>
      </trkpt>
      <trkpt lat="48.74892" lon="1.99908">
        <ele>167</ele>
        <time>2019-09-15T09:35:12Z</time>
      </trkpt>
      <trkpt lat="48.7489" lon="1.99914">
        <ele>167</ele>
        <time>2019-09-15T09:35:16Z</time>
      </trkpt>
      <trkpt lat="48.74888" lon="1.99922">
        <ele>166</ele>
        <time>2019-09-15T09:35:21Z</time>
      </trkpt>
      <trkpt lat="48.7488" lon="1.99931">
        <ele>163</ele>
        <time>2019-09-15T09:35:47Z</time>
      </trkpt>
      <trkpt lat="48.74874" lon="1.99935">
        <ele>163</ele>
        <time>2019-09-15T09:35:59Z</time>
      </trkpt>
      <trkpt lat="48.74863" lon="1.99955">
        <ele>158</ele>
        <time>2019-09-15T09:36:32Z</time>
      </trkpt>
      <trkpt lat="48.74853" lon="1.99965">
        <ele>154</ele>
        <time>2019-09-15T09:36:46Z</time>
      </trkpt>
      <trkpt lat="48.74855" lon="1.99973">
        <ele>154</ele>
        <time>2019-09-15T09:36:50Z</time>
      </trkpt>
      <trkpt lat="48.74855" lon="1.9998">
        <ele>153</ele>
        <time>2019-09-15T09:36:54Z</time>
      </trkpt>
      <trkpt lat="48.74853" lon="1.99988">
        <ele>153</ele>
        <time>2019-09-15T09:36:58Z</time>
      </trkpt>
      <trkpt lat="48.74851" lon="1.99996">
        <ele>153</ele>
        <time>2019-09-15T09:37:02Z</time>
      </trkpt>
      <trkpt lat="48.74854" lon="2.00004">
        <ele>156</ele>
        <time>2019-09-15T09:37:28Z</time>
      </trkpt>
      <trkpt lat="48.74863" lon="2.00024">
        <ele>155</ele>
        <time>2019-09-15T09:37:47Z</time>
      </trkpt>
      <trkpt lat="48.74862" lon="2.00033">
        <ele>155</ele>
        <time>2019-09-15T09:37:54Z</time>
      </trkpt>
      <trkpt lat="48.74861" lon="2.00041">
        <ele>157</ele>
        <time>2019-09-15T09:38:06Z</time>
      </trkpt>
      <trkpt lat="48.7486" lon="2.00053">
        <ele>158</ele>
        <time>2019-09-15T09:38:16Z</time>
      </trkpt>
      <trkpt lat="48.74859" lon="2.0006">
        <ele>158</ele>
        <time>2019-09-15T09:38:20Z</time>
      </trkpt>
      <trkpt lat="48.7486" lon="2.00067">
        <ele>160</ele>
        <time>2019-09-15T09:38:32Z</time>
      </trkpt>
      <trkpt lat="48.74861" lon="2.00084">
        <ele>162</ele>
        <time>2019-09-15T09:38:45Z</time>
      </trkpt>
      <trkpt lat="48.74864" lon="2.00094">
        <ele>164</ele>
        <time>2019-09-15T09:38:57Z</time>
      </trkpt>
      <trkpt lat="48.74862" lon="2.00104">
        <ele>165</ele>
        <time>2019-09-15T09:39:09Z</time>
      </trkpt>
      <trkpt lat="48.74855" lon="2.0011">
        <ele>166</ele>
        <time>2019-09-15T09:39:27Z</time>
      </trkpt>
      <trkpt lat="48.7485" lon="2.00118">
        <ele>165</ele>
        <time>2019-09-15T09:39:34Z</time>
      </trkpt>
      <trkpt lat="48.74851" lon="2.00128">
        <ele>165</ele>
        <time>2019-09-15T09:39:43Z</time>
      </trkpt>
      <trkpt lat="48.74845" lon="2.0015">
        <ele>164</ele>
        <time>2019-09-15T09:39:57Z</time>
      </trkpt>
      <trkpt lat="48.74844" lon="2.00159">
        <ele>164</ele>
        <time>2019-09-15T09:40:05Z</time>
      </trkpt>
      <trkpt lat="48.74839" lon="2.00171">
        <ele>165</ele>
        <time>2019-09-15T09:40:17Z</time>
      </trkpt>
      <trkpt lat="48.74839" lon="2.0018">
        <ele>165</ele>
        <time>2019-09-15T09:40:23Z</time>
      </trkpt>
      <trkpt lat="48.74832" lon="2.00189">
        <ele>164</ele>
        <time>2019-09-15T09:40:33Z</time>
      </trkpt>
      <trkpt lat="48.74826" lon="2.00201">
        <ele>164</ele>
        <time>2019-09-15T09:40:41Z</time>
      </trkpt>
      <trkpt lat="48.74822" lon="2.00205">
        <ele>164</ele>
        <time>2019-09-15T09:40:46Z</time>
      </trkpt>
      <trkpt lat="48.74811" lon="2.0021">
        <ele>165</ele>
        <time>2019-09-15T09:40:55Z</time>
      </trkpt>
      <trkpt lat="48.74806" lon="2.00214">
        <ele>165</ele>
        <time>2019-09-15T09:40:59Z</time>
      </trkpt>
      <trkpt lat="48.74796" lon="2.0022">
        <ele>164</ele>
        <time>2019-09-15T09:41:15Z</time>
      </trkpt>
      <trkpt lat="48.74792" lon="2.00224">
        <ele>162</ele>
        <time>2019-09-15T09:41:33Z</time>
      </trkpt>
      <trkpt lat="48.74786" lon="2.00223">
        <ele>159</ele>
        <time>2019-09-15T09:41:51Z</time>
      </trkpt>
      <trkpt lat="48.74775" lon="2.00226">
        <ele>155</ele>
        <time>2019-09-15T09:42:39Z</time>
      </trkpt>
      <trkpt lat="48.74769" lon="2.0023">
        <ele>155</ele>
        <time>2019-09-15T09:43:30Z</time>
      </trkpt>
      <trkpt lat="48.74758" lon="2.00236">
        <ele>152</ele>
        <time>2019-09-15T09:43:43Z</time>
      </trkpt>
      <trkpt lat="48.74756" lon="2.00244">
        <ele>151</ele>
        <time>2019-09-15T09:43:51Z</time>
      </trkpt>
      <trkpt lat="48.74751" lon="2.00251">
        <ele>151</ele>
        <time>2019-09-15T09:43:57Z</time>
      </trkpt>
      <trkpt lat="48.74754" lon="2.00258">
        <ele>150</ele>
        <time>2019-09-15T09:44:02Z</time>
      </trkpt>
      <trkpt lat="48.74759" lon="2.00262">
        <ele>150</ele>
        <time>2019-09-15T09:44:07Z</time>
      </trkpt>
      <trkpt lat="48.74761" lon="2.00271">
        <ele>149</ele>
        <time>2019-09-15T09:44:18Z</time>
      </trkpt>
      <trkpt lat="48.74765" lon="2.00277">
        <ele>149</ele>
        <time>2019-09-15T09:44:25Z</time>
      </trkpt>
      <trkpt lat="48.74768" lon="2.00281">
        <ele>149</ele>
        <time>2019-09-15T09:44:30Z</time>
      </trkpt>
      <trkpt lat="48.74773" lon="2.00288">
        <ele>149</ele>
        <time>2019-09-15T09:44:36Z</time>
      </trkpt>
      <trkpt lat="48.74772" lon="2.00305">
        <ele>147</ele>
        <time>2019-09-15T09:44:52Z</time>
      </trkpt>
      <trkpt lat="48.74773" lon="2.0032">
        <ele>146</ele>
        <time>2019-09-15T09:45:02Z</time>
      </trkpt>
      <trkpt lat="48.7478" lon="2.00331">
        <ele>145</ele>
        <time>2019-09-15T09:45:09Z</time>
      </trkpt>
      <trkpt lat="48.74782" lon="2.00339">
        <ele>145</ele>
        <time>2019-09-15T09:45:13Z</time>
      </trkpt>
      <trkpt lat="48.74778" lon="2.00369">
        <ele>144</ele>
        <time>2019-09-15T09:45:26Z</time>
      </trkpt>
      <trkpt lat="48.74786" lon="2.00399">
        <ele>142</ele>
        <time>2019-09-15T09:45:45Z</time>
      </trkpt>
      <trkpt lat="48.74784" lon="2.00415">
        <ele>140</ele>
        <time>2019-09-15T09:45:54Z</time>
      </trkpt>
      <trkpt lat="48.74786" lon="2.00424">
        <ele>139</ele>
        <time>2019-09-15T09:46:03Z</time>
      </trkpt>
      <trkpt lat="48.74785" lon="2.00437">
        <ele>139</ele>
        <time>2019-09-15T09:46:13Z</time>
      </trkpt>
      <trkpt lat="48.74784" lon="2.00444">
        <ele>138</ele>
        <time>2019-09-15T09:46:17Z</time>
      </trkpt>
      <trkpt lat="48.74785" lon="2.00469">
        <ele>137</ele>
        <time>2019-09-15T09:46:29Z</time>
      </trkpt>
      <trkpt lat="48.74782" lon="2.00476">
        <ele>136</ele>
        <time>2019-09-15T09:46:33Z</time>
      </trkpt>
      <trkpt lat="48.74781" lon="2.00483">
        <ele>136</ele>
        <time>2019-09-15T09:46:37Z</time>
      </trkpt>
      <trkpt lat="48.74779" lon="2.0049">
        <ele>135</ele>
        <time>2019-09-15T09:46:41Z</time>
      </trkpt>
      <trkpt lat="48.74781" lon="2.00497">
        <ele>135</ele>
        <time>2019-09-15T09:46:45Z</time>
      </trkpt>
      <trkpt lat="48.74776" lon="2.00513">
        <ele>134</ele>
        <time>2019-09-15T09:46:54Z</time>
      </trkpt>
      <trkpt lat="48.74776" lon="2.00527">
        <ele>133</ele>
        <time>2019-09-15T09:47:04Z</time>
      </trkpt>
      <trkpt lat="48.74773" lon="2.00541">
        <ele>133</ele>
        <time>2019-09-15T09:47:10Z</time>
      </trkpt>
      <trkpt lat="48.74765" lon="2.00555">
        <ele>132</ele>
        <time>2019-09-15T09:47:17Z</time>
      </trkpt>
      <trkpt lat="48.74763" lon="2.00569">
        <ele>131</ele>
        <time>2019-09-15T09:47:26Z</time>
      </trkpt>
      <trkpt lat="48.74762" lon="2.00576">
        <ele>131</ele>
        <time>2019-09-15T09:47:36Z</time>
      </trkpt>
      <trkpt lat="48.74759" lon="2.00589">
        <ele>129</ele>
        <time>2019-09-15T09:47:47Z</time>
      </trkpt>
      <trkpt lat="48.7476" lon="2.00601">
        <ele>129</ele>
        <time>2019-09-15T09:47:57Z</time>
      </trkpt>
      <trkpt lat="48.74761" lon="2.00617">
        <ele>129</ele>
        <time>2019-09-15T09:48:06Z</time>
      </trkpt>
      <trkpt lat="48.74758" lon="2.00623">
        <ele>129</ele>
        <time>2019-09-15T09:48:11Z</time>
      </trkpt>
      <trkpt lat="48.74755" lon="2.00629">
        <ele>129</ele>
        <time>2019-09-15T09:48:15Z</time>
      </trkpt>
      <trkpt lat="48.74749" lon="2.00641">
        <ele>128</ele>
        <time>2019-09-15T09:48:24Z</time>
      </trkpt>
      <trkpt lat="48.74745" lon="2.00653">
        <ele>130</ele>
        <time>2019-09-15T09:48:37Z</time>
      </trkpt>
      <trkpt lat="48.74741" lon="2.00655">
        <ele>130</ele>
        <time>2019-09-15T09:48:52Z</time>
      </trkpt>
      <trkpt lat="48.74739" lon="2.00662">
        <ele>130</ele>
        <time>2019-09-15T09:49:17Z</time>
      </trkpt>
      <trkpt lat="48.74745" lon="2.00668">
        <ele>131</ele>
        <time>2019-09-15T09:52:37Z</time>
      </trkpt>
      <trkpt lat="48.7474" lon="2.00676">
        <ele>131</ele>
        <time>2019-09-15T09:52:47Z</time>
      </trkpt>
      <trkpt lat="48.74735" lon="2.00685">
        <ele>131</ele>
        <time>2019-09-15T09:52:57Z</time>
      </trkpt>
      <trkpt lat="48.74733" lon="2.00696">
        <ele>132</ele>
        <time>2019-09-15T09:53:07Z</time>
      </trkpt>
      <trkpt lat="48.74728" lon="2.00701">
        <ele>132</ele>
        <time>2019-09-15T09:53:12Z</time>
      </trkpt>
      <trkpt lat="48.74726" lon="2.0071">
        <ele>132</ele>
        <time>2019-09-15T09:53:24Z</time>
      </trkpt>
      <trkpt lat="48.74721" lon="2.00719">
        <ele>133</ele>
        <time>2019-09-15T09:53:36Z</time>
      </trkpt>
      <trkpt lat="48.74708" lon="2.0073">
        <ele>134</ele>
        <time>2019-09-15T09:53:47Z</time>
      </trkpt>
      <trkpt lat="48.74704" lon="2.00736">
        <ele>134</ele>
        <time>2019-09-15T09:53:52Z</time>
      </trkpt>
      <trkpt lat="48.74698" lon="2.00751">
        <ele>134</ele>
        <time>2019-09-15T09:54:01Z</time>
      </trkpt>
      <trkpt lat="48.74697" lon="2.00758">
        <ele>134</ele>
        <time>2019-09-15T09:54:05Z</time>
      </trkpt>
      <trkpt lat="48.74689" lon="2.00771">
        <ele>134</ele>
        <time>2019-09-15T09:54:13Z</time>
      </trkpt>
      <trkpt lat="48.74679" lon="2.00794">
        <ele>135</ele>
        <time>2019-09-15T09:54:32Z</time>
      </trkpt>
      <trkpt lat="48.74676" lon="2.008">
        <ele>135</ele>
        <time>2019-09-15T09:54:36Z</time>
      </trkpt>
      <trkpt lat="48.74676" lon="2.00807">
        <ele>135</ele>
        <time>2019-09-15T09:54:41Z</time>
      </trkpt>
      <trkpt lat="48.74673" lon="2.00813">
        <ele>135</ele>
        <time>2019-09-15T09:54:45Z</time>
      </trkpt>
      <trkpt lat="48.7467" lon="2.00819">
        <ele>135</ele>
        <time>2019-09-15T09:54:49Z</time>
      </trkpt>
      <trkpt lat="48.74671" lon="2.00827">
        <ele>136</ele>
        <time>2019-09-15T09:54:54Z</time>
      </trkpt>
      <trkpt lat="48.74676" lon="2.00848">
        <ele>135</ele>
        <time>2019-09-15T09:55:08Z</time>
      </trkpt>
      <trkpt lat="48.74683" lon="2.00859">
        <ele>136</ele>
        <time>2019-09-15T09:55:17Z</time>
      </trkpt>
      <trkpt lat="48.74693" lon="2.00878">
        <ele>136</ele>
        <time>2019-09-15T09:55:25Z</time>
      </trkpt>
      <trkpt lat="48.74695" lon="2.00886">
        <ele>136</ele>
        <time>2019-09-15T09:55:29Z</time>
      </trkpt>
      <trkpt lat="48.74696" lon="2.00893">
        <ele>136</ele>
        <time>2019-09-15T09:55:33Z</time>
      </trkpt>
      <trkpt lat="48.74692" lon="2.00903">
        <ele>135</ele>
        <time>2019-09-15T09:55:40Z</time>
      </trkpt>
      <trkpt lat="48.74688" lon="2.00918">
        <ele>134</ele>
        <time>2019-09-15T09:55:50Z</time>
      </trkpt>
      <trkpt lat="48.74688" lon="2.00933">
        <ele>134</ele>
        <time>2019-09-15T09:55:59Z</time>
      </trkpt>
      <trkpt lat="48.74686" lon="2.00942">
        <ele>133</ele>
        <time>2019-09-15T09:56:07Z</time>
      </trkpt>
      <trkpt lat="48.74687" lon="2.0095">
        <ele>133</ele>
        <time>2019-09-15T09:56:17Z</time>
      </trkpt>
      <trkpt lat="48.74692" lon="2.00962">
        <ele>132</ele>
        <time>2019-09-15T09:56:27Z</time>
      </trkpt>
      <trkpt lat="48.74694" lon="2.00968">
        <ele>132</ele>
        <time>2019-09-15T09:56:32Z</time>
      </trkpt>
      <trkpt lat="48.74691" lon="2.00979">
        <ele>132</ele>
        <time>2019-09-15T09:56:40Z</time>
      </trkpt>
      <trkpt lat="48.74687" lon="2.00984">
        <ele>131</ele>
        <time>2019-09-15T09:56:44Z</time>
      </trkpt>
      <trkpt lat="48.74686" lon="2.00991">
        <ele>130</ele>
        <time>2019-09-15T09:56:49Z</time>
      </trkpt>
      <trkpt lat="48.7469" lon="2.00998">
        <ele>129</ele>
        <time>2019-09-15T09:56:53Z</time>
      </trkpt>
      <trkpt lat="48.7469" lon="2.01006">
        <ele>128</ele>
        <time>2019-09-15T09:56:57Z</time>
      </trkpt>
      <trkpt lat="48.74686" lon="2.01013">
        <ele>128</ele>
        <time>2019-09-15T09:57:00Z</time>
      </trkpt>
      <trkpt lat="48.74687" lon="2.01021">
        <ele>127</ele>
        <time>2019-09-15T09:57:04Z</time>
      </trkpt>
      <trkpt lat="48.74689" lon="2.01028">
        <ele>127</ele>
        <time>2019-09-15T09:57:09Z</time>
      </trkpt>
      <trkpt lat="48.74684" lon="2.01036">
        <ele>126</ele>
        <time>2019-09-15T09:57:15Z</time>
      </trkpt>
      <trkpt lat="48.74679" lon="2.01049">
        <ele>126</ele>
        <time>2019-09-15T09:57:23Z</time>
      </trkpt>
      <trkpt lat="48.74678" lon="2.01056">
        <ele>126</ele>
        <time>2019-09-15T09:57:27Z</time>
      </trkpt>
      <trkpt lat="48.7468" lon="2.01062">
        <ele>126</ele>
        <time>2019-09-15T09:57:31Z</time>
      </trkpt>
      <trkpt lat="48.74678" lon="2.0107">
        <ele>126</ele>
        <time>2019-09-15T09:57:35Z</time>
      </trkpt>
      <trkpt lat="48.74673" lon="2.01074">
        <ele>126</ele>
        <time>2019-09-15T09:57:39Z</time>
      </trkpt>
      <trkpt lat="48.7467" lon="2.01081">
        <ele>126</ele>
        <time>2019-09-15T09:57:43Z</time>
      </trkpt>
      <trkpt lat="48.74671" lon="2.01088">
        <ele>126</ele>
        <time>2019-09-15T09:57:46Z</time>
      </trkpt>
      <trkpt lat="48.74664" lon="2.0111">
        <ele>126</ele>
        <time>2019-09-15T09:57:57Z</time>
      </trkpt>
      <trkpt lat="48.74655" lon="2.0112">
        <ele>126</ele>
        <time>2019-09-15T09:58:03Z</time>
      </trkpt>
      <trkpt lat="48.74652" lon="2.01127">
        <ele>126</ele>
        <time>2019-09-15T09:58:07Z</time>
      </trkpt>
      <trkpt lat="48.7465" lon="2.01134">
        <ele>126</ele>
        <time>2019-09-15T09:58:10Z</time>
      </trkpt>
      <trkpt lat="48.74649" lon="2.01148">
        <ele>126</ele>
        <time>2019-09-15T09:58:16Z</time>
      </trkpt>
      <trkpt lat="48.74648" lon="2.01154">
        <ele>126</ele>
        <time>2019-09-15T09:58:19Z</time>
      </trkpt>
      <trkpt lat="48.74645" lon="2.0116">
        <ele>125</ele>
        <time>2019-09-15T09:58:24Z</time>
      </trkpt>
      <trkpt lat="48.74634" lon="2.01168">
        <ele>124</ele>
        <time>2019-09-15T09:58:32Z</time>
      </trkpt>
      <trkpt lat="48.74626" lon="2.01181">
        <ele>123</ele>
        <time>2019-09-15T09:58:39Z</time>
      </trkpt>
      <trkpt lat="48.74621" lon="2.01202">
        <ele>124</ele>
        <time>2019-09-15T09:58:53Z</time>
      </trkpt>
      <trkpt lat="48.74609" lon="2.01215">
        <ele>124</ele>
        <time>2019-09-15T09:59:04Z</time>
      </trkpt>
      <trkpt lat="48.74607" lon="2.01237">
        <ele>124</ele>
        <time>2019-09-15T09:59:20Z</time>
      </trkpt>
      <trkpt lat="48.74609" lon="2.01243">
        <ele>124</ele>
        <time>2019-09-15T09:59:24Z</time>
      </trkpt>
      <trkpt lat="48.74606" lon="2.01252">
        <ele>124</ele>
        <time>2019-09-15T09:59:28Z</time>
      </trkpt>
      <trkpt lat="48.74602" lon="2.01256">
        <ele>124</ele>
        <time>2019-09-15T09:59:31Z</time>
      </trkpt>
      <trkpt lat="48.74602" lon="2.01263">
        <ele>124</ele>
        <time>2019-09-15T09:59:35Z</time>
      </trkpt>
      <trkpt lat="48.74604" lon="2.0127">
        <ele>124</ele>
        <time>2019-09-15T09:59:39Z</time>
      </trkpt>
      <trkpt lat="48.74603" lon="2.01278">
        <ele>123</ele>
        <time>2019-09-15T09:59:43Z</time>
      </trkpt>
      <trkpt lat="48.746" lon="2.01292">
        <ele>123</ele>
        <time>2019-09-15T09:59:52Z</time>
      </trkpt>
      <trkpt lat="48.74597" lon="2.01298">
        <ele>123</ele>
        <time>2019-09-15T09:59:56Z</time>
      </trkpt>
      <trkpt lat="48.74591" lon="2.01326">
        <ele>123</ele>
        <time>2019-09-15T10:00:12Z</time>
      </trkpt>
      <trkpt lat="48.7459" lon="2.01356">
        <ele>123</ele>
        <time>2019-09-15T10:00:28Z</time>
      </trkpt>
      <trkpt lat="48.74586" lon="2.0137">
        <ele>123</ele>
        <time>2019-09-15T10:00:35Z</time>
      </trkpt>
      <trkpt lat="48.74581" lon="2.01381">
        <ele>123</ele>
        <time>2019-09-15T10:00:44Z</time>
      </trkpt>
      <trkpt lat="48.7457" lon="2.01407">
        <ele>123</ele>
        <time>2019-09-15T10:00:59Z</time>
      </trkpt>
      <trkpt lat="48.74563" lon="2.01416">
        <ele>123</ele>
        <time>2019-09-15T10:01:06Z</time>
      </trkpt>
      <trkpt lat="48.74557" lon="2.01427">
        <ele>123</ele>
        <time>2019-09-15T10:01:15Z</time>
      </trkpt>
      <trkpt lat="48.74549" lon="2.01453">
        <ele>123</ele>
        <time>2019-09-15T10:01:29Z</time>
      </trkpt>
      <trkpt lat="48.74544" lon="2.01468">
        <ele>123</ele>
        <time>2019-09-15T10:01:36Z</time>
      </trkpt>
      <trkpt lat="48.74533" lon="2.01492">
        <ele>123</ele>
        <time>2019-09-15T10:01:51Z</time>
      </trkpt>
      <trkpt lat="48.74533" lon="2.01507">
        <ele>124</ele>
        <time>2019-09-15T10:01:58Z</time>
      </trkpt>
      <trkpt lat="48.74538" lon="2.01536">
        <ele>124</ele>
        <time>2019-09-15T10:02:13Z</time>
      </trkpt>
      <trkpt lat="48.74548" lon="2.01563">
        <ele>125</ele>
        <time>2019-09-15T10:02:29Z</time>
      </trkpt>
      <trkpt lat="48.74549" lon="2.01574">
        <ele>125</ele>
        <time>2019-09-15T10:02:34Z</time>
      </trkpt>
      <trkpt lat="48.74556" lon="2.01587">
        <ele>126</ele>
        <time>2019-09-15T10:02:41Z</time>
      </trkpt>
      <trkpt lat="48.74559" lon="2.01594">
        <ele>126</ele>
        <time>2019-09-15T10:02:44Z</time>
      </trkpt>
      <trkpt lat="48.74563" lon="2.0161">
        <ele>125</ele>
        <time>2019-09-15T10:02:52Z</time>
      </trkpt>
      <trkpt lat="48.74563" lon="2.01618">
        <ele>125</ele>
        <time>2019-09-15T10:02:56Z</time>
      </trkpt>
      <trkpt lat="48.74561" lon="2.01625">
        <ele>125</ele>
        <time>2019-09-15T10:02:59Z</time>
      </trkpt>
      <trkpt lat="48.74557" lon="2.01631">
        <ele>125</ele>
        <time>2019-09-15T10:03:02Z</time>
      </trkpt>
      <trkpt lat="48.74552" lon="2.01655">
        <ele>125</ele>
        <time>2019-09-15T10:03:14Z</time>
      </trkpt>
      <trkpt lat="48.7455" lon="2.01662">
        <ele>125</ele>
        <time>2019-09-15T10:03:18Z</time>
      </trkpt>
      <trkpt lat="48.7455" lon="2.01669">
        <ele>125</ele>
        <time>2019-09-15T10:03:22Z</time>
      </trkpt>
      <trkpt lat="48.74552" lon="2.01693">
        <ele>125</ele>
        <time>2019-09-15T10:03:34Z</time>
      </trkpt>
      <trkpt lat="48.74551" lon="2.01708">
        <ele>125</ele>
        <time>2019-09-15T10:03:43Z</time>
      </trkpt>
      <trkpt lat="48.74554" lon="2.01723">
        <ele>125</ele>
        <time>2019-09-15T10:03:52Z</time>
      </trkpt>
      <trkpt lat="48.74551" lon="2.01729">
        <ele>126</ele>
        <time>2019-09-15T10:03:57Z</time>
      </trkpt>
      <trkpt lat="48.74545" lon="2.01732">
        <ele>126</ele>
        <time>2019-09-15T10:04:05Z</time>
      </trkpt>
      <trkpt lat="48.74541" lon="2.01733">
        <ele>128</ele>
        <time>2019-09-15T10:04:27Z</time>
      </trkpt>
      <trkpt lat="48.74533" lon="2.01741">
        <ele>127</ele>
        <time>2019-09-15T10:04:45Z</time>
      </trkpt>
      <trkpt lat="48.74523" lon="2.01751">
        <ele>127</ele>
        <time>2019-09-15T10:04:54Z</time>
      </trkpt>
      <trkpt lat="48.74518" lon="2.01753">
        <ele>128</ele>
        <time>2019-09-15T10:04:58Z</time>
      </trkpt>
      <trkpt lat="48.74513" lon="2.01758">
        <ele>128</ele>
        <time>2019-09-15T10:05:02Z</time>
      </trkpt>
      <trkpt lat="48.74494" lon="2.0178">
        <ele>128</ele>
        <time>2019-09-15T10:05:23Z</time>
      </trkpt>
      <trkpt lat="48.74489" lon="2.01787">
        <ele>129</ele>
        <time>2019-09-15T10:05:49Z</time>
      </trkpt>
      <trkpt lat="48.74484" lon="2.01789">
        <ele>129</ele>
        <time>2019-09-15T10:05:53Z</time>
      </trkpt>
      <trkpt lat="48.74468" lon="2.01806">
        <ele>131</ele>
        <time>2019-09-15T10:06:11Z</time>
      </trkpt>
      <trkpt lat="48.74483" lon="2.01822">
        <ele>134</ele>
        <time>2019-09-15T10:06:32Z</time>
      </trkpt>
      <trkpt lat="48.74489" lon="2.01834">
        <ele>135</ele>
        <time>2019-09-15T10:06:42Z</time>
      </trkpt>
      <trkpt lat="48.74503" lon="2.01847">
        <ele>137</ele>
        <time>2019-09-15T10:06:57Z</time>
      </trkpt>
      <trkpt lat="48.74514" lon="2.0186">
        <ele>139</ele>
        <time>2019-09-15T10:07:11Z</time>
      </trkpt>
      <trkpt lat="48.74528" lon="2.01871">
        <ele>141</ele>
        <time>2019-09-15T10:07:23Z</time>
      </trkpt>
      <trkpt lat="48.74531" lon="2.01876">
        <ele>141</ele>
        <time>2019-09-15T10:07:27Z</time>
      </trkpt>
      <trkpt lat="48.74535" lon="2.01879">
        <ele>142</ele>
        <time>2019-09-15T10:07:32Z</time>
      </trkpt>
      <trkpt lat="48.74558" lon="2.01922">
        <ele>145</ele>
        <time>2019-09-15T10:07:58Z</time>
      </trkpt>
      <trkpt lat="48.74564" lon="2.01953">
        <ele>147</ele>
        <time>2019-09-15T10:08:16Z</time>
      </trkpt>
      <trkpt lat="48.74564" lon="2.01961">
        <ele>148</ele>
        <time>2019-09-15T10:08:21Z</time>
      </trkpt>
      <trkpt lat="48.74566" lon="2.01969">
        <ele>148</ele>
        <time>2019-09-15T10:08:26Z</time>
      </trkpt>
      <trkpt lat="48.7457" lon="2.01978">
        <ele>149</ele>
        <time>2019-09-15T10:08:34Z</time>
      </trkpt>
      <trkpt lat="48.74581" lon="2.02019">
        <ele>153</ele>
        <time>2019-09-15T10:08:58Z</time>
      </trkpt>
      <trkpt lat="48.74585" lon="2.02056">
        <ele>157</ele>
        <time>2019-09-15T10:09:20Z</time>
      </trkpt>
      <trkpt lat="48.74588" lon="2.0207">
        <ele>158</ele>
        <time>2019-09-15T10:09:29Z</time>
      </trkpt>
      <trkpt lat="48.74591" lon="2.02075">
        <ele>159</ele>
        <time>2019-09-15T10:09:33Z</time>
      </trkpt>
      <trkpt lat="48.74598" lon="2.02096">
        <ele>161</ele>
        <time>2019-09-15T10:09:47Z</time>
      </trkpt>
      <trkpt lat="48.74602" lon="2.02102">
        <ele>161</ele>
        <time>2019-09-15T10:09:52Z</time>
      </trkpt>
      <trkpt lat="48.74604" lon="2.02111">
        <ele>163</ele>
        <time>2019-09-15T10:10:00Z</time>
      </trkpt>
      <trkpt lat="48.74608" lon="2.02117">
        <ele>163</ele>
        <time>2019-09-15T10:10:05Z</time>
      </trkpt>
      <trkpt lat="48.74621" lon="2.02149">
        <ele>165</ele>
        <time>2019-09-15T10:10:25Z</time>
      </trkpt>
      <trkpt lat="48.74625" lon="2.02154">
        <ele>166</ele>
        <time>2019-09-15T10:10:30Z</time>
      </trkpt>
      <trkpt lat="48.74625" lon="2.02161">
        <ele>166</ele>
        <time>2019-09-15T10:10:34Z</time>
      </trkpt>
      <trkpt lat="48.74624" lon="2.02169">
        <ele>166</ele>
        <time>2019-09-15T10:10:38Z</time>
      </trkpt>
      <trkpt lat="48.74621" lon="2.02175">
        <ele>166</ele>
        <time>2019-09-15T10:10:42Z</time>
      </trkpt>
      <trkpt lat="48.746" lon="2.02194">
        <ele>168</ele>
        <time>2019-09-15T10:11:01Z</time>
      </trkpt>
      <trkpt lat="48.74595" lon="2.02196">
        <ele>168</ele>
        <time>2019-09-15T10:11:09Z</time>
      </trkpt>
      <trkpt lat="48.7459" lon="2.02201">
        <ele>168</ele>
        <time>2019-09-15T10:11:14Z</time>
      </trkpt>
      <trkpt lat="48.74573" lon="2.02224">
        <ele>169</ele>
        <time>2019-09-15T10:11:28Z</time>
      </trkpt>
      <trkpt lat="48.74552" lon="2.02245">
        <ele>169</ele>
        <time>2019-09-15T10:11:48Z</time>
      </trkpt>
      <trkpt lat="48.74543" lon="2.02262">
        <ele>169</ele>
        <time>2019-09-15T10:11:59Z</time>
      </trkpt>
      <trkpt lat="48.74539" lon="2.02277">
        <ele>169</ele>
        <time>2019-09-15T10:12:06Z</time>
      </trkpt>
      <trkpt lat="48.74522" lon="2.02295">
        <ele>169</ele>
        <time>2019-09-15T10:12:23Z</time>
      </trkpt>
      <trkpt lat="48.74521" lon="2.02303">
        <ele>168</ele>
        <time>2019-09-15T10:12:28Z</time>
      </trkpt>
      <trkpt lat="48.74511" lon="2.02324">
        <ele>168</ele>
        <time>2019-09-15T10:12:40Z</time>
      </trkpt>
      <trkpt lat="48.74505" lon="2.02333">
        <ele>168</ele>
        <time>2019-09-15T10:12:47Z</time>
      </trkpt>
      <trkpt lat="48.7449" lon="2.02368">
        <ele>168</ele>
        <time>2019-09-15T10:13:07Z</time>
      </trkpt>
      <trkpt lat="48.74487" lon="2.02381">
        <ele>168</ele>
        <time>2019-09-15T10:13:13Z</time>
      </trkpt>
      <trkpt lat="48.74487" lon="2.02396">
        <ele>168</ele>
        <time>2019-09-15T10:13:21Z</time>
      </trkpt>
      <trkpt lat="48.74481" lon="2.02417">
        <ele>168</ele>
        <time>2019-09-15T10:13:33Z</time>
      </trkpt>
      <trkpt lat="48.7448" lon="2.0244">
        <ele>168</ele>
        <time>2019-09-15T10:13:45Z</time>
      </trkpt>
      <trkpt lat="48.74465" lon="2.0251">
        <ele>168</ele>
        <time>2019-09-15T10:14:18Z</time>
      </trkpt>
      <trkpt lat="48.74462" lon="2.02516">
        <ele>168</ele>
        <time>2019-09-15T10:14:21Z</time>
      </trkpt>
      <trkpt lat="48.74459" lon="2.02531">
        <ele>168</ele>
        <time>2019-09-15T10:14:29Z</time>
      </trkpt>
      <trkpt lat="48.74457" lon="2.02545">
        <ele>168</ele>
        <time>2019-09-15T10:14:36Z</time>
      </trkpt>
      <trkpt lat="48.74455" lon="2.02553">
        <ele>168</ele>
        <time>2019-09-15T10:14:40Z</time>
      </trkpt>
      <trkpt lat="48.74453" lon="2.02558">
        <ele>168</ele>
        <time>2019-09-15T10:14:43Z</time>
      </trkpt>
      <trkpt lat="48.74448" lon="2.02572">
        <ele>168</ele>
        <time>2019-09-15T10:14:50Z</time>
      </trkpt>
      <trkpt lat="48.74445" lon="2.02578">
        <ele>168</ele>
        <time>2019-09-15T10:14:54Z</time>
      </trkpt>
      <trkpt lat="48.74436" lon="2.02607">
        <ele>168</ele>
        <time>2019-09-15T10:15:10Z</time>
      </trkpt>
      <trkpt lat="48.7443" lon="2.02627">
        <ele>168</ele>
        <time>2019-09-15T10:15:23Z</time>
      </trkpt>
      <trkpt lat="48.74426" lon="2.02632">
        <ele>168</ele>
        <time>2019-09-15T10:15:28Z</time>
      </trkpt>
      <trkpt lat="48.74415" lon="2.02667">
        <ele>168</ele>
        <time>2019-09-15T10:15:49Z</time>
      </trkpt>
      <trkpt lat="48.74413" lon="2.02674">
        <ele>168</ele>
        <time>2019-09-15T10:15:53Z</time>
      </trkpt>
      <trkpt lat="48.74401" lon="2.02709">
        <ele>168</ele>
        <time>2019-09-15T10:16:12Z</time>
      </trkpt>
      <trkpt lat="48.74397" lon="2.02715">
        <ele>167</ele>
        <time>2019-09-15T10:16:15Z</time>
      </trkpt>
      <trkpt lat="48.74395" lon="2.02723">
        <ele>167</ele>
        <time>2019-09-15T10:16:19Z</time>
      </trkpt>
      <trkpt lat="48.74386" lon="2.02739">
        <ele>167</ele>
        <time>2019-09-15T10:16:29Z</time>
      </trkpt>
      <trkpt lat="48.74377" lon="2.02748">
        <ele>166</ele>
        <time>2019-09-15T10:16:35Z</time>
      </trkpt>
      <trkpt lat="48.74348" lon="2.02764">
        <ele>166</ele>
        <time>2019-09-15T10:16:57Z</time>
      </trkpt>
      <trkpt lat="48.74327" lon="2.0279">
        <ele>165</ele>
        <time>2019-09-15T10:17:18Z</time>
      </trkpt>
      <trkpt lat="48.74318" lon="2.02795">
        <ele>165</ele>
        <time>2019-09-15T10:17:27Z</time>
      </trkpt>
      <trkpt lat="48.7431" lon="2.02806">
        <ele>165</ele>
        <time>2019-09-15T10:17:34Z</time>
      </trkpt>
      <trkpt lat="48.74301" lon="2.02816">
        <ele>165</ele>
        <time>2019-09-15T10:17:42Z</time>
      </trkpt>
      <trkpt lat="48.74285" lon="2.02836">
        <ele>165</ele>
        <time>2019-09-15T10:17:59Z</time>
      </trkpt>
      <trkpt lat="48.74273" lon="2.0285">
        <ele>165</ele>
        <time>2019-09-15T10:18:10Z</time>
      </trkpt>
      <trkpt lat="48.74256" lon="2.02878">
        <ele>164</ele>
        <time>2019-09-15T10:18:29Z</time>
      </trkpt>
      <trkpt lat="48.74251" lon="2.02883">
        <ele>164</ele>
        <time>2019-09-15T10:18:33Z</time>
      </trkpt>
      <trkpt lat="48.74248" lon="2.02891">
        <ele>164</ele>
        <time>2019-09-15T10:18:37Z</time>
      </trkpt>
      <trkpt lat="48.7424" lon="2.029">
        <ele>164</ele>
        <time>2019-09-15T10:18:44Z</time>
      </trkpt>
      <trkpt lat="48.74233" lon="2.02912">
        <ele>163</ele>
        <time>2019-09-15T10:18:51Z</time>
      </trkpt>
      <trkpt lat="48.74221" lon="2.02928">
        <ele>163</ele>
        <time>2019-09-15T10:19:03Z</time>
      </trkpt>
      <trkpt lat="48.74215" lon="2.02942">
        <ele>163</ele>
        <time>2019-09-15T10:19:12Z</time>
      </trkpt>
      <trkpt lat="48.74197" lon="2.02968">
        <ele>163</ele>
        <time>2019-09-15T10:19:28Z</time>
      </trkpt>
      <trkpt lat="48.74189" lon="2.02977">
        <ele>163</ele>
        <time>2019-09-15T10:19:36Z</time>
      </trkpt>
      <trkpt lat="48.74174" lon="2.02999">
        <ele>164</ele>
        <time>2019-09-15T10:19:51Z</time>
      </trkpt>
      <trkpt lat="48.7417" lon="2.03006">
        <ele>163</ele>
        <time>2019-09-15T10:19:55Z</time>
      </trkpt>
      <trkpt lat="48.74159" lon="2.03023">
        <ele>164</ele>
        <time>2019-09-15T10:20:06Z</time>
      </trkpt>
      <trkpt lat="48.74136" lon="2.03077">
        <ele>164</ele>
        <time>2019-09-15T10:20:38Z</time>
      </trkpt>
      <trkpt lat="48.74126" lon="2.03106">
        <ele>164</ele>
        <time>2019-09-15T10:20:54Z</time>
      </trkpt>
      <trkpt lat="48.74123" lon="2.03122">
        <ele>164</ele>
        <time>2019-09-15T10:21:02Z</time>
      </trkpt>
      <trkpt lat="48.74111" lon="2.03155">
        <ele>164</ele>
        <time>2019-09-15T10:21:20Z</time>
      </trkpt>
      <trkpt lat="48.7411" lon="2.03162">
        <ele>164</ele>
        <time>2019-09-15T10:21:24Z</time>
      </trkpt>
      <trkpt lat="48.74098" lon="2.03204">
        <ele>164</ele>
        <time>2019-09-15T10:21:46Z</time>
      </trkpt>
      <trkpt lat="48.74093" lon="2.03227">
        <ele>163</ele>
        <time>2019-09-15T10:21:58Z</time>
      </trkpt>
      <trkpt lat="48.74076" lon="2.03288">
        <ele>164</ele>
        <time>2019-09-15T10:22:30Z</time>
      </trkpt>
      <trkpt lat="48.74069" lon="2.0331">
        <ele>164</ele>
        <time>2019-09-15T10:22:41Z</time>
      </trkpt>
      <trkpt lat="48.74059" lon="2.03347">
        <ele>164</ele>
        <time>2019-09-15T10:23:00Z</time>
      </trkpt>
      <trkpt lat="48.74053" lon="2.03406">
        <ele>165</ele>
        <time>2019-09-15T10:23:29Z</time>
      </trkpt>
      <trkpt lat="48.74048" lon="2.03426">
        <ele>165</ele>
        <time>2019-09-15T10:23:40Z</time>
      </trkpt>
      <trkpt lat="48.74045" lon="2.03442">
        <ele>165</ele>
        <time>2019-09-15T10:23:48Z</time>
      </trkpt>
      <trkpt lat="48.7404" lon="2.03457">
        <ele>165</ele>
        <time>2019-09-15T10:23:56Z</time>
      </trkpt>
      <trkpt lat="48.74037" lon="2.03471">
        <ele>165</ele>
        <time>2019-09-15T10:24:03Z</time>
      </trkpt>
      <trkpt lat="48.74031" lon="2.03479">
        <ele>165</ele>
        <time>2019-09-15T10:24:09Z</time>
      </trkpt>
      <trkpt lat="48.74027" lon="2.03475">
        <ele>165</ele>
        <time>2019-09-15T10:24:12Z</time>
      </trkpt>
      <trkpt lat="48.74022" lon="2.03484">
        <ele>165</ele>
        <time>2019-09-15T10:24:16Z</time>
      </trkpt>
      <trkpt lat="48.74007" lon="2.03529">
        <ele>164</ele>
        <time>2019-09-15T10:24:36Z</time>
      </trkpt>
      <trkpt lat="48.74006" lon="2.03537">
        <ele>164</ele>
        <time>2019-09-15T10:24:40Z</time>
      </trkpt>
      <trkpt lat="48.74006" lon="2.03544">
        <ele>164</ele>
        <time>2019-09-15T10:24:44Z</time>
      </trkpt>
      <trkpt lat="48.73987" lon="2.03579">
        <ele>165</ele>
        <time>2019-09-15T10:25:06Z</time>
      </trkpt>
      <trkpt lat="48.73971" lon="2.0363">
        <ele>165</ele>
        <time>2019-09-15T10:25:33Z</time>
      </trkpt>
      <trkpt lat="48.73964" lon="2.0364">
        <ele>165</ele>
        <time>2019-09-15T10:25:40Z</time>
      </trkpt>
      <trkpt lat="48.7393" lon="2.03682">
        <ele>165</ele>
        <time>2019-09-15T10:26:11Z</time>
      </trkpt>
      <trkpt lat="48.73923" lon="2.03691">
        <ele>165</ele>
        <time>2019-09-15T10:26:18Z</time>
      </trkpt>
      <trkpt lat="48.73914" lon="2.037">
        <ele>164</ele>
        <time>2019-09-15T10:26:27Z</time>
      </trkpt>
      <trkpt lat="48.73906" lon="2.03711">
        <ele>164</ele>
        <time>2019-09-15T10:26:35Z</time>
      </trkpt>
      <trkpt lat="48.739" lon="2.03709">
        <ele>164</ele>
        <time>2019-09-15T10:26:39Z</time>
      </trkpt>
      <trkpt lat="48.73887" lon="2.03698">
        <ele>164</ele>
        <time>2019-09-15T10:26:49Z</time>
      </trkpt>
      <trkpt lat="48.73884" lon="2.03693">
        <ele>164</ele>
        <time>2019-09-15T10:26:52Z</time>
      </trkpt>
      <trkpt lat="48.7387" lon="2.03683">
        <ele>164</ele>
        <time>2019-09-15T10:27:05Z</time>
      </trkpt>
      <trkpt lat="48.73853" lon="2.0368">
        <ele>163</ele>
        <time>2019-09-15T10:27:16Z</time>
      </trkpt>
      <trkpt lat="48.73836" lon="2.03683">
        <ele>163</ele>
        <time>2019-09-15T10:27:28Z</time>
      </trkpt>
      <trkpt lat="48.73831" lon="2.03681">
        <ele>163</ele>
        <time>2019-09-15T10:27:32Z</time>
      </trkpt>
      <trkpt lat="48.73821" lon="2.03673">
        <ele>163</ele>
        <time>2019-09-15T10:27:40Z</time>
      </trkpt>
      <trkpt lat="48.73796" lon="2.03642">
        <ele>164</ele>
        <time>2019-09-15T10:28:04Z</time>
      </trkpt>
      <trkpt lat="48.7377" lon="2.03589">
        <ele>164</ele>
        <time>2019-09-15T10:28:36Z</time>
      </trkpt>
      <trkpt lat="48.73744" lon="2.03545">
        <ele>163</ele>
        <time>2019-09-15T10:29:06Z</time>
      </trkpt>
      <trkpt lat="48.73713" lon="2.03502">
        <ele>163</ele>
        <time>2019-09-15T10:29:37Z</time>
      </trkpt>
      <trkpt lat="48.7368" lon="2.03455">
        <ele>163</ele>
        <time>2019-09-15T10:30:10Z</time>
      </trkpt>
      <trkpt lat="48.73647" lon="2.03413">
        <ele>163</ele>
        <time>2019-09-15T10:30:41Z</time>
      </trkpt>
      <trkpt lat="48.73612" lon="2.03377">
        <ele>163</ele>
        <time>2019-09-15T10:31:13Z</time>
      </trkpt>
      <trkpt lat="48.73608" lon="2.03373">
        <ele>163</ele>
        <time>2019-09-15T10:31:17Z</time>
      </trkpt>
      <trkpt lat="48.73572" lon="2.0334">
        <ele>163</ele>
        <time>2019-09-15T10:31:48Z</time>
      </trkpt>
      <trkpt lat="48.73532" lon="2.03311">
        <ele>163</ele>
        <time>2019-09-15T10:32:20Z</time>
      </trkpt>
      <trkpt lat="48.73493" lon="2.03285">
        <ele>163</ele>
        <time>2019-09-15T10:32:52Z</time>
      </trkpt>
      <trkpt lat="48.73455" lon="2.03262">
        <ele>163</ele>
        <time>2019-09-15T10:33:23Z</time>
      </trkpt>
      <trkpt lat="48.73415" lon="2.03239">
        <ele>163</ele>
        <time>2019-09-15T10:33:55Z</time>
      </trkpt>
      <trkpt lat="48.73374" lon="2.03213">
        <ele>163</ele>
        <time>2019-09-15T10:34:27Z</time>
      </trkpt>
      <trkpt lat="48.73332" lon="2.03189">
        <ele>163</ele>
        <time>2019-09-15T10:35:01Z</time>
      </trkpt>
      <trkpt lat="48.73289" lon="2.03162">
        <ele>164</ele>
        <time>2019-09-15T10:35:35Z</time>
      </trkpt>
      <trkpt lat="48.73261" lon="2.03147">
        <ele>164</ele>
        <time>2019-09-15T10:35:58Z</time>
      </trkpt>
      <trkpt lat="48.7325" lon="2.03144">
        <ele>164</ele>
        <time>2019-09-15T10:36:07Z</time>
      </trkpt>
      <trkpt lat="48.73246" lon="2.0314">
        <ele>164</ele>
        <time>2019-09-15T10:36:12Z</time>
      </trkpt>
      <trkpt lat="48.73246" lon="2.0315">
        <ele>164</ele>
        <time>2019-09-15T10:36:29Z</time>
      </trkpt>
      <trkpt lat="48.73242" lon="2.03147">
        <ele>162</ele>
        <time>2019-09-15T10:43:13Z</time>
      </trkpt>
      <trkpt lat="48.73245" lon="2.0316">
        <ele>161</ele>
        <time>2019-09-15T10:45:16Z</time>
      </trkpt>
      <trkpt lat="48.73247" lon="2.03171">
        <ele>161</ele>
        <time>2019-09-15T10:45:24Z</time>
      </trkpt>
      <trkpt lat="48.73247" lon="2.0318">
        <ele>161</ele>
        <time>2019-09-15T10:45:30Z</time>
      </trkpt>
      <trkpt lat="48.73242" lon="2.03197">
        <ele>161</ele>
        <time>2019-09-15T10:45:40Z</time>
      </trkpt>
      <trkpt lat="48.73241" lon="2.03229">
        <ele>161</ele>
        <time>2019-09-15T10:45:56Z</time>
      </trkpt>
      <trkpt lat="48.73241" lon="2.03243">
        <ele>161</ele>
        <time>2019-09-15T10:46:04Z</time>
      </trkpt>
      <trkpt lat="48.73237" lon="2.03299">
        <ele>160</ele>
        <time>2019-09-15T10:46:31Z</time>
      </trkpt>
      <trkpt lat="48.73236" lon="2.0337">
        <ele>159</ele>
        <time>2019-09-15T10:47:05Z</time>
      </trkpt>
      <trkpt lat="48.73225" lon="2.03424">
        <ele>157</ele>
        <time>2019-09-15T10:47:31Z</time>
      </trkpt>
      <trkpt lat="48.73203" lon="2.03488">
        <ele>158</ele>
        <time>2019-09-15T10:48:05Z</time>
      </trkpt>
      <trkpt lat="48.73191" lon="2.03514">
        <ele>157</ele>
        <time>2019-09-15T10:48:19Z</time>
      </trkpt>
      <trkpt lat="48.73172" lon="2.03542">
        <ele>157</ele>
        <time>2019-09-15T10:48:39Z</time>
      </trkpt>
      <trkpt lat="48.73168" lon="2.03545">
        <ele>157</ele>
        <time>2019-09-15T10:48:43Z</time>
      </trkpt>
      <trkpt lat="48.73165" lon="2.03552">
        <ele>157</ele>
        <time>2019-09-15T10:48:48Z</time>
      </trkpt>
      <trkpt lat="48.73163" lon="2.03561">
        <ele>158</ele>
        <time>2019-09-15T10:48:55Z</time>
      </trkpt>
      <trkpt lat="48.73159" lon="2.03566">
        <ele>158</ele>
        <time>2019-09-15T10:49:00Z</time>
      </trkpt>
      <trkpt lat="48.73155" lon="2.03579">
        <ele>158</ele>
        <time>2019-09-15T10:49:10Z</time>
      </trkpt>
      <trkpt lat="48.73148" lon="2.03593">
        <ele>158</ele>
        <time>2019-09-15T10:49:18Z</time>
      </trkpt>
      <trkpt lat="48.73144" lon="2.03599">
        <ele>158</ele>
        <time>2019-09-15T10:49:22Z</time>
      </trkpt>
      <trkpt lat="48.73141" lon="2.03607">
        <ele>158</ele>
        <time>2019-09-15T10:49:26Z</time>
      </trkpt>
      <trkpt lat="48.7314" lon="2.03613">
        <ele>158</ele>
        <time>2019-09-15T10:49:30Z</time>
      </trkpt>
      <trkpt lat="48.73135" lon="2.03618">
        <ele>158</ele>
        <time>2019-09-15T10:49:51Z</time>
      </trkpt>
      <trkpt lat="48.73132" lon="2.03628">
        <ele>158</ele>
        <time>2019-09-15T10:50:03Z</time>
      </trkpt>
      <trkpt lat="48.73132" lon="2.03637">
        <ele>159</ele>
        <time>2019-09-15T10:50:44Z</time>
      </trkpt>
      <trkpt lat="48.73128" lon="2.03647">
        <ele>159</ele>
        <time>2019-09-15T10:51:53Z</time>
      </trkpt>
      <trkpt lat="48.73125" lon="2.03652">
        <ele>159</ele>
        <time>2019-09-15T10:51:58Z</time>
      </trkpt>
      <trkpt lat="48.73116" lon="2.03694">
        <ele>159</ele>
        <time>2019-09-15T10:52:22Z</time>
      </trkpt>
      <trkpt lat="48.73117" lon="2.03702">
        <ele>159</ele>
        <time>2019-09-15T10:52:26Z</time>
      </trkpt>
      <trkpt lat="48.7312" lon="2.03725">
        <ele>159</ele>
        <time>2019-09-15T10:52:36Z</time>
      </trkpt>
      <trkpt lat="48.73116" lon="2.03748">
        <ele>158</ele>
        <time>2019-09-15T10:52:47Z</time>
      </trkpt>
      <trkpt lat="48.73117" lon="2.03773">
        <ele>158</ele>
        <time>2019-09-15T10:52:59Z</time>
      </trkpt>
      <trkpt lat="48.7312" lon="2.03788">
        <ele>159</ele>
        <time>2019-09-15T10:53:07Z</time>
      </trkpt>
      <trkpt lat="48.7312" lon="2.03805">
        <ele>158</ele>
        <time>2019-09-15T10:53:16Z</time>
      </trkpt>
      <trkpt lat="48.7312" lon="2.03813">
        <ele>158</ele>
        <time>2019-09-15T10:53:20Z</time>
      </trkpt>
      <trkpt lat="48.73125" lon="2.03834">
        <ele>157</ele>
        <time>2019-09-15T10:53:33Z</time>
      </trkpt>
      <trkpt lat="48.73128" lon="2.0384">
        <ele>157</ele>
        <time>2019-09-15T10:53:38Z</time>
      </trkpt>
      <trkpt lat="48.73132" lon="2.03862">
        <ele>158</ele>
        <time>2019-09-15T10:53:55Z</time>
      </trkpt>
      <trkpt lat="48.73134" lon="2.03892">
        <ele>159</ele>
        <time>2019-09-15T10:54:13Z</time>
      </trkpt>
      <trkpt lat="48.73135" lon="2.03922">
        <ele>159</ele>
        <time>2019-09-15T10:54:29Z</time>
      </trkpt>
      <trkpt lat="48.73131" lon="2.03952">
        <ele>159</ele>
        <time>2019-09-15T10:54:43Z</time>
      </trkpt>
      <trkpt lat="48.73129" lon="2.03991">
        <ele>159</ele>
        <time>2019-09-15T10:55:03Z</time>
      </trkpt>
      <trkpt lat="48.73131" lon="2.03998">
        <ele>159</ele>
        <time>2019-09-15T10:55:07Z</time>
      </trkpt>
      <trkpt lat="48.73134" lon="2.04005">
        <ele>159</ele>
        <time>2019-09-15T10:55:11Z</time>
      </trkpt>
      <trkpt lat="48.73135" lon="2.04013">
        <ele>159</ele>
        <time>2019-09-15T10:55:15Z</time>
      </trkpt>
      <trkpt lat="48.73136" lon="2.04035">
        <ele>159</ele>
        <time>2019-09-15T10:55:27Z</time>
      </trkpt>
      <trkpt lat="48.73142" lon="2.04065">
        <ele>159</ele>
        <time>2019-09-15T10:55:45Z</time>
      </trkpt>
      <trkpt lat="48.73148" lon="2.04079">
        <ele>159</ele>
        <time>2019-09-15T10:55:51Z</time>
      </trkpt>
      <trkpt lat="48.73157" lon="2.04122">
        <ele>159</ele>
        <time>2019-09-15T10:56:11Z</time>
      </trkpt>
      <trkpt lat="48.73174" lon="2.0418">
        <ele>158</ele>
        <time>2019-09-15T10:56:42Z</time>
      </trkpt>
      <trkpt lat="48.73179" lon="2.04194">
        <ele>158</ele>
        <time>2019-09-15T10:56:49Z</time>
      </trkpt>
      <trkpt lat="48.73182" lon="2.042">
        <ele>158</ele>
        <time>2019-09-15T10:56:54Z</time>
      </trkpt>
      <trkpt lat="48.73198" lon="2.04259">
        <ele>158</ele>
        <time>2019-09-15T10:57:25Z</time>
      </trkpt>
      <trkpt lat="48.73219" lon="2.04315">
        <ele>157</ele>
        <time>2019-09-15T10:57:55Z</time>
      </trkpt>
      <trkpt lat="48.73226" lon="2.04334">
        <ele>157</ele>
        <time>2019-09-15T10:58:06Z</time>
      </trkpt>
      <trkpt lat="48.73232" lon="2.04359">
        <ele>157</ele>
        <time>2019-09-15T10:58:20Z</time>
      </trkpt>
      <trkpt lat="48.73252" lon="2.04397">
        <ele>157</ele>
        <time>2019-09-15T10:58:41Z</time>
      </trkpt>
      <trkpt lat="48.73252" lon="2.04412">
        <ele>157</ele>
        <time>2019-09-15T10:58:51Z</time>
      </trkpt>
      <trkpt lat="48.73255" lon="2.04419">
        <ele>157</ele>
        <time>2019-09-15T10:58:55Z</time>
      </trkpt>
      <trkpt lat="48.73259" lon="2.04443">
        <ele>157</ele>
        <time>2019-09-15T10:59:08Z</time>
      </trkpt>
      <trkpt lat="48.73262" lon="2.04455">
        <ele>158</ele>
        <time>2019-09-15T10:59:16Z</time>
      </trkpt>
      <trkpt lat="48.73268" lon="2.04486">
        <ele>158</ele>
        <time>2019-09-15T10:59:35Z</time>
      </trkpt>
      <trkpt lat="48.73277" lon="2.04505">
        <ele>159</ele>
        <time>2019-09-15T10:59:48Z</time>
      </trkpt>
      <trkpt lat="48.73283" lon="2.04509">
        <ele>159</ele>
        <time>2019-09-15T10:59:54Z</time>
      </trkpt>
      <trkpt lat="48.73288" lon="2.04507">
        <ele>159</ele>
        <time>2019-09-15T10:59:58Z</time>
      </trkpt>
      <trkpt lat="48.73292" lon="2.04504">
        <ele>159</ele>
        <time>2019-09-15T11:00:01Z</time>
      </trkpt>
      <trkpt lat="48.73295" lon="2.04498">
        <ele>159</ele>
        <time>2019-09-15T11:00:04Z</time>
      </trkpt>
      <trkpt lat="48.73304" lon="2.04493">
        <ele>160</ele>
        <time>2019-09-15T11:00:12Z</time>
      </trkpt>
      <trkpt lat="48.73309" lon="2.04492">
        <ele>160</ele>
        <time>2019-09-15T11:00:16Z</time>
      </trkpt>
      <trkpt lat="48.73315" lon="2.04494">
        <ele>160</ele>
        <time>2019-09-15T11:00:20Z</time>
      </trkpt>
      <trkpt lat="48.73319" lon="2.04499">
        <ele>160</ele>
        <time>2019-09-15T11:00:25Z</time>
      </trkpt>
      <trkpt lat="48.73321" lon="2.04514">
        <ele>160</ele>
        <time>2019-09-15T11:00:33Z</time>
      </trkpt>
      <trkpt lat="48.73328" lon="2.04526">
        <ele>160</ele>
        <time>2019-09-15T11:00:40Z</time>
      </trkpt>
      <trkpt lat="48.73344" lon="2.04567">
        <ele>161</ele>
        <time>2019-09-15T11:01:04Z</time>
      </trkpt>
      <trkpt lat="48.73346" lon="2.04574">
        <ele>161</ele>
        <time>2019-09-15T11:01:09Z</time>
      </trkpt>
      <trkpt lat="48.7336" lon="2.04608">
        <ele>162</ele>
        <time>2019-09-15T11:01:30Z</time>
      </trkpt>
      <trkpt lat="48.73365" lon="2.04638">
        <ele>163</ele>
        <time>2019-09-15T11:01:44Z</time>
      </trkpt>
      <trkpt lat="48.73365" lon="2.04645">
        <ele>163</ele>
        <time>2019-09-15T11:01:48Z</time>
      </trkpt>
      <trkpt lat="48.73368" lon="2.04692">
        <ele>163</ele>
        <time>2019-09-15T11:02:13Z</time>
      </trkpt>
      <trkpt lat="48.73375" lon="2.04722">
        <ele>164</ele>
        <time>2019-09-15T11:02:30Z</time>
      </trkpt>
      <trkpt lat="48.73378" lon="2.04775">
        <ele>164</ele>
        <time>2019-09-15T11:02:58Z</time>
      </trkpt>
      <trkpt lat="48.73377" lon="2.04784">
        <ele>165</ele>
        <time>2019-09-15T11:03:03Z</time>
      </trkpt>
      <trkpt lat="48.73378" lon="2.04792">
        <ele>165</ele>
        <time>2019-09-15T11:03:07Z</time>
      </trkpt>
      <trkpt lat="48.73377" lon="2.04817">
        <ele>165</ele>
        <time>2019-09-15T11:03:19Z</time>
      </trkpt>
      <trkpt lat="48.73379" lon="2.04839">
        <ele>165</ele>
        <time>2019-09-15T11:03:32Z</time>
      </trkpt>
      <trkpt lat="48.73381" lon="2.04846">
        <ele>165</ele>
        <time>2019-09-15T11:03:35Z</time>
      </trkpt>
      <trkpt lat="48.73382" lon="2.04855">
        <ele>165</ele>
        <time>2019-09-15T11:03:39Z</time>
      </trkpt>
      <trkpt lat="48.73379" lon="2.04869">
        <ele>165</ele>
        <time>2019-09-15T11:03:45Z</time>
      </trkpt>
      <trkpt lat="48.73379" lon="2.04921">
        <ele>166</ele>
        <time>2019-09-15T11:04:12Z</time>
      </trkpt>
      <trkpt lat="48.73382" lon="2.04928">
        <ele>166</ele>
        <time>2019-09-15T11:04:16Z</time>
      </trkpt>
      <trkpt lat="48.73401" lon="2.04955">
        <ele>166</ele>
        <time>2019-09-15T11:04:37Z</time>
      </trkpt>
      <trkpt lat="48.73404" lon="2.04961">
        <ele>166</ele>
        <time>2019-09-15T11:04:43Z</time>
      </trkpt>
      <trkpt lat="48.73434" lon="2.05003">
        <ele>167</ele>
        <time>2019-09-15T11:05:15Z</time>
      </trkpt>
      <trkpt lat="48.73452" lon="2.05018">
        <ele>167</ele>
        <time>2019-09-15T11:05:30Z</time>
      </trkpt>
      <trkpt lat="48.73467" lon="2.05025">
        <ele>167</ele>
        <time>2019-09-15T11:05:41Z</time>
      </trkpt>
      <trkpt lat="48.7347" lon="2.05029">
        <ele>167</ele>
        <time>2019-09-15T11:05:44Z</time>
      </trkpt>
      <trkpt lat="48.73477" lon="2.0504">
        <ele>167</ele>
        <time>2019-09-15T11:05:52Z</time>
      </trkpt>
      <trkpt lat="48.73477" lon="2.05048">
        <ele>167</ele>
        <time>2019-09-15T11:05:56Z</time>
      </trkpt>
      <trkpt lat="48.73511" lon="2.05084">
        <ele>167</ele>
        <time>2019-09-15T11:06:27Z</time>
      </trkpt>
      <trkpt lat="48.73542" lon="2.05128">
        <ele>168</ele>
        <time>2019-09-15T11:07:00Z</time>
      </trkpt>
      <trkpt lat="48.73574" lon="2.05168">
        <ele>167</ele>
        <time>2019-09-15T11:07:32Z</time>
      </trkpt>
      <trkpt lat="48.73604" lon="2.0521">
        <ele>167</ele>
        <time>2019-09-15T11:08:05Z</time>
      </trkpt>
      <trkpt lat="48.73631" lon="2.05244">
        <ele>167</ele>
        <time>2019-09-15T11:08:33Z</time>
      </trkpt>
      <trkpt lat="48.73635" lon="2.05249">
        <ele>167</ele>
        <time>2019-09-15T11:08:37Z</time>
      </trkpt>
      <trkpt lat="48.73669" lon="2.05285">
        <ele>166</ele>
        <time>2019-09-15T11:09:09Z</time>
      </trkpt>
      <trkpt lat="48.737" lon="2.05322">
        <ele>165</ele>
        <time>2019-09-15T11:09:40Z</time>
      </trkpt>
      <trkpt lat="48.73733" lon="2.05359">
        <ele>164</ele>
        <time>2019-09-15T11:10:12Z</time>
      </trkpt>
      <trkpt lat="48.73768" lon="2.05395">
        <ele>164</ele>
        <time>2019-09-15T11:10:45Z</time>
      </trkpt>
      <trkpt lat="48.73802" lon="2.05431">
        <ele>164</ele>
        <time>2019-09-15T11:11:17Z</time>
      </trkpt>
      <trkpt lat="48.7382" lon="2.05449">
        <ele>164</ele>
        <time>2019-09-15T11:11:33Z</time>
      </trkpt>
      <trkpt lat="48.73828" lon="2.05463">
        <ele>165</ele>
        <time>2019-09-15T11:11:43Z</time>
      </trkpt>
      <trkpt lat="48.73833" lon="2.05469">
        <ele>165</ele>
        <time>2019-09-15T11:11:47Z</time>
      </trkpt>
      <trkpt lat="48.73837" lon="2.05474">
        <ele>165</ele>
        <time>2019-09-15T11:11:51Z</time>
      </trkpt>
      <trkpt lat="48.73848" lon="2.05491">
        <ele>165</ele>
        <time>2019-09-15T11:12:03Z</time>
      </trkpt>
      <trkpt lat="48.73856" lon="2.05501">
        <ele>165</ele>
        <time>2019-09-15T11:12:11Z</time>
      </trkpt>
      <trkpt lat="48.7386" lon="2.05507">
        <ele>164</ele>
        <time>2019-09-15T11:12:16Z</time>
      </trkpt>
      <trkpt lat="48.73892" lon="2.05548">
        <ele>163</ele>
        <time>2019-09-15T11:12:47Z</time>
      </trkpt>
      <trkpt lat="48.73907" lon="2.05562">
        <ele>163</ele>
        <time>2019-09-15T11:12:59Z</time>
      </trkpt>
      <trkpt lat="48.73911" lon="2.05564">
        <ele>163</ele>
        <time>2019-09-15T11:13:03Z</time>
      </trkpt>
      <trkpt lat="48.73917" lon="2.05577">
        <ele>163</ele>
        <time>2019-09-15T11:13:12Z</time>
      </trkpt>
      <trkpt lat="48.7393" lon="2.05593">
        <ele>163</ele>
        <time>2019-09-15T11:13:26Z</time>
      </trkpt>
      <trkpt lat="48.73956" lon="2.05614">
        <ele>163</ele>
        <time>2019-09-15T11:13:47Z</time>
      </trkpt>
      <trkpt lat="48.73957" lon="2.05625">
        <ele>163</ele>
        <time>2019-09-15T11:13:55Z</time>
      </trkpt>
      <trkpt lat="48.73955" lon="2.05631">
        <ele>163</ele>
        <time>2019-09-15T11:14:00Z</time>
      </trkpt>
      <trkpt lat="48.73947" lon="2.05625">
        <ele>164</ele>
        <time>2019-09-15T11:15:17Z</time>
      </trkpt>
      <trkpt lat="48.7395" lon="2.05625">
        <ele>165</ele>
        <time>2019-09-15T11:16:01Z</time>
      </trkpt>
      <trkpt lat="48.73955" lon="2.05629">
        <ele>165</ele>
        <time>2019-09-15T11:16:06Z</time>
      </trkpt>
      <trkpt lat="48.73958" lon="2.05619">
        <ele>165</ele>
        <time>2019-09-15T11:16:42Z</time>
      </trkpt>
      <trkpt lat="48.73964" lon="2.05619">
        <ele>165</ele>
        <time>2019-09-15T11:16:48Z</time>
      </trkpt>
      <trkpt lat="48.73973" lon="2.05627">
        <ele>165</ele>
        <time>2019-09-15T11:16:57Z</time>
      </trkpt>
      <trkpt lat="48.73982" lon="2.05632">
        <ele>165</ele>
        <time>2019-09-15T11:17:07Z</time>
      </trkpt>
      <trkpt lat="48.73987" lon="2.05637">
        <ele>165</ele>
        <time>2019-09-15T11:17:12Z</time>
      </trkpt>
      <trkpt lat="48.73993" lon="2.05637">
        <ele>165</ele>
        <time>2019-09-15T11:17:20Z</time>
      </trkpt>
      <trkpt lat="48.73998" lon="2.05639">
        <ele>165</ele>
        <time>2019-09-15T11:17:25Z</time>
      </trkpt>
      <trkpt lat="48.74007" lon="2.05648">
        <ele>165</ele>
        <time>2019-09-15T11:17:35Z</time>
      </trkpt>
      <trkpt lat="48.74041" lon="2.05665">
        <ele>165</ele>
        <time>2019-09-15T11:18:11Z</time>
      </trkpt>
      <trkpt lat="48.74072" lon="2.05689">
        <ele>165</ele>
        <time>2019-09-15T11:18:42Z</time>
      </trkpt>
      <trkpt lat="48.74103" lon="2.05715">
        <ele>165</ele>
        <time>2019-09-15T11:19:14Z</time>
      </trkpt>
      <trkpt lat="48.74127" lon="2.05738">
        <ele>165</ele>
        <time>2019-09-15T11:19:38Z</time>
      </trkpt>
      <trkpt lat="48.74137" lon="2.05751">
        <ele>165</ele>
        <time>2019-09-15T11:19:51Z</time>
      </trkpt>
      <trkpt lat="48.74141" lon="2.05758">
        <ele>164</ele>
        <time>2019-09-15T11:19:56Z</time>
      </trkpt>
      <trkpt lat="48.74142" lon="2.05765">
        <ele>164</ele>
        <time>2019-09-15T11:20:00Z</time>
      </trkpt>
      <trkpt lat="48.74146" lon="2.0577">
        <ele>164</ele>
        <time>2019-09-15T11:20:05Z</time>
      </trkpt>
      <trkpt lat="48.7415" lon="2.05774">
        <ele>164</ele>
        <time>2019-09-15T11:20:09Z</time>
      </trkpt>
      <trkpt lat="48.74155" lon="2.05773">
        <ele>164</ele>
        <time>2019-09-15T11:20:13Z</time>
      </trkpt>
      <trkpt lat="48.7416" lon="2.05776">
        <ele>164</ele>
        <time>2019-09-15T11:20:17Z</time>
      </trkpt>
      <trkpt lat="48.74192" lon="2.05815">
        <ele>163</ele>
        <time>2019-09-15T11:20:50Z</time>
      </trkpt>
      <trkpt lat="48.74211" lon="2.0584">
        <ele>163</ele>
        <time>2019-09-15T11:21:07Z</time>
      </trkpt>
      <trkpt lat="48.74214" lon="2.05847">
        <ele>163</ele>
        <time>2019-09-15T11:21:11Z</time>
      </trkpt>
      <trkpt lat="48.74226" lon="2.05862">
        <ele>162</ele>
        <time>2019-09-15T11:21:23Z</time>
      </trkpt>
      <trkpt lat="48.74228" lon="2.05868">
        <ele>162</ele>
        <time>2019-09-15T11:21:27Z</time>
      </trkpt>
      <trkpt lat="48.74233" lon="2.05874">
        <ele>162</ele>
        <time>2019-09-15T11:21:32Z</time>
      </trkpt>
      <trkpt lat="48.7424" lon="2.05889">
        <ele>162</ele>
        <time>2019-09-15T11:21:42Z</time>
      </trkpt>
      <trkpt lat="48.74252" lon="2.05905">
        <ele>161</ele>
        <time>2019-09-15T11:21:54Z</time>
      </trkpt>
      <trkpt lat="48.74263" lon="2.05917">
        <ele>161</ele>
        <time>2019-09-15T11:22:09Z</time>
      </trkpt>
      <trkpt lat="48.74296" lon="2.05954">
        <ele>160</ele>
        <time>2019-09-15T11:22:41Z</time>
      </trkpt>
      <trkpt lat="48.74301" lon="2.05956">
        <ele>160</ele>
        <time>2019-09-15T11:22:45Z</time>
      </trkpt>
      <trkpt lat="48.74325" lon="2.05999">
        <ele>160</ele>
        <time>2019-09-15T11:23:15Z</time>
      </trkpt>
      <trkpt lat="48.74327" lon="2.06006">
        <ele>160</ele>
        <time>2019-09-15T11:23:19Z</time>
      </trkpt>
      <trkpt lat="48.74331" lon="2.06013">
        <ele>159</ele>
        <time>2019-09-15T11:23:23Z</time>
      </trkpt>
      <trkpt lat="48.74362" lon="2.06051">
        <ele>159</ele>
        <time>2019-09-15T11:23:56Z</time>
      </trkpt>
      <trkpt lat="48.74368" lon="2.06062">
        <ele>159</ele>
        <time>2019-09-15T11:24:03Z</time>
      </trkpt>
      <trkpt lat="48.74381" lon="2.06077">
        <ele>158</ele>
        <time>2019-09-15T11:24:15Z</time>
      </trkpt>
      <trkpt lat="48.74387" lon="2.06091">
        <ele>158</ele>
        <time>2019-09-15T11:24:23Z</time>
      </trkpt>
      <trkpt lat="48.74388" lon="2.06099">
        <ele>158</ele>
        <time>2019-09-15T11:24:27Z</time>
      </trkpt>
      <trkpt lat="48.74388" lon="2.06106">
        <ele>158</ele>
        <time>2019-09-15T11:24:31Z</time>
      </trkpt>
      <trkpt lat="48.74385" lon="2.06137">
        <ele>158</ele>
        <time>2019-09-15T11:24:47Z</time>
      </trkpt>
      <trkpt lat="48.74385" lon="2.06154">
        <ele>157</ele>
        <time>2019-09-15T11:24:55Z</time>
      </trkpt>
      <trkpt lat="48.7438" lon="2.06177">
        <ele>156</ele>
        <time>2019-09-15T11:25:07Z</time>
      </trkpt>
      <trkpt lat="48.74372" lon="2.06197">
        <ele>156</ele>
        <time>2019-09-15T11:25:19Z</time>
      </trkpt>
      <trkpt lat="48.74363" lon="2.06206">
        <ele>156</ele>
        <time>2019-09-15T11:25:28Z</time>
      </trkpt>
      <trkpt lat="48.74357" lon="2.06219">
        <ele>156</ele>
        <time>2019-09-15T11:25:36Z</time>
      </trkpt>
      <trkpt lat="48.74352" lon="2.06234">
        <ele>156</ele>
        <time>2019-09-15T11:25:44Z</time>
      </trkpt>
      <trkpt lat="48.74348" lon="2.06248">
        <ele>156</ele>
        <time>2019-09-15T11:25:53Z</time>
      </trkpt>
      <trkpt lat="48.74338" lon="2.06285">
        <ele>155</ele>
        <time>2019-09-15T11:26:13Z</time>
      </trkpt>
      <trkpt lat="48.74333" lon="2.06299">
        <ele>155</ele>
        <time>2019-09-15T11:26:20Z</time>
      </trkpt>
      <trkpt lat="48.74328" lon="2.06322">
        <ele>155</ele>
        <time>2019-09-15T11:26:32Z</time>
      </trkpt>
      <trkpt lat="48.74313" lon="2.06356">
        <ele>153</ele>
        <time>2019-09-15T11:26:52Z</time>
      </trkpt>
      <trkpt lat="48.74291" lon="2.06386">
        <ele>151</ele>
        <time>2019-09-15T11:27:12Z</time>
      </trkpt>
      <trkpt lat="48.74288" lon="2.06393">
        <ele>151</ele>
        <time>2019-09-15T11:27:16Z</time>
      </trkpt>
      <trkpt lat="48.74293" lon="2.06402">
        <ele>150</ele>
        <time>2019-09-15T11:27:33Z</time>
      </trkpt>
      <trkpt lat="48.74299" lon="2.06404">
        <ele>149</ele>
        <time>2019-09-15T11:27:39Z</time>
      </trkpt>
      <trkpt lat="48.74303" lon="2.06408">
        <ele>148</ele>
        <time>2019-09-15T11:27:44Z</time>
      </trkpt>
      <trkpt lat="48.74306" lon="2.06413">
        <ele>148</ele>
        <time>2019-09-15T11:27:48Z</time>
      </trkpt>
      <trkpt lat="48.74309" lon="2.0642">
        <ele>147</ele>
        <time>2019-09-15T11:27:53Z</time>
      </trkpt>
      <trkpt lat="48.7431" lon="2.06428">
        <ele>147</ele>
        <time>2019-09-15T11:27:57Z</time>
      </trkpt>
      <trkpt lat="48.74309" lon="2.06451">
        <ele>145</ele>
        <time>2019-09-15T11:28:09Z</time>
      </trkpt>
      <trkpt lat="48.74307" lon="2.06459">
        <ele>144</ele>
        <time>2019-09-15T11:28:14Z</time>
      </trkpt>
      <trkpt lat="48.74305" lon="2.06466">
        <ele>144</ele>
        <time>2019-09-15T11:28:17Z</time>
      </trkpt>
      <trkpt lat="48.74298" lon="2.06478">
        <ele>143</ele>
        <time>2019-09-15T11:28:25Z</time>
      </trkpt>
      <trkpt lat="48.74295" lon="2.06482">
        <ele>143</ele>
        <time>2019-09-15T11:28:28Z</time>
      </trkpt>
      <trkpt lat="48.74285" lon="2.06486">
        <ele>143</ele>
        <time>2019-09-15T11:28:35Z</time>
      </trkpt>
      <trkpt lat="48.74274" lon="2.06485">
        <ele>142</ele>
        <time>2019-09-15T11:28:43Z</time>
      </trkpt>
      <trkpt lat="48.74265" lon="2.0648">
        <ele>142</ele>
        <time>2019-09-15T11:28:51Z</time>
      </trkpt>
      <trkpt lat="48.74239" lon="2.06456">
        <ele>141</ele>
        <time>2019-09-15T11:29:14Z</time>
      </trkpt>
      <trkpt lat="48.7423" lon="2.06453">
        <ele>141</ele>
        <time>2019-09-15T11:29:22Z</time>
      </trkpt>
      <trkpt lat="48.74224" lon="2.06457">
        <ele>141</ele>
        <time>2019-09-15T11:29:26Z</time>
      </trkpt>
      <trkpt lat="48.74221" lon="2.06463">
        <ele>141</ele>
        <time>2019-09-15T11:29:30Z</time>
      </trkpt>
      <trkpt lat="48.74227" lon="2.06479">
        <ele>139</ele>
        <time>2019-09-15T11:29:44Z</time>
      </trkpt>
      <trkpt lat="48.74226" lon="2.06487">
        <ele>139</ele>
        <time>2019-09-15T11:29:49Z</time>
      </trkpt>
      <trkpt lat="48.74226" lon="2.06496">
        <ele>138</ele>
        <time>2019-09-15T11:29:54Z</time>
      </trkpt>
      <trkpt lat="48.74228" lon="2.06502">
        <ele>138</ele>
        <time>2019-09-15T11:29:58Z</time>
      </trkpt>
      <trkpt lat="48.7423" lon="2.0651">
        <ele>138</ele>
        <time>2019-09-15T11:30:02Z</time>
      </trkpt>
      <trkpt lat="48.74234" lon="2.06515">
        <ele>137</ele>
        <time>2019-09-15T11:30:05Z</time>
      </trkpt>
      <trkpt lat="48.74235" lon="2.06522">
        <ele>137</ele>
        <time>2019-09-15T11:30:08Z</time>
      </trkpt>
      <trkpt lat="48.74234" lon="2.06529">
        <ele>137</ele>
        <time>2019-09-15T11:30:13Z</time>
      </trkpt>
      <trkpt lat="48.74237" lon="2.06537">
        <ele>136</ele>
        <time>2019-09-15T11:30:19Z</time>
      </trkpt>
      <trkpt lat="48.74236" lon="2.06552">
        <ele>135</ele>
        <time>2019-09-15T11:30:27Z</time>
      </trkpt>
      <trkpt lat="48.74241" lon="2.06582">
        <ele>134</ele>
        <time>2019-09-15T11:30:43Z</time>
      </trkpt>
      <trkpt lat="48.74242" lon="2.06605">
        <ele>133</ele>
        <time>2019-09-15T11:30:53Z</time>
      </trkpt>
      <trkpt lat="48.74251" lon="2.06636">
        <ele>131</ele>
        <time>2019-09-15T11:31:10Z</time>
      </trkpt>
      <trkpt lat="48.74254" lon="2.06658">
        <ele>129</ele>
        <time>2019-09-15T11:31:21Z</time>
      </trkpt>
      <trkpt lat="48.74264" lon="2.06688">
        <ele>128</ele>
        <time>2019-09-15T11:31:38Z</time>
      </trkpt>
      <trkpt lat="48.74286" lon="2.06728">
        <ele>126</ele>
        <time>2019-09-15T11:32:05Z</time>
      </trkpt>
      <trkpt lat="48.7429" lon="2.06732">
        <ele>126</ele>
        <time>2019-09-15T11:32:09Z</time>
      </trkpt>
      <trkpt lat="48.74303" lon="2.06759">
        <ele>125</ele>
        <time>2019-09-15T11:32:28Z</time>
      </trkpt>
      <trkpt lat="48.74325" lon="2.06775">
        <ele>124</ele>
        <time>2019-09-15T11:32:47Z</time>
      </trkpt>
      <trkpt lat="48.7433" lon="2.06776">
        <ele>124</ele>
        <time>2019-09-15T11:32:52Z</time>
      </trkpt>
      <trkpt lat="48.74352" lon="2.06789">
        <ele>124</ele>
        <time>2019-09-15T11:33:08Z</time>
      </trkpt>
      <trkpt lat="48.74367" lon="2.06788">
        <ele>123</ele>
        <time>2019-09-15T11:33:20Z</time>
      </trkpt>
      <trkpt lat="48.74372" lon="2.0679">
        <ele>123</ele>
        <time>2019-09-15T11:33:25Z</time>
      </trkpt>
      <trkpt lat="48.7439" lon="2.06784">
        <ele>123</ele>
        <time>2019-09-15T11:33:41Z</time>
      </trkpt>
      <trkpt lat="48.74401" lon="2.06784">
        <ele>123</ele>
        <time>2019-09-15T11:33:48Z</time>
      </trkpt>
      <trkpt lat="48.74406" lon="2.06783">
        <ele>123</ele>
        <time>2019-09-15T11:33:51Z</time>
      </trkpt>
      <trkpt lat="48.7441" lon="2.06783">
        <ele>123</ele>
        <time>2019-09-15T11:33:54Z</time>
      </trkpt>
      <trkpt lat="48.74415" lon="2.06781">
        <ele>123</ele>
        <time>2019-09-15T11:33:58Z</time>
      </trkpt>
      <trkpt lat="48.74424" lon="2.06781">
        <ele>122</ele>
        <time>2019-09-15T11:34:07Z</time>
      </trkpt>
      <trkpt lat="48.74425" lon="2.06791">
        <ele>122</ele>
        <time>2019-09-15T11:34:26Z</time>
      </trkpt>
      <trkpt lat="48.74424" lon="2.068">
        <ele>122</ele>
        <time>2019-09-15T11:34:30Z</time>
      </trkpt>
      <trkpt lat="48.74429" lon="2.06813">
        <ele>121</ele>
        <time>2019-09-15T11:34:36Z</time>
      </trkpt>
      <trkpt lat="48.74433" lon="2.06818">
        <ele>121</ele>
        <time>2019-09-15T11:34:40Z</time>
      </trkpt>
      <trkpt lat="48.74439" lon="2.06828">
        <ele>121</ele>
        <time>2019-09-15T11:34:47Z</time>
      </trkpt>
      <trkpt lat="48.74441" lon="2.06836">
        <ele>121</ele>
        <time>2019-09-15T11:34:51Z</time>
      </trkpt>
      <trkpt lat="48.74442" lon="2.06844">
        <ele>121</ele>
        <time>2019-09-15T11:34:55Z</time>
      </trkpt>
      <trkpt lat="48.74447" lon="2.06857">
        <ele>121</ele>
        <time>2019-09-15T11:35:01Z</time>
      </trkpt>
      <trkpt lat="48.74451" lon="2.06881">
        <ele>121</ele>
        <time>2019-09-15T11:35:13Z</time>
      </trkpt>
      <trkpt lat="48.74448" lon="2.06896">
        <ele>121</ele>
        <time>2019-09-15T11:35:21Z</time>
      </trkpt>
      <trkpt lat="48.74442" lon="2.06908">
        <ele>121</ele>
        <time>2019-09-15T11:35:28Z</time>
      </trkpt>
      <trkpt lat="48.74438" lon="2.06922">
        <ele>120</ele>
        <time>2019-09-15T11:35:35Z</time>
      </trkpt>
      <trkpt lat="48.74436" lon="2.06936">
        <ele>120</ele>
        <time>2019-09-15T11:35:43Z</time>
      </trkpt>
      <trkpt lat="48.74436" lon="2.06944">
        <ele>120</ele>
        <time>2019-09-15T11:35:47Z</time>
      </trkpt>
      <trkpt lat="48.74434" lon="2.06952">
        <ele>120</ele>
        <time>2019-09-15T11:35:51Z</time>
      </trkpt>
      <trkpt lat="48.74429" lon="2.06967">
        <ele>120</ele>
        <time>2019-09-15T11:36:00Z</time>
      </trkpt>
      <trkpt lat="48.74414" lon="2.06987">
        <ele>121</ele>
        <time>2019-09-15T11:36:16Z</time>
      </trkpt>
      <trkpt lat="48.74406" lon="2.06995">
        <ele>122</ele>
        <time>2019-09-15T11:36:24Z</time>
      </trkpt>
      <trkpt lat="48.744" lon="2.07011">
        <ele>123</ele>
        <time>2019-09-15T11:36:35Z</time>
      </trkpt>
      <trkpt lat="48.74396" lon="2.07042">
        <ele>125</ele>
        <time>2019-09-15T11:36:54Z</time>
      </trkpt>
      <trkpt lat="48.74398" lon="2.07058">
        <ele>125</ele>
        <time>2019-09-15T11:37:03Z</time>
      </trkpt>
      <trkpt lat="48.74403" lon="2.07079">
        <ele>126</ele>
        <time>2019-09-15T11:37:15Z</time>
      </trkpt>
      <trkpt lat="48.74409" lon="2.07089">
        <ele>126</ele>
        <time>2019-09-15T11:37:22Z</time>
      </trkpt>
      <trkpt lat="48.74412" lon="2.07106">
        <ele>126</ele>
        <time>2019-09-15T11:37:30Z</time>
      </trkpt>
      <trkpt lat="48.7441" lon="2.07121">
        <ele>126</ele>
        <time>2019-09-15T11:37:38Z</time>
      </trkpt>
      <trkpt lat="48.74409" lon="2.07127">
        <ele>125</ele>
        <time>2019-09-15T11:37:42Z</time>
      </trkpt>
      <trkpt lat="48.74411" lon="2.07174">
        <ele>122</ele>
        <time>2019-09-15T11:38:05Z</time>
      </trkpt>
      <trkpt lat="48.74409" lon="2.07183">
        <ele>121</ele>
        <time>2019-09-15T11:38:09Z</time>
      </trkpt>
      <trkpt lat="48.74404" lon="2.07197">
        <ele>121</ele>
        <time>2019-09-15T11:38:16Z</time>
      </trkpt>
      <trkpt lat="48.7439" lon="2.07216">
        <ele>120</ele>
        <time>2019-09-15T11:38:29Z</time>
      </trkpt>
      <trkpt lat="48.7438" lon="2.07224">
        <ele>120</ele>
        <time>2019-09-15T11:38:37Z</time>
      </trkpt>
      <trkpt lat="48.7437" lon="2.07236">
        <ele>120</ele>
        <time>2019-09-15T11:38:45Z</time>
      </trkpt>
      <trkpt lat="48.74365" lon="2.07239">
        <ele>120</ele>
        <time>2019-09-15T11:38:49Z</time>
      </trkpt>
      <trkpt lat="48.7436" lon="2.07239">
        <ele>121</ele>
        <time>2019-09-15T11:38:54Z</time>
      </trkpt>
      <trkpt lat="48.74355" lon="2.07241">
        <ele>121</ele>
        <time>2019-09-15T11:38:59Z</time>
      </trkpt>
      <trkpt lat="48.74346" lon="2.07252">
        <ele>121</ele>
        <time>2019-09-15T11:39:07Z</time>
      </trkpt>
      <trkpt lat="48.7433" lon="2.07289">
        <ele>120</ele>
        <time>2019-09-15T11:39:32Z</time>
      </trkpt>
      <trkpt lat="48.74327" lon="2.07297">
        <ele>120</ele>
        <time>2019-09-15T11:39:36Z</time>
      </trkpt>
      <trkpt lat="48.74298" lon="2.07351">
        <ele>120</ele>
        <time>2019-09-15T11:40:09Z</time>
      </trkpt>
      <trkpt lat="48.74271" lon="2.07397">
        <ele>120</ele>
        <time>2019-09-15T11:40:42Z</time>
      </trkpt>
      <trkpt lat="48.74262" lon="2.07415">
        <ele>121</ele>
        <time>2019-09-15T11:40:54Z</time>
      </trkpt>
      <trkpt lat="48.74258" lon="2.0743">
        <ele>121</ele>
        <time>2019-09-15T11:41:03Z</time>
      </trkpt>
      <trkpt lat="48.74247" lon="2.07451">
        <ele>124</ele>
        <time>2019-09-15T11:41:22Z</time>
      </trkpt>
      <trkpt lat="48.74245" lon="2.07458">
        <ele>125</ele>
        <time>2019-09-15T11:41:25Z</time>
      </trkpt>
      <trkpt lat="48.74232" lon="2.07479">
        <ele>126</ele>
        <time>2019-09-15T11:41:40Z</time>
      </trkpt>
      <trkpt lat="48.7423" lon="2.07486">
        <ele>126</ele>
        <time>2019-09-15T11:41:44Z</time>
      </trkpt>
      <trkpt lat="48.74214" lon="2.07517">
        <ele>125</ele>
        <time>2019-09-15T11:42:04Z</time>
      </trkpt>
      <trkpt lat="48.74199" lon="2.0756">
        <ele>124</ele>
        <time>2019-09-15T11:42:28Z</time>
      </trkpt>
      <trkpt lat="48.74196" lon="2.07568">
        <ele>123</ele>
        <time>2019-09-15T11:42:36Z</time>
      </trkpt>
      <trkpt lat="48.74194" lon="2.07576">
        <ele>123</ele>
        <time>2019-09-15T11:42:41Z</time>
      </trkpt>
      <trkpt lat="48.74169" lon="2.07624">
        <ele>119</ele>
        <time>2019-09-15T11:43:09Z</time>
      </trkpt>
      <trkpt lat="48.74165" lon="2.07661">
        <ele>119</ele>
        <time>2019-09-15T11:43:29Z</time>
      </trkpt>
      <trkpt lat="48.74161" lon="2.07666">
        <ele>119</ele>
        <time>2019-09-15T11:43:32Z</time>
      </trkpt>
      <trkpt lat="48.74156" lon="2.07698">
        <ele>120</ele>
        <time>2019-09-15T11:43:51Z</time>
      </trkpt>
      <trkpt lat="48.7414" lon="2.07729">
        <ele>119</ele>
        <time>2019-09-15T11:44:10Z</time>
      </trkpt>
      <trkpt lat="48.74138" lon="2.07735">
        <ele>119</ele>
        <time>2019-09-15T11:44:14Z</time>
      </trkpt>
      <trkpt lat="48.74135" lon="2.07766">
        <ele>119</ele>
        <time>2019-09-15T11:44:32Z</time>
      </trkpt>
      <trkpt lat="48.74131" lon="2.07781">
        <ele>119</ele>
        <time>2019-09-15T11:44:40Z</time>
      </trkpt>
      <trkpt lat="48.74122" lon="2.07799">
        <ele>119</ele>
        <time>2019-09-15T11:44:50Z</time>
      </trkpt>
      <trkpt lat="48.7411" lon="2.07814">
        <ele>119</ele>
        <time>2019-09-15T11:45:00Z</time>
      </trkpt>
      <trkpt lat="48.7409" lon="2.0782">
        <ele>119</ele>
        <time>2019-09-15T11:45:16Z</time>
      </trkpt>
      <trkpt lat="48.74075" lon="2.07822">
        <ele>119</ele>
        <time>2019-09-15T11:45:30Z</time>
      </trkpt>
      <trkpt lat="48.7406" lon="2.07833">
        <ele>119</ele>
        <time>2019-09-15T11:45:42Z</time>
      </trkpt>
      <trkpt lat="48.74056" lon="2.07838">
        <ele>119</ele>
        <time>2019-09-15T11:45:45Z</time>
      </trkpt>
      <trkpt lat="48.74051" lon="2.07851">
        <ele>119</ele>
        <time>2019-09-15T11:45:53Z</time>
      </trkpt>
      <trkpt lat="48.74049" lon="2.07858">
        <ele>119</ele>
        <time>2019-09-15T11:45:58Z</time>
      </trkpt>
      <trkpt lat="48.74046" lon="2.07879">
        <ele>119</ele>
        <time>2019-09-15T11:46:11Z</time>
      </trkpt>
      <trkpt lat="48.7404" lon="2.07906">
        <ele>118</ele>
        <time>2019-09-15T11:46:25Z</time>
      </trkpt>
      <trkpt lat="48.74041" lon="2.07898">
        <ele>119</ele>
        <time>2019-09-15T11:46:46Z</time>
      </trkpt>
      <trkpt lat="48.74054" lon="2.07888">
        <ele>118</ele>
        <time>2019-09-15T11:47:08Z</time>
      </trkpt>
      <trkpt lat="48.74059" lon="2.07886">
        <ele>118</ele>
        <time>2019-09-15T11:47:12Z</time>
      </trkpt>
      <trkpt lat="48.74065" lon="2.07887">
        <ele>117</ele>
        <time>2019-09-15T11:47:18Z</time>
      </trkpt>
      <trkpt lat="48.74072" lon="2.07892">
        <ele>117</ele>
        <time>2019-09-15T11:47:26Z</time>
      </trkpt>
      <trkpt lat="48.74077" lon="2.07892">
        <ele>117</ele>
        <time>2019-09-15T11:47:30Z</time>
      </trkpt>
      <trkpt lat="48.74091" lon="2.07902">
        <ele>117</ele>
        <time>2019-09-15T11:47:42Z</time>
      </trkpt>
      <trkpt lat="48.74099" lon="2.07912">
        <ele>117</ele>
        <time>2019-09-15T11:47:51Z</time>
      </trkpt>
      <trkpt lat="48.74118" lon="2.07926">
        <ele>118</ele>
        <time>2019-09-15T11:48:08Z</time>
      </trkpt>
      <trkpt lat="48.74124" lon="2.07934">
        <ele>118</ele>
        <time>2019-09-15T11:48:15Z</time>
      </trkpt>
      <trkpt lat="48.74133" lon="2.07942">
        <ele>118</ele>
        <time>2019-09-15T11:48:22Z</time>
      </trkpt>
      <trkpt lat="48.74157" lon="2.07949">
        <ele>118</ele>
        <time>2019-09-15T11:48:44Z</time>
      </trkpt>
      <trkpt lat="48.74172" lon="2.07945">
        <ele>119</ele>
        <time>2019-09-15T11:48:59Z</time>
      </trkpt>
      <trkpt lat="48.74181" lon="2.07954">
        <ele>120</ele>
        <time>2019-09-15T11:49:35Z</time>
      </trkpt>
      <trkpt lat="48.74188" lon="2.07947">
        <ele>120</ele>
        <time>2019-09-15T11:50:46Z</time>
      </trkpt>
      <trkpt lat="48.74192" lon="2.07941">
        <ele>121</ele>
        <time>2019-09-15T11:50:53Z</time>
      </trkpt>
      <trkpt lat="48.742" lon="2.07936">
        <ele>121</ele>
        <time>2019-09-15T11:51:03Z</time>
      </trkpt>
      <trkpt lat="48.74206" lon="2.07926">
        <ele>121</ele>
        <time>2019-09-15T11:51:13Z</time>
      </trkpt>
      <trkpt lat="48.74207" lon="2.07919">
        <ele>121</ele>
        <time>2019-09-15T11:51:17Z</time>
      </trkpt>
      <trkpt lat="48.74209" lon="2.07914">
        <ele>121</ele>
        <time>2019-09-15T11:51:22Z</time>
      </trkpt>
      <trkpt lat="48.74213" lon="2.0789">
        <ele>121</ele>
        <time>2019-09-15T11:51:36Z</time>
      </trkpt>
      <trkpt lat="48.74209" lon="2.07867">
        <ele>121</ele>
        <time>2019-09-15T11:51:52Z</time>
      </trkpt>
      <trkpt lat="48.74208" lon="2.07849">
        <ele>122</ele>
        <time>2019-09-15T11:52:05Z</time>
      </trkpt>
      <trkpt lat="48.74209" lon="2.07835">
        <ele>122</ele>
        <time>2019-09-15T11:52:14Z</time>
      </trkpt>
      <trkpt lat="48.74211" lon="2.07828">
        <ele>122</ele>
        <time>2019-09-15T11:52:23Z</time>
      </trkpt>
      <trkpt lat="48.74214" lon="2.07812">
        <ele>122</ele>
        <time>2019-09-15T11:52:31Z</time>
      </trkpt>
      <trkpt lat="48.74216" lon="2.07806">
        <ele>123</ele>
        <time>2019-09-15T11:52:35Z</time>
      </trkpt>
      <trkpt lat="48.74217" lon="2.07799">
        <ele>123</ele>
        <time>2019-09-15T11:52:39Z</time>
      </trkpt>
      <trkpt lat="48.74222" lon="2.07786">
        <ele>124</ele>
        <time>2019-09-15T11:52:50Z</time>
      </trkpt>
      <trkpt lat="48.74226" lon="2.07782">
        <ele>124</ele>
        <time>2019-09-15T11:52:55Z</time>
      </trkpt>
      <trkpt lat="48.74236" lon="2.07763">
        <ele>126</ele>
        <time>2019-09-15T11:53:11Z</time>
      </trkpt>
      <trkpt lat="48.74245" lon="2.07755">
        <ele>127</ele>
        <time>2019-09-15T11:53:19Z</time>
      </trkpt>
      <trkpt lat="48.74263" lon="2.07728">
        <ele>129</ele>
        <time>2019-09-15T11:53:42Z</time>
      </trkpt>
      <trkpt lat="48.74274" lon="2.07727">
        <ele>131</ele>
        <time>2019-09-15T11:53:55Z</time>
      </trkpt>
      <trkpt lat="48.74281" lon="2.07726">
        <ele>131</ele>
        <time>2019-09-15T11:54:09Z</time>
      </trkpt>
      <trkpt lat="48.74285" lon="2.07729">
        <ele>132</ele>
        <time>2019-09-15T11:54:21Z</time>
      </trkpt>
      <trkpt lat="48.74288" lon="2.07722">
        <ele>133</ele>
        <time>2019-09-15T11:54:56Z</time>
      </trkpt>
      <trkpt lat="48.74293" lon="2.07719">
        <ele>135</ele>
        <time>2019-09-15T11:55:36Z</time>
      </trkpt>
      <trkpt lat="48.743" lon="2.07721">
        <ele>137</ele>
        <time>2019-09-15T11:56:00Z</time>
      </trkpt>
      <trkpt lat="48.743" lon="2.0773">
        <ele>139</ele>
        <time>2019-09-15T11:57:06Z</time>
      </trkpt>
      <trkpt lat="48.74308" lon="2.07729">
        <ele>139</ele>
        <time>2019-09-15T12:01:13Z</time>
      </trkpt>
      <trkpt lat="48.74301" lon="2.07735">
        <ele>140</ele>
        <time>2019-09-15T12:26:30Z</time>
      </trkpt>
      <trkpt lat="48.74304" lon="2.07727">
        <ele>134</ele>
        <time>2019-09-15T12:44:03Z</time>
      </trkpt>
      <trkpt lat="48.74304" lon="2.07727">
        <ele>134</ele>
        <time>2019-09-15T12:44:31Z</time>
      </trkpt>
      <trkpt lat="48.74304" lon="2.07727">
        <ele>134</ele>
        <time>2019-09-15T12:44:31Z</time>
      </trkpt>
      <trkpt lat="48.74299" lon="2.07724">
        <ele>131</ele>
        <time>2019-09-15T12:46:39Z</time>
      </trkpt>
      <trkpt lat="48.74297" lon="2.07733">
        <ele>128</ele>
        <time>2019-09-15T12:46:52Z</time>
      </trkpt>
      <trkpt lat="48.74294" lon="2.07744">
        <ele>125</ele>
        <time>2019-09-15T12:47:04Z</time>
      </trkpt>
      <trkpt lat="48.74297" lon="2.07768">
        <ele>127</ele>
        <time>2019-09-15T12:47:27Z</time>
      </trkpt>
      <trkpt lat="48.74294" lon="2.07795">
        <ele>130</ele>
        <time>2019-09-15T12:47:48Z</time>
      </trkpt>
      <trkpt lat="48.74292" lon="2.07802">
        <ele>131</ele>
        <time>2019-09-15T12:47:53Z</time>
      </trkpt>
      <trkpt lat="48.74292" lon="2.07809">
        <ele>131</ele>
        <time>2019-09-15T12:47:57Z</time>
      </trkpt>
      <trkpt lat="48.7429" lon="2.07817">
        <ele>131</ele>
        <time>2019-09-15T12:48:02Z</time>
      </trkpt>
      <trkpt lat="48.74289" lon="2.07832">
        <ele>132</ele>
        <time>2019-09-15T12:48:11Z</time>
      </trkpt>
      <trkpt lat="48.74293" lon="2.07846">
        <ele>134</ele>
        <time>2019-09-15T12:48:26Z</time>
      </trkpt>
      <trkpt lat="48.74308" lon="2.07861">
        <ele>136</ele>
        <time>2019-09-15T12:48:51Z</time>
      </trkpt>
      <trkpt lat="48.74315" lon="2.07874">
        <ele>137</ele>
        <time>2019-09-15T12:49:00Z</time>
      </trkpt>
      <trkpt lat="48.74323" lon="2.07884">
        <ele>138</ele>
        <time>2019-09-15T12:49:08Z</time>
      </trkpt>
      <trkpt lat="48.74336" lon="2.07894">
        <ele>139</ele>
        <time>2019-09-15T12:49:21Z</time>
      </trkpt>
      <trkpt lat="48.74344" lon="2.07896">
        <ele>140</ele>
        <time>2019-09-15T12:49:35Z</time>
      </trkpt>
      <trkpt lat="48.74348" lon="2.07894">
        <ele>141</ele>
        <time>2019-09-15T12:49:41Z</time>
      </trkpt>
      <trkpt lat="48.74358" lon="2.07901">
        <ele>142</ele>
        <time>2019-09-15T12:49:48Z</time>
      </trkpt>
      <trkpt lat="48.74362" lon="2.079">
        <ele>142</ele>
        <time>2019-09-15T12:49:53Z</time>
      </trkpt>
      <trkpt lat="48.74381" lon="2.07907">
        <ele>144</ele>
        <time>2019-09-15T12:50:15Z</time>
      </trkpt>
      <trkpt lat="48.74394" lon="2.0792">
        <ele>145</ele>
        <time>2019-09-15T12:50:26Z</time>
      </trkpt>
      <trkpt lat="48.7441" lon="2.07926">
        <ele>146</ele>
        <time>2019-09-15T12:50:42Z</time>
      </trkpt>
      <trkpt lat="48.74422" lon="2.07924">
        <ele>148</ele>
        <time>2019-09-15T12:50:54Z</time>
      </trkpt>
      <trkpt lat="48.74428" lon="2.07926">
        <ele>148</ele>
        <time>2019-09-15T12:51:00Z</time>
      </trkpt>
      <trkpt lat="48.74438" lon="2.07933">
        <ele>149</ele>
        <time>2019-09-15T12:51:06Z</time>
      </trkpt>
      <trkpt lat="48.74473" lon="2.0794">
        <ele>151</ele>
        <time>2019-09-15T12:51:36Z</time>
      </trkpt>
      <trkpt lat="48.74483" lon="2.07945">
        <ele>152</ele>
        <time>2019-09-15T12:51:44Z</time>
      </trkpt>
      <trkpt lat="48.74491" lon="2.07954">
        <ele>152</ele>
        <time>2019-09-15T12:51:50Z</time>
      </trkpt>
      <trkpt lat="48.74524" lon="2.07984">
        <ele>152</ele>
        <time>2019-09-15T12:52:18Z</time>
      </trkpt>
      <trkpt lat="48.74532" lon="2.07993">
        <ele>153</ele>
        <time>2019-09-15T12:52:29Z</time>
      </trkpt>
      <trkpt lat="48.74535" lon="2.08002">
        <ele>153</ele>
        <time>2019-09-15T12:52:33Z</time>
      </trkpt>
      <trkpt lat="48.74536" lon="2.08009">
        <ele>153</ele>
        <time>2019-09-15T12:52:36Z</time>
      </trkpt>
      <trkpt lat="48.74536" lon="2.08039">
        <ele>151</ele>
        <time>2019-09-15T12:52:50Z</time>
      </trkpt>
      <trkpt lat="48.74533" lon="2.08054">
        <ele>150</ele>
        <time>2019-09-15T12:52:58Z</time>
      </trkpt>
      <trkpt lat="48.74535" lon="2.08069">
        <ele>150</ele>
        <time>2019-09-15T12:53:07Z</time>
      </trkpt>
      <trkpt lat="48.74541" lon="2.08072">
        <ele>151</ele>
        <time>2019-09-15T12:53:13Z</time>
      </trkpt>
      <trkpt lat="48.74545" lon="2.08072">
        <ele>151</ele>
        <time>2019-09-15T12:53:18Z</time>
      </trkpt>
      <trkpt lat="48.74549" lon="2.08064">
        <ele>152</ele>
        <time>2019-09-15T12:53:25Z</time>
      </trkpt>
      <trkpt lat="48.74554" lon="2.08059">
        <ele>153</ele>
        <time>2019-09-15T12:53:32Z</time>
      </trkpt>
      <trkpt lat="48.74559" lon="2.08054">
        <ele>153</ele>
        <time>2019-09-15T12:53:37Z</time>
      </trkpt>
      <trkpt lat="48.74573" lon="2.08046">
        <ele>153</ele>
        <time>2019-09-15T12:53:51Z</time>
      </trkpt>
      <trkpt lat="48.74579" lon="2.08046">
        <ele>154</ele>
        <time>2019-09-15T12:54:00Z</time>
      </trkpt>
      <trkpt lat="48.74613" lon="2.08079">
        <ele>154</ele>
        <time>2019-09-15T12:54:30Z</time>
      </trkpt>
      <trkpt lat="48.74614" lon="2.08087">
        <ele>154</ele>
        <time>2019-09-15T12:54:34Z</time>
      </trkpt>
      <trkpt lat="48.74614" lon="2.08095">
        <ele>154</ele>
        <time>2019-09-15T12:54:38Z</time>
      </trkpt>
      <trkpt lat="48.74596" lon="2.08139">
        <ele>158</ele>
        <time>2019-09-15T12:55:08Z</time>
      </trkpt>
      <trkpt lat="48.74593" lon="2.08145">
        <ele>158</ele>
        <time>2019-09-15T12:55:12Z</time>
      </trkpt>
      <trkpt lat="48.74577" lon="2.08202">
        <ele>159</ele>
        <time>2019-09-15T12:55:45Z</time>
      </trkpt>
      <trkpt lat="48.7457" lon="2.08231">
        <ele>159</ele>
        <time>2019-09-15T12:56:02Z</time>
      </trkpt>
      <trkpt lat="48.7457" lon="2.08247">
        <ele>159</ele>
        <time>2019-09-15T12:56:12Z</time>
      </trkpt>
      <trkpt lat="48.74563" lon="2.08268">
        <ele>159</ele>
        <time>2019-09-15T12:56:27Z</time>
      </trkpt>
      <trkpt lat="48.74553" lon="2.08289">
        <ele>159</ele>
        <time>2019-09-15T12:56:40Z</time>
      </trkpt>
      <trkpt lat="48.74537" lon="2.08346">
        <ele>160</ele>
        <time>2019-09-15T12:57:12Z</time>
      </trkpt>
      <trkpt lat="48.74521" lon="2.08404">
        <ele>159</ele>
        <time>2019-09-15T12:57:45Z</time>
      </trkpt>
      <trkpt lat="48.74517" lon="2.08417">
        <ele>160</ele>
        <time>2019-09-15T12:57:52Z</time>
      </trkpt>
      <trkpt lat="48.74514" lon="2.0843">
        <ele>160</ele>
        <time>2019-09-15T12:58:05Z</time>
      </trkpt>
      <trkpt lat="48.74497" lon="2.08489">
        <ele>160</ele>
        <time>2019-09-15T12:58:38Z</time>
      </trkpt>
      <trkpt lat="48.74479" lon="2.08533">
        <ele>161</ele>
        <time>2019-09-15T12:59:10Z</time>
      </trkpt>
      <trkpt lat="48.7447" lon="2.08572">
        <ele>162</ele>
        <time>2019-09-15T12:59:30Z</time>
      </trkpt>
      <trkpt lat="48.74451" lon="2.08639">
        <ele>162</ele>
        <time>2019-09-15T13:00:03Z</time>
      </trkpt>
      <trkpt lat="48.74449" lon="2.08647">
        <ele>162</ele>
        <time>2019-09-15T13:00:07Z</time>
      </trkpt>
      <trkpt lat="48.74448" lon="2.08656">
        <ele>162</ele>
        <time>2019-09-15T13:00:20Z</time>
      </trkpt>
      <trkpt lat="48.74444" lon="2.0867">
        <ele>162</ele>
        <time>2019-09-15T13:00:27Z</time>
      </trkpt>
      <trkpt lat="48.74442" lon="2.08677">
        <ele>163</ele>
        <time>2019-09-15T13:00:31Z</time>
      </trkpt>
      <trkpt lat="48.74472" lon="2.08711">
        <ele>162</ele>
        <time>2019-09-15T13:01:02Z</time>
      </trkpt>
      <trkpt lat="48.74507" lon="2.08752">
        <ele>161</ele>
        <time>2019-09-15T13:01:34Z</time>
      </trkpt>
      <trkpt lat="48.7452" lon="2.08771">
        <ele>161</ele>
        <time>2019-09-15T13:01:52Z</time>
      </trkpt>
      <trkpt lat="48.74528" lon="2.08779">
        <ele>161</ele>
        <time>2019-09-15T13:02:00Z</time>
      </trkpt>
      <trkpt lat="48.74535" lon="2.0879">
        <ele>161</ele>
        <time>2019-09-15T13:02:09Z</time>
      </trkpt>
      <trkpt lat="48.74545" lon="2.08786">
        <ele>160</ele>
        <time>2019-09-15T13:02:19Z</time>
      </trkpt>
      <trkpt lat="48.74549" lon="2.0878">
        <ele>160</ele>
        <time>2019-09-15T13:02:30Z</time>
      </trkpt>
      <trkpt lat="48.74558" lon="2.08758">
        <ele>160</ele>
        <time>2019-09-15T13:02:42Z</time>
      </trkpt>
      <trkpt lat="48.74564" lon="2.08745">
        <ele>160</ele>
        <time>2019-09-15T13:02:50Z</time>
      </trkpt>
      <trkpt lat="48.74588" lon="2.08685">
        <ele>159</ele>
        <time>2019-09-15T13:03:23Z</time>
      </trkpt>
      <trkpt lat="48.74597" lon="2.08674">
        <ele>159</ele>
        <time>2019-09-15T13:03:32Z</time>
      </trkpt>
      <trkpt lat="48.74599" lon="2.08668">
        <ele>159</ele>
        <time>2019-09-15T13:03:36Z</time>
      </trkpt>
      <trkpt lat="48.74604" lon="2.0866">
        <ele>159</ele>
        <time>2019-09-15T13:03:44Z</time>
      </trkpt>
      <trkpt lat="48.74615" lon="2.08636">
        <ele>158</ele>
        <time>2019-09-15T13:04:01Z</time>
      </trkpt>
      <trkpt lat="48.74618" lon="2.0863">
        <ele>158</ele>
        <time>2019-09-15T13:04:05Z</time>
      </trkpt>
      <trkpt lat="48.74624" lon="2.08618">
        <ele>158</ele>
        <time>2019-09-15T13:04:13Z</time>
      </trkpt>
      <trkpt lat="48.74645" lon="2.08566">
        <ele>157</ele>
        <time>2019-09-15T13:04:45Z</time>
      </trkpt>
      <trkpt lat="48.74651" lon="2.08553">
        <ele>157</ele>
        <time>2019-09-15T13:04:53Z</time>
      </trkpt>
      <trkpt lat="48.74655" lon="2.08548">
        <ele>157</ele>
        <time>2019-09-15T13:04:58Z</time>
      </trkpt>
      <trkpt lat="48.7466" lon="2.08551">
        <ele>157</ele>
        <time>2019-09-15T13:05:03Z</time>
      </trkpt>
      <trkpt lat="48.74697" lon="2.08581">
        <ele>157</ele>
        <time>2019-09-15T13:05:37Z</time>
      </trkpt>
      <trkpt lat="48.74724" lon="2.08613">
        <ele>158</ele>
        <time>2019-09-15T13:06:08Z</time>
      </trkpt>
      <trkpt lat="48.74741" lon="2.08636">
        <ele>158</ele>
        <time>2019-09-15T13:06:27Z</time>
      </trkpt>
      <trkpt lat="48.74747" lon="2.0864">
        <ele>158</ele>
        <time>2019-09-15T13:06:33Z</time>
      </trkpt>
      <trkpt lat="48.74752" lon="2.08639">
        <ele>158</ele>
        <time>2019-09-15T13:06:37Z</time>
      </trkpt>
      <trkpt lat="48.74756" lon="2.08636">
        <ele>158</ele>
        <time>2019-09-15T13:06:40Z</time>
      </trkpt>
      <trkpt lat="48.7476" lon="2.0863">
        <ele>158</ele>
        <time>2019-09-15T13:06:44Z</time>
      </trkpt>
      <trkpt lat="48.7478" lon="2.08608">
        <ele>158</ele>
        <time>2019-09-15T13:07:03Z</time>
      </trkpt>
      <trkpt lat="48.74784" lon="2.08604">
        <ele>157</ele>
        <time>2019-09-15T13:07:07Z</time>
      </trkpt>
      <trkpt lat="48.74797" lon="2.08587">
        <ele>157</ele>
        <time>2019-09-15T13:07:19Z</time>
      </trkpt>
      <trkpt lat="48.74802" lon="2.08576">
        <ele>157</ele>
        <time>2019-09-15T13:07:27Z</time>
      </trkpt>
      <trkpt lat="48.74836" lon="2.08535">
        <ele>157</ele>
        <time>2019-09-15T13:07:58Z</time>
      </trkpt>
      <trkpt lat="48.74867" lon="2.08495">
        <ele>156</ele>
        <time>2019-09-15T13:08:30Z</time>
      </trkpt>
      <trkpt lat="48.74897" lon="2.08451">
        <ele>157</ele>
        <time>2019-09-15T13:09:03Z</time>
      </trkpt>
      <trkpt lat="48.74923" lon="2.08401">
        <ele>158</ele>
        <time>2019-09-15T13:09:35Z</time>
      </trkpt>
      <trkpt lat="48.7495" lon="2.08356">
        <ele>158</ele>
        <time>2019-09-15T13:10:08Z</time>
      </trkpt>
      <trkpt lat="48.74977" lon="2.08312">
        <ele>158</ele>
        <time>2019-09-15T13:10:39Z</time>
      </trkpt>
      <trkpt lat="48.74991" lon="2.08289">
        <ele>158</ele>
        <time>2019-09-15T13:10:56Z</time>
      </trkpt>
      <trkpt lat="48.74996" lon="2.0829">
        <ele>158</ele>
        <time>2019-09-15T13:11:01Z</time>
      </trkpt>
      <trkpt lat="48.75019" lon="2.08331">
        <ele>158</ele>
        <time>2019-09-15T13:11:31Z</time>
      </trkpt>
      <trkpt lat="48.75048" lon="2.08377">
        <ele>160</ele>
        <time>2019-09-15T13:12:06Z</time>
      </trkpt>
      <trkpt lat="48.7506" lon="2.0839">
        <ele>159</ele>
        <time>2019-09-15T13:12:25Z</time>
      </trkpt>
      <trkpt lat="48.75074" lon="2.08413">
        <ele>160</ele>
        <time>2019-09-15T13:12:40Z</time>
      </trkpt>
      <trkpt lat="48.7508" lon="2.08423">
        <ele>160</ele>
        <time>2019-09-15T13:12:52Z</time>
      </trkpt>
      <trkpt lat="48.75108" lon="2.0847">
        <ele>161</ele>
        <time>2019-09-15T13:13:25Z</time>
      </trkpt>
      <trkpt lat="48.75132" lon="2.0851">
        <ele>161</ele>
        <time>2019-09-15T13:13:51Z</time>
      </trkpt>
      <trkpt lat="48.7514" lon="2.08521">
        <ele>161</ele>
        <time>2019-09-15T13:13:59Z</time>
      </trkpt>
      <trkpt lat="48.75147" lon="2.08535">
        <ele>161</ele>
        <time>2019-09-15T13:14:07Z</time>
      </trkpt>
      <trkpt lat="48.75164" lon="2.0859">
        <ele>162</ele>
        <time>2019-09-15T13:14:36Z</time>
      </trkpt>
      <trkpt lat="48.75166" lon="2.08596">
        <ele>162</ele>
        <time>2019-09-15T13:14:39Z</time>
      </trkpt>
      <trkpt lat="48.7518" lon="2.08652">
        <ele>161</ele>
        <time>2019-09-15T13:15:11Z</time>
      </trkpt>
      <trkpt lat="48.75196" lon="2.08708">
        <ele>161</ele>
        <time>2019-09-15T13:15:43Z</time>
      </trkpt>
      <trkpt lat="48.75206" lon="2.08744">
        <ele>161</ele>
        <time>2019-09-15T13:16:03Z</time>
      </trkpt>
      <trkpt lat="48.75218" lon="2.08778">
        <ele>161</ele>
        <time>2019-09-15T13:16:21Z</time>
      </trkpt>
      <trkpt lat="48.75231" lon="2.08827">
        <ele>160</ele>
        <time>2019-09-15T13:16:47Z</time>
      </trkpt>
      <trkpt lat="48.7524" lon="2.08854">
        <ele>160</ele>
        <time>2019-09-15T13:17:02Z</time>
      </trkpt>
      <trkpt lat="48.75245" lon="2.08879">
        <ele>160</ele>
        <time>2019-09-15T13:17:15Z</time>
      </trkpt>
      <trkpt lat="48.75231" lon="2.08946">
        <ele>160</ele>
        <time>2019-09-15T13:17:49Z</time>
      </trkpt>
      <trkpt lat="48.75223" lon="2.0899">
        <ele>160</ele>
        <time>2019-09-15T13:18:14Z</time>
      </trkpt>
      <trkpt lat="48.75225" lon="2.09005">
        <ele>160</ele>
        <time>2019-09-15T13:18:23Z</time>
      </trkpt>
      <trkpt lat="48.75248" lon="2.09027">
        <ele>161</ele>
        <time>2019-09-15T13:18:54Z</time>
      </trkpt>
      <trkpt lat="48.75262" lon="2.09039">
        <ele>161</ele>
        <time>2019-09-15T13:19:05Z</time>
      </trkpt>
      <trkpt lat="48.75277" lon="2.09054">
        <ele>161</ele>
        <time>2019-09-15T13:19:19Z</time>
      </trkpt>
      <trkpt lat="48.75317" lon="2.09095">
        <ele>161</ele>
        <time>2019-09-15T13:19:52Z</time>
      </trkpt>
      <trkpt lat="48.75324" lon="2.09104">
        <ele>161</ele>
        <time>2019-09-15T13:19:59Z</time>
      </trkpt>
      <trkpt lat="48.75363" lon="2.09142">
        <ele>160</ele>
        <time>2019-09-15T13:20:31Z</time>
      </trkpt>
      <trkpt lat="48.75393" lon="2.09168">
        <ele>160</ele>
        <time>2019-09-15T13:20:56Z</time>
      </trkpt>
      <trkpt lat="48.75417" lon="2.09177">
        <ele>159</ele>
        <time>2019-09-15T13:21:14Z</time>
      </trkpt>
      <trkpt lat="48.75425" lon="2.09169">
        <ele>159</ele>
        <time>2019-09-15T13:21:31Z</time>
      </trkpt>
      <trkpt lat="48.75434" lon="2.09158">
        <ele>159</ele>
        <time>2019-09-15T13:21:39Z</time>
      </trkpt>
      <trkpt lat="48.75437" lon="2.09152">
        <ele>159</ele>
        <time>2019-09-15T13:21:43Z</time>
      </trkpt>
      <trkpt lat="48.75439" lon="2.09136">
        <ele>158</ele>
        <time>2019-09-15T13:21:50Z</time>
      </trkpt>
      <trkpt lat="48.75441" lon="2.09128">
        <ele>158</ele>
        <time>2019-09-15T13:21:53Z</time>
      </trkpt>
      <trkpt lat="48.75444" lon="2.09122">
        <ele>158</ele>
        <time>2019-09-15T13:21:56Z</time>
      </trkpt>
      <trkpt lat="48.75453" lon="2.09105">
        <ele>158</ele>
        <time>2019-09-15T13:22:06Z</time>
      </trkpt>
      <trkpt lat="48.7547" lon="2.09094">
        <ele>158</ele>
        <time>2019-09-15T13:22:20Z</time>
      </trkpt>
      <trkpt lat="48.75478" lon="2.09093">
        <ele>158</ele>
        <time>2019-09-15T13:22:26Z</time>
      </trkpt>
      <trkpt lat="48.75483" lon="2.09093">
        <ele>158</ele>
        <time>2019-09-15T13:22:30Z</time>
      </trkpt>
      <trkpt lat="48.75508" lon="2.09095">
        <ele>157</ele>
        <time>2019-09-15T13:22:47Z</time>
      </trkpt>
      <trkpt lat="48.75518" lon="2.09092">
        <ele>157</ele>
        <time>2019-09-15T13:22:55Z</time>
      </trkpt>
      <trkpt lat="48.75522" lon="2.09087">
        <ele>157</ele>
        <time>2019-09-15T13:22:59Z</time>
      </trkpt>
      <trkpt lat="48.75547" lon="2.09069">
        <ele>158</ele>
        <time>2019-09-15T13:23:18Z</time>
      </trkpt>
      <trkpt lat="48.75551" lon="2.09065">
        <ele>158</ele>
        <time>2019-09-15T13:23:22Z</time>
      </trkpt>
      <trkpt lat="48.75564" lon="2.09053">
        <ele>158</ele>
        <time>2019-09-15T13:23:33Z</time>
      </trkpt>
      <trkpt lat="48.75568" lon="2.09046">
        <ele>158</ele>
        <time>2019-09-15T13:23:37Z</time>
      </trkpt>
      <trkpt lat="48.75582" lon="2.09032">
        <ele>157</ele>
        <time>2019-09-15T13:23:50Z</time>
      </trkpt>
      <trkpt lat="48.75585" lon="2.09025">
        <ele>157</ele>
        <time>2019-09-15T13:23:54Z</time>
      </trkpt>
      <trkpt lat="48.75589" lon="2.0902">
        <ele>157</ele>
        <time>2019-09-15T13:23:58Z</time>
      </trkpt>
      <trkpt lat="48.75593" lon="2.09016">
        <ele>157</ele>
        <time>2019-09-15T13:24:09Z</time>
      </trkpt>
      <trkpt lat="48.756" lon="2.09019">
        <ele>158</ele>
        <time>2019-09-15T13:25:17Z</time>
      </trkpt>
      <trkpt lat="48.75607" lon="2.09011">
        <ele>158</ele>
        <time>2019-09-15T13:25:28Z</time>
      </trkpt>
      <trkpt lat="48.75609" lon="2.09014">
        <ele>157</ele>
        <time>2019-09-15T13:36:25Z</time>
      </trkpt>
      <trkpt lat="48.75614" lon="2.09013">
        <ele>155</ele>
        <time>2019-09-15T13:44:52Z</time>
      </trkpt>
      <trkpt lat="48.75621" lon="2.09004">
        <ele>156</ele>
        <time>2019-09-15T13:45:32Z</time>
      </trkpt>
      <trkpt lat="48.75634" lon="2.08987">
        <ele>156</ele>
        <time>2019-09-15T13:45:49Z</time>
      </trkpt>
      <trkpt lat="48.75647" lon="2.08975">
        <ele>156</ele>
        <time>2019-09-15T13:46:00Z</time>
      </trkpt>
      <trkpt lat="48.75641" lon="2.08987">
        <ele>155</ele>
        <time>2019-09-15T13:47:23Z</time>
      </trkpt>
      <trkpt lat="48.75637" lon="2.08991">
        <ele>155</ele>
        <time>2019-09-15T13:47:27Z</time>
      </trkpt>
      <trkpt lat="48.75633" lon="2.08994">
        <ele>155</ele>
        <time>2019-09-15T13:47:31Z</time>
      </trkpt>
      <trkpt lat="48.75613" lon="2.09017">
        <ele>155</ele>
        <time>2019-09-15T13:47:52Z</time>
      </trkpt>
      <trkpt lat="48.75621" lon="2.09005">
        <ele>157</ele>
        <time>2019-09-15T13:50:12Z</time>
      </trkpt>
      <trkpt lat="48.75627" lon="2.08994">
        <ele>157</ele>
        <time>2019-09-15T13:50:22Z</time>
      </trkpt>
      <trkpt lat="48.75658" lon="2.08957">
        <ele>156</ele>
        <time>2019-09-15T13:50:54Z</time>
      </trkpt>
      <trkpt lat="48.75684" lon="2.08919">
        <ele>156</ele>
        <time>2019-09-15T13:51:26Z</time>
      </trkpt>
      <trkpt lat="48.75709" lon="2.08881">
        <ele>157</ele>
        <time>2019-09-15T13:51:58Z</time>
      </trkpt>
      <trkpt lat="48.75715" lon="2.08872">
        <ele>157</ele>
        <time>2019-09-15T13:52:07Z</time>
      </trkpt>
      <trkpt lat="48.75727" lon="2.08872">
        <ele>158</ele>
        <time>2019-09-15T13:52:17Z</time>
      </trkpt>
      <trkpt lat="48.7573" lon="2.08876">
        <ele>157</ele>
        <time>2019-09-15T13:52:20Z</time>
      </trkpt>
      <trkpt lat="48.75741" lon="2.08891">
        <ele>157</ele>
        <time>2019-09-15T13:52:30Z</time>
      </trkpt>
      <trkpt lat="48.7575" lon="2.089">
        <ele>157</ele>
        <time>2019-09-15T13:52:38Z</time>
      </trkpt>
      <trkpt lat="48.75785" lon="2.08943">
        <ele>157</ele>
        <time>2019-09-15T13:53:11Z</time>
      </trkpt>
      <trkpt lat="48.75793" lon="2.08952">
        <ele>157</ele>
        <time>2019-09-15T13:53:20Z</time>
      </trkpt>
      <trkpt lat="48.75797" lon="2.08954">
        <ele>157</ele>
        <time>2019-09-15T13:53:24Z</time>
      </trkpt>
      <trkpt lat="48.7584" lon="2.08955">
        <ele>157</ele>
        <time>2019-09-15T13:53:58Z</time>
      </trkpt>
      <trkpt lat="48.75866" lon="2.08955">
        <ele>157</ele>
        <time>2019-09-15T13:54:17Z</time>
      </trkpt>
      <trkpt lat="48.75881" lon="2.08955">
        <ele>157</ele>
        <time>2019-09-15T13:54:29Z</time>
      </trkpt>
      <trkpt lat="48.75913" lon="2.08962">
        <ele>156</ele>
        <time>2019-09-15T13:54:53Z</time>
      </trkpt>
      <trkpt lat="48.75917" lon="2.08967">
        <ele>156</ele>
        <time>2019-09-15T13:54:57Z</time>
      </trkpt>
      <trkpt lat="48.75922" lon="2.08971">
        <ele>157</ele>
        <time>2019-09-15T13:55:02Z</time>
      </trkpt>
      <trkpt lat="48.75946" lon="2.09009">
        <ele>156</ele>
        <time>2019-09-15T13:55:29Z</time>
      </trkpt>
      <trkpt lat="48.7595" lon="2.09012">
        <ele>156</ele>
        <time>2019-09-15T13:55:34Z</time>
      </trkpt>
      <trkpt lat="48.75972" lon="2.09036">
        <ele>155</ele>
        <time>2019-09-15T13:55:57Z</time>
      </trkpt>
      <trkpt lat="48.75982" lon="2.09043">
        <ele>155</ele>
        <time>2019-09-15T13:56:06Z</time>
      </trkpt>
      <trkpt lat="48.75986" lon="2.09047">
        <ele>155</ele>
        <time>2019-09-15T13:56:10Z</time>
      </trkpt>
      <trkpt lat="48.7599" lon="2.0905">
        <ele>156</ele>
        <time>2019-09-15T13:56:15Z</time>
      </trkpt>
      <trkpt lat="48.75995" lon="2.09058">
        <ele>156</ele>
        <time>2019-09-15T13:56:21Z</time>
      </trkpt>
      <trkpt lat="48.76005" lon="2.09085">
        <ele>156</ele>
        <time>2019-09-15T13:56:37Z</time>
      </trkpt>
      <trkpt lat="48.76007" lon="2.09093">
        <ele>156</ele>
        <time>2019-09-15T13:56:42Z</time>
      </trkpt>
      <trkpt lat="48.76012" lon="2.09106">
        <ele>156</ele>
        <time>2019-09-15T13:56:51Z</time>
      </trkpt>
      <trkpt lat="48.76015" lon="2.09113">
        <ele>156</ele>
        <time>2019-09-15T13:56:55Z</time>
      </trkpt>
      <trkpt lat="48.76019" lon="2.09126">
        <ele>156</ele>
        <time>2019-09-15T13:57:03Z</time>
      </trkpt>
      <trkpt lat="48.76026" lon="2.09145">
        <ele>156</ele>
        <time>2019-09-15T13:57:15Z</time>
      </trkpt>
      <trkpt lat="48.76027" lon="2.09152">
        <ele>156</ele>
        <time>2019-09-15T13:57:19Z</time>
      </trkpt>
      <trkpt lat="48.76049" lon="2.092">
        <ele>155</ele>
        <time>2019-09-15T13:57:51Z</time>
      </trkpt>
      <trkpt lat="48.76053" lon="2.09204">
        <ele>155</ele>
        <time>2019-09-15T13:57:55Z</time>
      </trkpt>
      <trkpt lat="48.76058" lon="2.09202">
        <ele>155</ele>
        <time>2019-09-15T13:57:59Z</time>
      </trkpt>
      <trkpt lat="48.76063" lon="2.09212">
        <ele>155</ele>
        <time>2019-09-15T13:58:09Z</time>
      </trkpt>
      <trkpt lat="48.76067" lon="2.09217">
        <ele>155</ele>
        <time>2019-09-15T13:58:13Z</time>
      </trkpt>
      <trkpt lat="48.76072" lon="2.09221">
        <ele>154</ele>
        <time>2019-09-15T13:58:18Z</time>
      </trkpt>
      <trkpt lat="48.76081" lon="2.09224">
        <ele>155</ele>
        <time>2019-09-15T13:58:24Z</time>
      </trkpt>
      <trkpt lat="48.76111" lon="2.09252">
        <ele>154</ele>
        <time>2019-09-15T13:58:52Z</time>
      </trkpt>
      <trkpt lat="48.76118" lon="2.09261">
        <ele>154</ele>
        <time>2019-09-15T13:59:00Z</time>
      </trkpt>
      <trkpt lat="48.76153" lon="2.09283">
        <ele>154</ele>
        <time>2019-09-15T13:59:32Z</time>
      </trkpt>
      <trkpt lat="48.76183" lon="2.09302">
        <ele>154</ele>
        <time>2019-09-15T14:00:00Z</time>
      </trkpt>
      <trkpt lat="48.76195" lon="2.09303">
        <ele>155</ele>
        <time>2019-09-15T14:00:12Z</time>
      </trkpt>
      <trkpt lat="48.76205" lon="2.09309">
        <ele>155</ele>
        <time>2019-09-15T14:00:20Z</time>
      </trkpt>
      <trkpt lat="48.7622" lon="2.09311">
        <ele>154</ele>
        <time>2019-09-15T14:00:33Z</time>
      </trkpt>
      <trkpt lat="48.76259" lon="2.09325">
        <ele>155</ele>
        <time>2019-09-15T14:01:05Z</time>
      </trkpt>
      <trkpt lat="48.76299" lon="2.09339">
        <ele>155</ele>
        <time>2019-09-15T14:01:39Z</time>
      </trkpt>
      <trkpt lat="48.76324" lon="2.09351">
        <ele>155</ele>
        <time>2019-09-15T14:02:01Z</time>
      </trkpt>
      <trkpt lat="48.76363" lon="2.09382">
        <ele>156</ele>
        <time>2019-09-15T14:02:35Z</time>
      </trkpt>
      <trkpt lat="48.76384" lon="2.09402">
        <ele>156</ele>
        <time>2019-09-15T14:02:57Z</time>
      </trkpt>
      <trkpt lat="48.7639" lon="2.09405">
        <ele>156</ele>
        <time>2019-09-15T14:03:05Z</time>
      </trkpt>
      <trkpt lat="48.76395" lon="2.09404">
        <ele>156</ele>
        <time>2019-09-15T14:03:11Z</time>
      </trkpt>
      <trkpt lat="48.764" lon="2.094">
        <ele>156</ele>
        <time>2019-09-15T14:03:17Z</time>
      </trkpt>
      <trkpt lat="48.76402" lon="2.09393">
        <ele>156</ele>
        <time>2019-09-15T14:03:22Z</time>
      </trkpt>
      <trkpt lat="48.76409" lon="2.09372">
        <ele>157</ele>
        <time>2019-09-15T14:03:36Z</time>
      </trkpt>
      <trkpt lat="48.76416" lon="2.09359">
        <ele>157</ele>
        <time>2019-09-15T14:03:46Z</time>
      </trkpt>
      <trkpt lat="48.76431" lon="2.09338">
        <ele>158</ele>
        <time>2019-09-15T14:04:04Z</time>
      </trkpt>
      <trkpt lat="48.76451" lon="2.09301">
        <ele>158</ele>
        <time>2019-09-15T14:04:30Z</time>
      </trkpt>
      <trkpt lat="48.76463" lon="2.09286">
        <ele>158</ele>
        <time>2019-09-15T14:04:42Z</time>
      </trkpt>
      <trkpt lat="48.76476" lon="2.09261">
        <ele>159</ele>
        <time>2019-09-15T14:04:58Z</time>
      </trkpt>
      <trkpt lat="48.76479" lon="2.09257">
        <ele>159</ele>
        <time>2019-09-15T14:05:02Z</time>
      </trkpt>
      <trkpt lat="48.76495" lon="2.09226">
        <ele>159</ele>
        <time>2019-09-15T14:05:22Z</time>
      </trkpt>
      <trkpt lat="48.76519" lon="2.09187">
        <ele>160</ele>
        <time>2019-09-15T14:05:50Z</time>
      </trkpt>
      <trkpt lat="48.76525" lon="2.09175">
        <ele>160</ele>
        <time>2019-09-15T14:05:59Z</time>
      </trkpt>
      <trkpt lat="48.76526" lon="2.09161">
        <ele>159</ele>
        <time>2019-09-15T14:06:07Z</time>
      </trkpt>
      <trkpt lat="48.76526" lon="2.09154">
        <ele>159</ele>
        <time>2019-09-15T14:06:12Z</time>
      </trkpt>
      <trkpt lat="48.76523" lon="2.09148">
        <ele>160</ele>
        <time>2019-09-15T14:06:17Z</time>
      </trkpt>
      <trkpt lat="48.7651" lon="2.09131">
        <ele>160</ele>
        <time>2019-09-15T14:06:33Z</time>
      </trkpt>
      <trkpt lat="48.76509" lon="2.09123">
        <ele>160</ele>
        <time>2019-09-15T14:06:37Z</time>
      </trkpt>
      <trkpt lat="48.76516" lon="2.09068">
        <ele>160</ele>
        <time>2019-09-15T14:07:05Z</time>
      </trkpt>
      <trkpt lat="48.7652" lon="2.09053">
        <ele>160</ele>
        <time>2019-09-15T14:07:13Z</time>
      </trkpt>
      <trkpt lat="48.76521" lon="2.09045">
        <ele>160</ele>
        <time>2019-09-15T14:07:17Z</time>
      </trkpt>
      <trkpt lat="48.76524" lon="2.09015">
        <ele>160</ele>
        <time>2019-09-15T14:07:33Z</time>
      </trkpt>
      <trkpt lat="48.76527" lon="2.09007">
        <ele>160</ele>
        <time>2019-09-15T14:07:37Z</time>
      </trkpt>
      <trkpt lat="48.7653" lon="2.09">
        <ele>160</ele>
        <time>2019-09-15T14:07:41Z</time>
      </trkpt>
      <trkpt lat="48.76533" lon="2.08985">
        <ele>160</ele>
        <time>2019-09-15T14:07:49Z</time>
      </trkpt>
      <trkpt lat="48.76537" lon="2.08952">
        <ele>160</ele>
        <time>2019-09-15T14:08:05Z</time>
      </trkpt>
      <trkpt lat="48.7654" lon="2.08944">
        <ele>161</ele>
        <time>2019-09-15T14:08:09Z</time>
      </trkpt>
      <trkpt lat="48.76544" lon="2.08921">
        <ele>160</ele>
        <time>2019-09-15T14:08:20Z</time>
      </trkpt>
      <trkpt lat="48.76547" lon="2.08914">
        <ele>160</ele>
        <time>2019-09-15T14:08:24Z</time>
      </trkpt>
      <trkpt lat="48.76553" lon="2.08879">
        <ele>160</ele>
        <time>2019-09-15T14:08:45Z</time>
      </trkpt>
      <trkpt lat="48.76555" lon="2.08864">
        <ele>160</ele>
        <time>2019-09-15T14:08:53Z</time>
      </trkpt>
      <trkpt lat="48.76563" lon="2.08823">
        <ele>161</ele>
        <time>2019-09-15T14:09:20Z</time>
      </trkpt>
      <trkpt lat="48.76567" lon="2.08817">
        <ele>161</ele>
        <time>2019-09-15T14:09:23Z</time>
      </trkpt>
      <trkpt lat="48.76567" lon="2.08809">
        <ele>161</ele>
        <time>2019-09-15T14:09:27Z</time>
      </trkpt>
      <trkpt lat="48.76567" lon="2.08801">
        <ele>161</ele>
        <time>2019-09-15T14:09:30Z</time>
      </trkpt>
      <trkpt lat="48.76569" lon="2.08785">
        <ele>161</ele>
        <time>2019-09-15T14:09:38Z</time>
      </trkpt>
      <trkpt lat="48.76568" lon="2.08769">
        <ele>161</ele>
        <time>2019-09-15T14:09:45Z</time>
      </trkpt>
      <trkpt lat="48.76572" lon="2.08754">
        <ele>161</ele>
        <time>2019-09-15T14:09:54Z</time>
      </trkpt>
      <trkpt lat="48.76572" lon="2.08747">
        <ele>161</ele>
        <time>2019-09-15T14:09:57Z</time>
      </trkpt>
      <trkpt lat="48.76575" lon="2.08731">
        <ele>161</ele>
        <time>2019-09-15T14:10:05Z</time>
      </trkpt>
      <trkpt lat="48.76575" lon="2.08715">
        <ele>161</ele>
        <time>2019-09-15T14:10:13Z</time>
      </trkpt>
      <trkpt lat="48.76578" lon="2.087">
        <ele>161</ele>
        <time>2019-09-15T14:10:21Z</time>
      </trkpt>
      <trkpt lat="48.7658" lon="2.08694">
        <ele>161</ele>
        <time>2019-09-15T14:10:25Z</time>
      </trkpt>
      <trkpt lat="48.76581" lon="2.08686">
        <ele>161</ele>
        <time>2019-09-15T14:10:29Z</time>
      </trkpt>
      <trkpt lat="48.76584" lon="2.08678">
        <ele>161</ele>
        <time>2019-09-15T14:10:33Z</time>
      </trkpt>
      <trkpt lat="48.76592" lon="2.08612">
        <ele>161</ele>
        <time>2019-09-15T14:11:05Z</time>
      </trkpt>
      <trkpt lat="48.76596" lon="2.08588">
        <ele>161</ele>
        <time>2019-09-15T14:11:17Z</time>
      </trkpt>
      <trkpt lat="48.76603" lon="2.08567">
        <ele>161</ele>
        <time>2019-09-15T14:11:28Z</time>
      </trkpt>
      <trkpt lat="48.7663" lon="2.0853">
        <ele>160</ele>
        <time>2019-09-15T14:11:55Z</time>
      </trkpt>
      <trkpt lat="48.76641" lon="2.08504">
        <ele>160</ele>
        <time>2019-09-15T14:12:13Z</time>
      </trkpt>
      <trkpt lat="48.76659" lon="2.08476">
        <ele>160</ele>
        <time>2019-09-15T14:12:31Z</time>
      </trkpt>
      <trkpt lat="48.76662" lon="2.08473">
        <ele>160</ele>
        <time>2019-09-15T14:12:35Z</time>
      </trkpt>
      <trkpt lat="48.76673" lon="2.08471">
        <ele>160</ele>
        <time>2019-09-15T14:12:43Z</time>
      </trkpt>
      <trkpt lat="48.76699" lon="2.08473">
        <ele>159</ele>
        <time>2019-09-15T14:13:03Z</time>
      </trkpt>
      <trkpt lat="48.76703" lon="2.08476">
        <ele>159</ele>
        <time>2019-09-15T14:13:07Z</time>
      </trkpt>
      <trkpt lat="48.76714" lon="2.08478">
        <ele>159</ele>
        <time>2019-09-15T14:13:16Z</time>
      </trkpt>
      <trkpt lat="48.76728" lon="2.08483">
        <ele>159</ele>
        <time>2019-09-15T14:13:28Z</time>
      </trkpt>
      <trkpt lat="48.76733" lon="2.08481">
        <ele>159</ele>
        <time>2019-09-15T14:13:32Z</time>
      </trkpt>
      <trkpt lat="48.76773" lon="2.08481">
        <ele>159</ele>
        <time>2019-09-15T14:14:06Z</time>
      </trkpt>
      <trkpt lat="48.76797" lon="2.08484">
        <ele>159</ele>
        <time>2019-09-15T14:14:26Z</time>
      </trkpt>
      <trkpt lat="48.76833" lon="2.08501">
        <ele>159</ele>
        <time>2019-09-15T14:14:58Z</time>
      </trkpt>
      <trkpt lat="48.76848" lon="2.08506">
        <ele>159</ele>
        <time>2019-09-15T14:15:10Z</time>
      </trkpt>
      <trkpt lat="48.76852" lon="2.08509">
        <ele>159</ele>
        <time>2019-09-15T14:15:14Z</time>
      </trkpt>
      <trkpt lat="48.76858" lon="2.08509">
        <ele>159</ele>
        <time>2019-09-15T14:15:19Z</time>
      </trkpt>
      <trkpt lat="48.76882" lon="2.0852">
        <ele>159</ele>
        <time>2019-09-15T14:15:39Z</time>
      </trkpt>
      <trkpt lat="48.76891" lon="2.08526">
        <ele>159</ele>
        <time>2019-09-15T14:15:47Z</time>
      </trkpt>
      <trkpt lat="48.769" lon="2.08529">
        <ele>159</ele>
        <time>2019-09-15T14:15:56Z</time>
      </trkpt>
      <trkpt lat="48.76939" lon="2.0855">
        <ele>159</ele>
        <time>2019-09-15T14:16:27Z</time>
      </trkpt>
      <trkpt lat="48.76949" lon="2.08552">
        <ele>159</ele>
        <time>2019-09-15T14:16:36Z</time>
      </trkpt>
      <trkpt lat="48.76955" lon="2.08552">
        <ele>159</ele>
        <time>2019-09-15T14:16:40Z</time>
      </trkpt>
      <trkpt lat="48.7696" lon="2.08549">
        <ele>160</ele>
        <time>2019-09-15T14:16:44Z</time>
      </trkpt>
      <trkpt lat="48.76968" lon="2.08541">
        <ele>160</ele>
        <time>2019-09-15T14:16:52Z</time>
      </trkpt>
      <trkpt lat="48.76978" lon="2.08537">
        <ele>160</ele>
        <time>2019-09-15T14:16:59Z</time>
      </trkpt>
      <trkpt lat="48.76982" lon="2.0853">
        <ele>160</ele>
        <time>2019-09-15T14:17:03Z</time>
      </trkpt>
      <trkpt lat="48.76987" lon="2.08526">
        <ele>160</ele>
        <time>2019-09-15T14:17:07Z</time>
      </trkpt>
      <trkpt lat="48.76998" lon="2.08511">
        <ele>160</ele>
        <time>2019-09-15T14:17:19Z</time>
      </trkpt>
      <trkpt lat="48.77002" lon="2.08499">
        <ele>159</ele>
        <time>2019-09-15T14:17:28Z</time>
      </trkpt>
      <trkpt lat="48.77005" lon="2.08491">
        <ele>160</ele>
        <time>2019-09-15T14:17:32Z</time>
      </trkpt>
      <trkpt lat="48.77005" lon="2.08481">
        <ele>160</ele>
        <time>2019-09-15T14:17:40Z</time>
      </trkpt>
      <trkpt lat="48.77004" lon="2.08474">
        <ele>160</ele>
        <time>2019-09-15T14:17:45Z</time>
      </trkpt>
      <trkpt lat="48.77009" lon="2.08452">
        <ele>160</ele>
        <time>2019-09-15T14:17:58Z</time>
      </trkpt>
      <trkpt lat="48.77009" lon="2.08445">
        <ele>160</ele>
        <time>2019-09-15T14:18:07Z</time>
      </trkpt>
      <trkpt lat="48.77013" lon="2.08426">
        <ele>160</ele>
        <time>2019-09-15T14:18:23Z</time>
      </trkpt>
      <trkpt lat="48.77013" lon="2.08419">
        <ele>160</ele>
        <time>2019-09-15T14:18:27Z</time>
      </trkpt>
      <trkpt lat="48.77016" lon="2.08404">
        <ele>160</ele>
        <time>2019-09-15T14:18:35Z</time>
      </trkpt>
      <trkpt lat="48.77017" lon="2.08367">
        <ele>161</ele>
        <time>2019-09-15T14:18:55Z</time>
      </trkpt>
      <trkpt lat="48.77018" lon="2.0836">
        <ele>161</ele>
        <time>2019-09-15T14:18:59Z</time>
      </trkpt>
      <trkpt lat="48.7702" lon="2.08353">
        <ele>160</ele>
        <time>2019-09-15T14:19:03Z</time>
      </trkpt>
      <trkpt lat="48.77021" lon="2.08322">
        <ele>160</ele>
        <time>2019-09-15T14:19:19Z</time>
      </trkpt>
      <trkpt lat="48.77025" lon="2.08309">
        <ele>160</ele>
        <time>2019-09-15T14:19:26Z</time>
      </trkpt>
      <trkpt lat="48.77029" lon="2.08268">
        <ele>158</ele>
        <time>2019-09-15T14:19:46Z</time>
      </trkpt>
      <trkpt lat="48.77033" lon="2.08253">
        <ele>158</ele>
        <time>2019-09-15T14:19:53Z</time>
      </trkpt>
      <trkpt lat="48.77036" lon="2.08242">
        <ele>158</ele>
        <time>2019-09-15T14:20:00Z</time>
      </trkpt>
      <trkpt lat="48.77034" lon="2.08236">
        <ele>158</ele>
        <time>2019-09-15T14:20:04Z</time>
      </trkpt>
      <trkpt lat="48.77033" lon="2.08229">
        <ele>158</ele>
        <time>2019-09-15T14:20:07Z</time>
      </trkpt>
      <trkpt lat="48.77036" lon="2.08212">
        <ele>158</ele>
        <time>2019-09-15T14:20:14Z</time>
      </trkpt>
      <trkpt lat="48.77036" lon="2.08194">
        <ele>158</ele>
        <time>2019-09-15T14:20:26Z</time>
      </trkpt>
      <trkpt lat="48.77041" lon="2.08124">
        <ele>158</ele>
        <time>2019-09-15T14:21:00Z</time>
      </trkpt>
      <trkpt lat="48.77042" lon="2.08092">
        <ele>158</ele>
        <time>2019-09-15T14:21:18Z</time>
      </trkpt>
      <trkpt lat="48.77044" lon="2.08085">
        <ele>158</ele>
        <time>2019-09-15T14:21:22Z</time>
      </trkpt>
      <trkpt lat="48.77052" lon="2.08025">
        <ele>159</ele>
        <time>2019-09-15T14:21:54Z</time>
      </trkpt>
      <trkpt lat="48.77055" lon="2.08011">
        <ele>159</ele>
        <time>2019-09-15T14:22:02Z</time>
      </trkpt>
      <trkpt lat="48.77052" lon="2.08007">
        <ele>159</ele>
        <time>2019-09-15T14:22:12Z</time>
      </trkpt>
      <trkpt lat="48.77045" lon="2.08">
        <ele>162</ele>
        <time>2019-09-15T14:22:23Z</time>
      </trkpt>
      <trkpt lat="48.77052" lon="2.07978">
        <ele>162</ele>
        <time>2019-09-15T14:22:35Z</time>
      </trkpt>
      <trkpt lat="48.77056" lon="2.07973">
        <ele>162</ele>
        <time>2019-09-15T14:22:39Z</time>
      </trkpt>
      <trkpt lat="48.77061" lon="2.07975">
        <ele>162</ele>
        <time>2019-09-15T14:22:43Z</time>
      </trkpt>
      <trkpt lat="48.77068" lon="2.07989">
        <ele>162</ele>
        <time>2019-09-15T14:22:55Z</time>
      </trkpt>
      <trkpt lat="48.77078" lon="2.08001">
        <ele>162</ele>
        <time>2019-09-15T14:23:15Z</time>
      </trkpt>
      <trkpt lat="48.77106" lon="2.08046">
        <ele>161</ele>
        <time>2019-09-15T14:23:50Z</time>
      </trkpt>
      <trkpt lat="48.77118" lon="2.0806">
        <ele>161</ele>
        <time>2019-09-15T14:24:08Z</time>
      </trkpt>
      <trkpt lat="48.77121" lon="2.08067">
        <ele>161</ele>
        <time>2019-09-15T14:24:12Z</time>
      </trkpt>
      <trkpt lat="48.77126" lon="2.0807">
        <ele>161</ele>
        <time>2019-09-15T14:24:17Z</time>
      </trkpt>
      <trkpt lat="48.77145" lon="2.08071">
        <ele>161</ele>
        <time>2019-09-15T14:24:33Z</time>
      </trkpt>
      <trkpt lat="48.7715" lon="2.08066">
        <ele>161</ele>
        <time>2019-09-15T14:24:38Z</time>
      </trkpt>
      <trkpt lat="48.77167" lon="2.08036">
        <ele>161</ele>
        <time>2019-09-15T14:25:01Z</time>
      </trkpt>
      <trkpt lat="48.77174" lon="2.08026">
        <ele>161</ele>
        <time>2019-09-15T14:25:09Z</time>
      </trkpt>
      <trkpt lat="48.7718" lon="2.08014">
        <ele>161</ele>
        <time>2019-09-15T14:25:17Z</time>
      </trkpt>
      <trkpt lat="48.77205" lon="2.07967">
        <ele>161</ele>
        <time>2019-09-15T14:25:50Z</time>
      </trkpt>
      <trkpt lat="48.77229" lon="2.07927">
        <ele>161</ele>
        <time>2019-09-15T14:26:18Z</time>
      </trkpt>
      <trkpt lat="48.77236" lon="2.07916">
        <ele>161</ele>
        <time>2019-09-15T14:26:26Z</time>
      </trkpt>
      <trkpt lat="48.77261" lon="2.07866">
        <ele>161</ele>
        <time>2019-09-15T14:26:58Z</time>
      </trkpt>
      <trkpt lat="48.77266" lon="2.07867">
        <ele>161</ele>
        <time>2019-09-15T14:28:18Z</time>
      </trkpt>
      <trkpt lat="48.7727" lon="2.0787">
        <ele>161</ele>
        <time>2019-09-15T14:28:22Z</time>
      </trkpt>
      <trkpt lat="48.77276" lon="2.07872">
        <ele>161</ele>
        <time>2019-09-15T14:28:26Z</time>
      </trkpt>
      <trkpt lat="48.77281" lon="2.07872">
        <ele>161</ele>
        <time>2019-09-15T14:28:31Z</time>
      </trkpt>
      <trkpt lat="48.77286" lon="2.07876">
        <ele>161</ele>
        <time>2019-09-15T14:28:36Z</time>
      </trkpt>
      <trkpt lat="48.77288" lon="2.07882">
        <ele>161</ele>
        <time>2019-09-15T14:28:40Z</time>
      </trkpt>
      <trkpt lat="48.77292" lon="2.07896">
        <ele>160</ele>
        <time>2019-09-15T14:28:48Z</time>
      </trkpt>
      <trkpt lat="48.77294" lon="2.07907">
        <ele>161</ele>
        <time>2019-09-15T14:28:55Z</time>
      </trkpt>
      <trkpt lat="48.77295" lon="2.07923">
        <ele>161</ele>
        <time>2019-09-15T14:29:05Z</time>
      </trkpt>
      <trkpt lat="48.77296" lon="2.0793">
        <ele>161</ele>
        <time>2019-09-15T14:29:10Z</time>
      </trkpt>
      <trkpt lat="48.77303" lon="2.07945">
        <ele>161</ele>
        <time>2019-09-15T14:29:20Z</time>
      </trkpt>
      <trkpt lat="48.77304" lon="2.07952">
        <ele>160</ele>
        <time>2019-09-15T14:29:24Z</time>
      </trkpt>
      <trkpt lat="48.77304" lon="2.0796">
        <ele>161</ele>
        <time>2019-09-15T14:29:28Z</time>
      </trkpt>
      <trkpt lat="48.77304" lon="2.07966">
        <ele>160</ele>
        <time>2019-09-15T14:29:33Z</time>
      </trkpt>
      <trkpt lat="48.7731" lon="2.07971">
        <ele>161</ele>
        <time>2019-09-15T14:30:04Z</time>
      </trkpt>
      <trkpt lat="48.77315" lon="2.07972">
        <ele>161</ele>
        <time>2019-09-15T14:30:28Z</time>
      </trkpt>
      <trkpt lat="48.77331" lon="2.07979">
        <ele>161</ele>
        <time>2019-09-15T14:30:42Z</time>
      </trkpt>
      <trkpt lat="48.77335" lon="2.07979">
        <ele>160</ele>
        <time>2019-09-15T14:30:45Z</time>
      </trkpt>
      <trkpt lat="48.77341" lon="2.07981">
        <ele>160</ele>
        <time>2019-09-15T14:30:49Z</time>
      </trkpt>
      <trkpt lat="48.77344" lon="2.07985">
        <ele>160</ele>
        <time>2019-09-15T14:30:53Z</time>
      </trkpt>
      <trkpt lat="48.77345" lon="2.08008">
        <ele>161</ele>
        <time>2019-09-15T14:31:05Z</time>
      </trkpt>
      <trkpt lat="48.77336" lon="2.08068">
        <ele>161</ele>
        <time>2019-09-15T14:31:38Z</time>
      </trkpt>
      <trkpt lat="48.77335" lon="2.08083">
        <ele>161</ele>
        <time>2019-09-15T14:31:45Z</time>
      </trkpt>
      <trkpt lat="48.77325" lon="2.08129">
        <ele>162</ele>
        <time>2019-09-15T14:32:08Z</time>
      </trkpt>
      <trkpt lat="48.77326" lon="2.08136">
        <ele>162</ele>
        <time>2019-09-15T14:32:12Z</time>
      </trkpt>
      <trkpt lat="48.77336" lon="2.08138">
        <ele>161</ele>
        <time>2019-09-15T14:32:20Z</time>
      </trkpt>
      <trkpt lat="48.77352" lon="2.08143">
        <ele>161</ele>
        <time>2019-09-15T14:32:32Z</time>
      </trkpt>
      <trkpt lat="48.77358" lon="2.08141">
        <ele>162</ele>
        <time>2019-09-15T14:32:39Z</time>
      </trkpt>
      <trkpt lat="48.77363" lon="2.08137">
        <ele>162</ele>
        <time>2019-09-15T14:32:43Z</time>
      </trkpt>
      <trkpt lat="48.77367" lon="2.08137">
        <ele>162</ele>
        <time>2019-09-15T14:32:46Z</time>
      </trkpt>
      <trkpt lat="48.77381" lon="2.08144">
        <ele>162</ele>
        <time>2019-09-15T14:32:58Z</time>
      </trkpt>
      <trkpt lat="48.77386" lon="2.08144">
        <ele>162</ele>
        <time>2019-09-15T14:33:02Z</time>
      </trkpt>
      <trkpt lat="48.77389" lon="2.08151">
        <ele>162</ele>
        <time>2019-09-15T14:33:06Z</time>
      </trkpt>
      <trkpt lat="48.77388" lon="2.08159">
        <ele>162</ele>
        <time>2019-09-15T14:33:10Z</time>
      </trkpt>
      <trkpt lat="48.77386" lon="2.08173">
        <ele>162</ele>
        <time>2019-09-15T14:33:19Z</time>
      </trkpt>
      <trkpt lat="48.77385" lon="2.08181">
        <ele>162</ele>
        <time>2019-09-15T14:33:23Z</time>
      </trkpt>
      <trkpt lat="48.77387" lon="2.08187">
        <ele>162</ele>
        <time>2019-09-15T14:33:28Z</time>
      </trkpt>
      <trkpt lat="48.77391" lon="2.08191">
        <ele>162</ele>
        <time>2019-09-15T14:33:32Z</time>
      </trkpt>
      <trkpt lat="48.77393" lon="2.08197">
        <ele>163</ele>
        <time>2019-09-15T14:33:36Z</time>
      </trkpt>
      <trkpt lat="48.77397" lon="2.08201">
        <ele>163</ele>
        <time>2019-09-15T14:33:40Z</time>
      </trkpt>
      <trkpt lat="48.77411" lon="2.08209">
        <ele>163</ele>
        <time>2019-09-15T14:33:54Z</time>
      </trkpt>
      <trkpt lat="48.77422" lon="2.0821">
        <ele>163</ele>
        <time>2019-09-15T14:34:02Z</time>
      </trkpt>
      <trkpt lat="48.77425" lon="2.08215">
        <ele>163</ele>
        <time>2019-09-15T14:34:05Z</time>
      </trkpt>
      <trkpt lat="48.77428" lon="2.08223">
        <ele>163</ele>
        <time>2019-09-15T14:34:08Z</time>
      </trkpt>
      <trkpt lat="48.77432" lon="2.0823">
        <ele>163</ele>
        <time>2019-09-15T14:34:11Z</time>
      </trkpt>
      <trkpt lat="48.77439" lon="2.0825">
        <ele>163</ele>
        <time>2019-09-15T14:34:22Z</time>
      </trkpt>
      <trkpt lat="48.77446" lon="2.08261">
        <ele>163</ele>
        <time>2019-09-15T14:34:29Z</time>
      </trkpt>
      <trkpt lat="48.77451" lon="2.08266">
        <ele>163</ele>
        <time>2019-09-15T14:34:34Z</time>
      </trkpt>
      <trkpt lat="48.77456" lon="2.08281">
        <ele>164</ele>
        <time>2019-09-15T14:34:45Z</time>
      </trkpt>
      <trkpt lat="48.77457" lon="2.08304">
        <ele>164</ele>
        <time>2019-09-15T14:34:57Z</time>
      </trkpt>
      <trkpt lat="48.77454" lon="2.08327">
        <ele>164</ele>
        <time>2019-09-15T14:35:07Z</time>
      </trkpt>
      <trkpt lat="48.77454" lon="2.08353">
        <ele>164</ele>
        <time>2019-09-15T14:35:18Z</time>
      </trkpt>
      <trkpt lat="48.77452" lon="2.08368">
        <ele>164</ele>
        <time>2019-09-15T14:35:24Z</time>
      </trkpt>
      <trkpt lat="48.77454" lon="2.08383">
        <ele>164</ele>
        <time>2019-09-15T14:35:33Z</time>
      </trkpt>
      <trkpt lat="48.77455" lon="2.0839">
        <ele>164</ele>
        <time>2019-09-15T14:35:37Z</time>
      </trkpt>
      <trkpt lat="48.77457" lon="2.08405">
        <ele>164</ele>
        <time>2019-09-15T14:35:45Z</time>
      </trkpt>
      <trkpt lat="48.7746" lon="2.0845">
        <ele>164</ele>
        <time>2019-09-15T14:36:06Z</time>
      </trkpt>
      <trkpt lat="48.77467" lon="2.08481">
        <ele>163</ele>
        <time>2019-09-15T14:36:22Z</time>
      </trkpt>
      <trkpt lat="48.77472" lon="2.08525">
        <ele>163</ele>
        <time>2019-09-15T14:36:45Z</time>
      </trkpt>
      <trkpt lat="48.77481" lon="2.08569">
        <ele>163</ele>
        <time>2019-09-15T14:37:09Z</time>
      </trkpt>
      <trkpt lat="48.77484" lon="2.08598">
        <ele>162</ele>
        <time>2019-09-15T14:37:24Z</time>
      </trkpt>
      <trkpt lat="48.77486" lon="2.08605">
        <ele>162</ele>
        <time>2019-09-15T14:37:28Z</time>
      </trkpt>
      <trkpt lat="48.77488" lon="2.08621">
        <ele>162</ele>
        <time>2019-09-15T14:37:36Z</time>
      </trkpt>
      <trkpt lat="48.77491" lon="2.08643">
        <ele>162</ele>
        <time>2019-09-15T14:37:48Z</time>
      </trkpt>
      <trkpt lat="48.77495" lon="2.0865">
        <ele>162</ele>
        <time>2019-09-15T14:37:52Z</time>
      </trkpt>
      <trkpt lat="48.77497" lon="2.08657">
        <ele>162</ele>
        <time>2019-09-15T14:37:56Z</time>
      </trkpt>
      <trkpt lat="48.77504" lon="2.08714">
        <ele>162</ele>
        <time>2019-09-15T14:38:27Z</time>
      </trkpt>
      <trkpt lat="48.77504" lon="2.0878">
        <ele>162</ele>
        <time>2019-09-15T14:38:59Z</time>
      </trkpt>
      <trkpt lat="48.77505" lon="2.08817">
        <ele>162</ele>
        <time>2019-09-15T14:39:19Z</time>
      </trkpt>
      <trkpt lat="48.77504" lon="2.08832">
        <ele>162</ele>
        <time>2019-09-15T14:39:27Z</time>
      </trkpt>
      <trkpt lat="48.77504" lon="2.08847">
        <ele>162</ele>
        <time>2019-09-15T14:39:35Z</time>
      </trkpt>
      <trkpt lat="48.77501" lon="2.08863">
        <ele>163</ele>
        <time>2019-09-15T14:39:43Z</time>
      </trkpt>
      <trkpt lat="48.77498" lon="2.0887">
        <ele>163</ele>
        <time>2019-09-15T14:39:46Z</time>
      </trkpt>
      <trkpt lat="48.77497" lon="2.08877">
        <ele>163</ele>
        <time>2019-09-15T14:39:50Z</time>
      </trkpt>
      <trkpt lat="48.775" lon="2.08892">
        <ele>163</ele>
        <time>2019-09-15T14:39:57Z</time>
      </trkpt>
      <trkpt lat="48.77499" lon="2.08907">
        <ele>163</ele>
        <time>2019-09-15T14:40:05Z</time>
      </trkpt>
      <trkpt lat="48.77498" lon="2.08915">
        <ele>163</ele>
        <time>2019-09-15T14:40:09Z</time>
      </trkpt>
      <trkpt lat="48.7749" lon="2.08976">
        <ele>162</ele>
        <time>2019-09-15T14:40:40Z</time>
      </trkpt>
      <trkpt lat="48.77485" lon="2.09005">
        <ele>162</ele>
        <time>2019-09-15T14:40:56Z</time>
      </trkpt>
      <trkpt lat="48.77484" lon="2.0902">
        <ele>162</ele>
        <time>2019-09-15T14:41:04Z</time>
      </trkpt>
      <trkpt lat="48.77487" lon="2.09036">
        <ele>161</ele>
        <time>2019-09-15T14:41:14Z</time>
      </trkpt>
      <trkpt lat="48.7749" lon="2.09042">
        <ele>161</ele>
        <time>2019-09-15T14:41:19Z</time>
      </trkpt>
      <trkpt lat="48.77494" lon="2.09047">
        <ele>161</ele>
        <time>2019-09-15T14:41:23Z</time>
      </trkpt>
      <trkpt lat="48.77495" lon="2.09059">
        <ele>160</ele>
        <time>2019-09-15T14:41:46Z</time>
      </trkpt>
      <trkpt lat="48.77492" lon="2.09065">
        <ele>160</ele>
        <time>2019-09-15T14:41:50Z</time>
      </trkpt>
      <trkpt lat="48.77487" lon="2.09069">
        <ele>161</ele>
        <time>2019-09-15T14:41:55Z</time>
      </trkpt>
      <trkpt lat="48.77483" lon="2.0907">
        <ele>161</ele>
        <time>2019-09-15T14:41:59Z</time>
      </trkpt>
      <trkpt lat="48.77477" lon="2.09069">
        <ele>161</ele>
        <time>2019-09-15T14:42:07Z</time>
      </trkpt>
      <trkpt lat="48.77473" lon="2.09072">
        <ele>161</ele>
        <time>2019-09-15T14:42:13Z</time>
      </trkpt>
      <trkpt lat="48.77466" lon="2.09095">
        <ele>161</ele>
        <time>2019-09-15T14:42:26Z</time>
      </trkpt>
      <trkpt lat="48.77467" lon="2.09087">
        <ele>161</ele>
        <time>2019-09-15T14:42:59Z</time>
      </trkpt>
      <trkpt lat="48.77468" lon="2.09072">
        <ele>161</ele>
        <time>2019-09-15T14:43:07Z</time>
      </trkpt>
      <trkpt lat="48.77472" lon="2.09067">
        <ele>161</ele>
        <time>2019-09-15T14:43:12Z</time>
      </trkpt>
      <trkpt lat="48.77485" lon="2.09068">
        <ele>161</ele>
        <time>2019-09-15T14:43:25Z</time>
      </trkpt>
      <trkpt lat="48.77489" lon="2.09064">
        <ele>161</ele>
        <time>2019-09-15T14:43:30Z</time>
      </trkpt>
      <trkpt lat="48.77494" lon="2.09064">
        <ele>161</ele>
        <time>2019-09-15T14:43:35Z</time>
      </trkpt>
      <trkpt lat="48.77505" lon="2.09086">
        <ele>161</ele>
        <time>2019-09-15T14:43:59Z</time>
      </trkpt>
      <trkpt lat="48.77508" lon="2.09095">
        <ele>161</ele>
        <time>2019-09-15T14:44:06Z</time>
      </trkpt>
      <trkpt lat="48.7752" lon="2.09114">
        <ele>160</ele>
        <time>2019-09-15T14:44:21Z</time>
      </trkpt>
      <trkpt lat="48.77527" lon="2.09135">
        <ele>160</ele>
        <time>2019-09-15T14:44:34Z</time>
      </trkpt>
      <trkpt lat="48.77532" lon="2.09134">
        <ele>160</ele>
        <time>2019-09-15T14:44:39Z</time>
      </trkpt>
      <trkpt lat="48.77536" lon="2.09129">
        <ele>159</ele>
        <time>2019-09-15T14:44:43Z</time>
      </trkpt>
      <trkpt lat="48.77537" lon="2.09115">
        <ele>159</ele>
        <time>2019-09-15T14:44:50Z</time>
      </trkpt>
      <trkpt lat="48.77536" lon="2.09108">
        <ele>160</ele>
        <time>2019-09-15T14:44:54Z</time>
      </trkpt>
      <trkpt lat="48.77549" lon="2.09082">
        <ele>160</ele>
        <time>2019-09-15T14:45:11Z</time>
      </trkpt>
      <trkpt lat="48.77556" lon="2.0906">
        <ele>160</ele>
        <time>2019-09-15T14:45:24Z</time>
      </trkpt>
      <trkpt lat="48.7756" lon="2.09054">
        <ele>161</ele>
        <time>2019-09-15T14:45:28Z</time>
      </trkpt>
      <trkpt lat="48.77564" lon="2.0905">
        <ele>161</ele>
        <time>2019-09-15T14:45:32Z</time>
      </trkpt>
      <trkpt lat="48.77574" lon="2.09046">
        <ele>161</ele>
        <time>2019-09-15T14:45:39Z</time>
      </trkpt>
      <trkpt lat="48.77584" lon="2.09048">
        <ele>160</ele>
        <time>2019-09-15T14:45:46Z</time>
      </trkpt>
      <trkpt lat="48.77589" lon="2.09052">
        <ele>160</ele>
        <time>2019-09-15T14:45:51Z</time>
      </trkpt>
      <trkpt lat="48.77606" lon="2.09056">
        <ele>160</ele>
        <time>2019-09-15T14:46:03Z</time>
      </trkpt>
      <trkpt lat="48.77627" lon="2.09055">
        <ele>160</ele>
        <time>2019-09-15T14:46:19Z</time>
      </trkpt>
      <trkpt lat="48.77651" lon="2.09066">
        <ele>160</ele>
        <time>2019-09-15T14:46:38Z</time>
      </trkpt>
      <trkpt lat="48.7769" lon="2.09095">
        <ele>159</ele>
        <time>2019-09-15T14:47:11Z</time>
      </trkpt>
      <trkpt lat="48.77704" lon="2.09108">
        <ele>159</ele>
        <time>2019-09-15T14:47:24Z</time>
      </trkpt>
      <trkpt lat="48.77709" lon="2.09109">
        <ele>159</ele>
        <time>2019-09-15T14:47:32Z</time>
      </trkpt>
      <trkpt lat="48.77715" lon="2.09109">
        <ele>158</ele>
        <time>2019-09-15T14:47:42Z</time>
      </trkpt>
      <trkpt lat="48.77718" lon="2.09116">
        <ele>158</ele>
        <time>2019-09-15T14:47:47Z</time>
      </trkpt>
      <trkpt lat="48.77722" lon="2.09119">
        <ele>158</ele>
        <time>2019-09-15T14:47:52Z</time>
      </trkpt>
      <trkpt lat="48.77726" lon="2.09122">
        <ele>157</ele>
        <time>2019-09-15T14:48:00Z</time>
      </trkpt>
      <trkpt lat="48.77737" lon="2.09146">
        <ele>156</ele>
        <time>2019-09-15T14:48:15Z</time>
      </trkpt>
      <trkpt lat="48.77739" lon="2.09153">
        <ele>156</ele>
        <time>2019-09-15T14:48:19Z</time>
      </trkpt>
      <trkpt lat="48.77746" lon="2.09169">
        <ele>155</ele>
        <time>2019-09-15T14:48:29Z</time>
      </trkpt>
      <trkpt lat="48.77746" lon="2.09178">
        <ele>155</ele>
        <time>2019-09-15T14:48:33Z</time>
      </trkpt>
      <trkpt lat="48.77752" lon="2.09208">
        <ele>154</ele>
        <time>2019-09-15T14:48:49Z</time>
      </trkpt>
      <trkpt lat="48.77756" lon="2.09215">
        <ele>154</ele>
        <time>2019-09-15T14:48:53Z</time>
      </trkpt>
      <trkpt lat="48.77763" lon="2.09239">
        <ele>154</ele>
        <time>2019-09-15T14:49:04Z</time>
      </trkpt>
      <trkpt lat="48.77767" lon="2.09245">
        <ele>154</ele>
        <time>2019-09-15T14:49:09Z</time>
      </trkpt>
      <trkpt lat="48.77768" lon="2.09252">
        <ele>153</ele>
        <time>2019-09-15T14:49:14Z</time>
      </trkpt>
      <trkpt lat="48.77777" lon="2.09269">
        <ele>153</ele>
        <time>2019-09-15T14:49:26Z</time>
      </trkpt>
      <trkpt lat="48.77778" lon="2.09278">
        <ele>153</ele>
        <time>2019-09-15T14:49:30Z</time>
      </trkpt>
      <trkpt lat="48.7778" lon="2.09285">
        <ele>152</ele>
        <time>2019-09-15T14:49:34Z</time>
      </trkpt>
      <trkpt lat="48.77785" lon="2.09289">
        <ele>152</ele>
        <time>2019-09-15T14:49:38Z</time>
      </trkpt>
      <trkpt lat="48.7779" lon="2.093">
        <ele>151</ele>
        <time>2019-09-15T14:49:48Z</time>
      </trkpt>
      <trkpt lat="48.77798" lon="2.0931">
        <ele>151</ele>
        <time>2019-09-15T14:49:56Z</time>
      </trkpt>
      <trkpt lat="48.77806" lon="2.09317">
        <ele>150</ele>
        <time>2019-09-15T14:50:04Z</time>
      </trkpt>
      <trkpt lat="48.77813" lon="2.09327">
        <ele>150</ele>
        <time>2019-09-15T14:50:10Z</time>
      </trkpt>
      <trkpt lat="48.77827" lon="2.09338">
        <ele>148</ele>
        <time>2019-09-15T14:50:23Z</time>
      </trkpt>
      <trkpt lat="48.77832" lon="2.09351">
        <ele>147</ele>
        <time>2019-09-15T14:50:30Z</time>
      </trkpt>
      <trkpt lat="48.77841" lon="2.09362">
        <ele>146</ele>
        <time>2019-09-15T14:50:38Z</time>
      </trkpt>
      <trkpt lat="48.77844" lon="2.09368">
        <ele>146</ele>
        <time>2019-09-15T14:50:42Z</time>
      </trkpt>
      <trkpt lat="48.77846" lon="2.09375">
        <ele>145</ele>
        <time>2019-09-15T14:50:46Z</time>
      </trkpt>
      <trkpt lat="48.77849" lon="2.0938">
        <ele>145</ele>
        <time>2019-09-15T14:50:51Z</time>
      </trkpt>
      <trkpt lat="48.77858" lon="2.09384">
        <ele>142</ele>
        <time>2019-09-15T14:51:03Z</time>
      </trkpt>
      <trkpt lat="48.77873" lon="2.09393">
        <ele>141</ele>
        <time>2019-09-15T14:51:13Z</time>
      </trkpt>
      <trkpt lat="48.77882" lon="2.094">
        <ele>140</ele>
        <time>2019-09-15T14:51:20Z</time>
      </trkpt>
      <trkpt lat="48.77887" lon="2.09407">
        <ele>139</ele>
        <time>2019-09-15T14:51:27Z</time>
      </trkpt>
      <trkpt lat="48.77888" lon="2.09417">
        <ele>138</ele>
        <time>2019-09-15T14:51:30Z</time>
      </trkpt>
      <trkpt lat="48.77907" lon="2.09475">
        <ele>134</ele>
        <time>2019-09-15T14:52:01Z</time>
      </trkpt>
      <trkpt lat="48.7791" lon="2.09491">
        <ele>133</ele>
        <time>2019-09-15T14:52:10Z</time>
      </trkpt>
      <trkpt lat="48.77916" lon="2.09502">
        <ele>132</ele>
        <time>2019-09-15T14:52:17Z</time>
      </trkpt>
      <trkpt lat="48.77921" lon="2.09507">
        <ele>131</ele>
        <time>2019-09-15T14:52:25Z</time>
      </trkpt>
      <trkpt lat="48.77951" lon="2.0955">
        <ele>130</ele>
        <time>2019-09-15T14:53:06Z</time>
      </trkpt>
      <trkpt lat="48.77959" lon="2.09558">
        <ele>130</ele>
        <time>2019-09-15T14:53:17Z</time>
      </trkpt>
      <trkpt lat="48.77968" lon="2.09564">
        <ele>130</ele>
        <time>2019-09-15T14:53:25Z</time>
      </trkpt>
      <trkpt lat="48.77976" lon="2.09563">
        <ele>130</ele>
        <time>2019-09-15T14:53:31Z</time>
      </trkpt>
      <trkpt lat="48.77981" lon="2.0956">
        <ele>130</ele>
        <time>2019-09-15T14:53:36Z</time>
      </trkpt>
      <trkpt lat="48.77986" lon="2.09561">
        <ele>131</ele>
        <time>2019-09-15T14:53:41Z</time>
      </trkpt>
      <trkpt lat="48.77991" lon="2.09567">
        <ele>131</ele>
        <time>2019-09-15T14:53:47Z</time>
      </trkpt>
      <trkpt lat="48.78001" lon="2.09568">
        <ele>131</ele>
        <time>2019-09-15T14:53:55Z</time>
      </trkpt>
      <trkpt lat="48.7802" lon="2.0956">
        <ele>131</ele>
        <time>2019-09-15T14:54:13Z</time>
      </trkpt>
      <trkpt lat="48.78025" lon="2.0956">
        <ele>131</ele>
        <time>2019-09-15T14:54:17Z</time>
      </trkpt>
      <trkpt lat="48.7803" lon="2.09563">
        <ele>131</ele>
        <time>2019-09-15T14:54:22Z</time>
      </trkpt>
      <trkpt lat="48.78033" lon="2.09578">
        <ele>131</ele>
        <time>2019-09-15T14:54:30Z</time>
      </trkpt>
      <trkpt lat="48.78034" lon="2.09585">
        <ele>130</ele>
        <time>2019-09-15T14:54:34Z</time>
      </trkpt>
      <trkpt lat="48.78038" lon="2.0959">
        <ele>130</ele>
        <time>2019-09-15T14:54:52Z</time>
      </trkpt>
      <trkpt lat="48.78039" lon="2.09597">
        <ele>129</ele>
        <time>2019-09-15T14:55:13Z</time>
      </trkpt>
      <trkpt lat="48.78038" lon="2.09621">
        <ele>127</ele>
        <time>2019-09-15T14:55:33Z</time>
      </trkpt>
      <trkpt lat="48.78043" lon="2.09633">
        <ele>127</ele>
        <time>2019-09-15T14:55:37Z</time>
      </trkpt>
      <trkpt lat="48.7804" lon="2.0964">
        <ele>126</ele>
        <time>2019-09-15T14:55:40Z</time>
      </trkpt>
      <trkpt lat="48.78041" lon="2.09656">
        <ele>126</ele>
        <time>2019-09-15T14:55:47Z</time>
      </trkpt>
      <trkpt lat="48.78046" lon="2.0966">
        <ele>125</ele>
        <time>2019-09-15T14:55:54Z</time>
      </trkpt>
      <trkpt lat="48.78049" lon="2.09666">
        <ele>125</ele>
        <time>2019-09-15T14:55:58Z</time>
      </trkpt>
      <trkpt lat="48.78053" lon="2.0967">
        <ele>125</ele>
        <time>2019-09-15T14:56:02Z</time>
      </trkpt>
      <trkpt lat="48.7806" lon="2.09685">
        <ele>126</ele>
        <time>2019-09-15T14:56:16Z</time>
      </trkpt>
      <trkpt lat="48.78063" lon="2.097">
        <ele>127</ele>
        <time>2019-09-15T14:56:26Z</time>
      </trkpt>
      <trkpt lat="48.78068" lon="2.09713">
        <ele>127</ele>
        <time>2019-09-15T14:56:34Z</time>
      </trkpt>
      <trkpt lat="48.7807" lon="2.09764">
        <ele>126</ele>
        <time>2019-09-15T14:56:58Z</time>
      </trkpt>
      <trkpt lat="48.78069" lon="2.09772">
        <ele>126</ele>
        <time>2019-09-15T14:57:01Z</time>
      </trkpt>
      <trkpt lat="48.78069" lon="2.09779">
        <ele>126</ele>
        <time>2019-09-15T14:57:05Z</time>
      </trkpt>
      <trkpt lat="48.7807" lon="2.09796">
        <ele>126</ele>
        <time>2019-09-15T14:57:13Z</time>
      </trkpt>
      <trkpt lat="48.78073" lon="2.09803">
        <ele>127</ele>
        <time>2019-09-15T14:57:17Z</time>
      </trkpt>
      <trkpt lat="48.78071" lon="2.09816">
        <ele>127</ele>
        <time>2019-09-15T14:57:25Z</time>
      </trkpt>
      <trkpt lat="48.7807" lon="2.0984">
        <ele>127</ele>
        <time>2019-09-15T14:57:36Z</time>
      </trkpt>
      <trkpt lat="48.78068" lon="2.09848">
        <ele>127</ele>
        <time>2019-09-15T14:57:41Z</time>
      </trkpt>
      <trkpt lat="48.78061" lon="2.09859">
        <ele>127</ele>
        <time>2019-09-15T14:57:49Z</time>
      </trkpt>
      <trkpt lat="48.78056" lon="2.09873">
        <ele>126</ele>
        <time>2019-09-15T14:57:56Z</time>
      </trkpt>
      <trkpt lat="48.78047" lon="2.09884">
        <ele>125</ele>
        <time>2019-09-15T14:58:02Z</time>
      </trkpt>
      <trkpt lat="48.78034" lon="2.09894">
        <ele>124</ele>
        <time>2019-09-15T14:58:11Z</time>
      </trkpt>
      <trkpt lat="48.78028" lon="2.09895">
        <ele>123</ele>
        <time>2019-09-15T14:58:15Z</time>
      </trkpt>
      <trkpt lat="48.78019" lon="2.09902">
        <ele>123</ele>
        <time>2019-09-15T14:58:20Z</time>
      </trkpt>
      <trkpt lat="48.78012" lon="2.09909">
        <ele>123</ele>
        <time>2019-09-15T14:58:24Z</time>
      </trkpt>
      <trkpt lat="48.78002" lon="2.09915">
        <ele>122</ele>
        <time>2019-09-15T14:58:32Z</time>
      </trkpt>
      <trkpt lat="48.77996" lon="2.09918">
        <ele>122</ele>
        <time>2019-09-15T14:58:35Z</time>
      </trkpt>
      <trkpt lat="48.77984" lon="2.09917">
        <ele>123</ele>
        <time>2019-09-15T14:58:42Z</time>
      </trkpt>
      <trkpt lat="48.77978" lon="2.09915">
        <ele>122</ele>
        <time>2019-09-15T14:58:46Z</time>
      </trkpt>
      <trkpt lat="48.77972" lon="2.09916">
        <ele>122</ele>
        <time>2019-09-15T14:58:50Z</time>
      </trkpt>
      <trkpt lat="48.77968" lon="2.09919">
        <ele>122</ele>
        <time>2019-09-15T14:58:53Z</time>
      </trkpt>
      <trkpt lat="48.77963" lon="2.09917">
        <ele>122</ele>
        <time>2019-09-15T14:59:02Z</time>
      </trkpt>
      <trkpt lat="48.77945" lon="2.09908">
        <ele>121</ele>
        <time>2019-09-15T14:59:22Z</time>
      </trkpt>
      <trkpt lat="48.77942" lon="2.099">
        <ele>121</ele>
        <time>2019-09-15T14:59:26Z</time>
      </trkpt>
      <trkpt lat="48.77937" lon="2.09896">
        <ele>121</ele>
        <time>2019-09-15T14:59:31Z</time>
      </trkpt>
      <trkpt lat="48.77931" lon="2.099">
        <ele>121</ele>
        <time>2019-09-15T14:59:34Z</time>
      </trkpt>
      <trkpt lat="48.7792" lon="2.09899">
        <ele>120</ele>
        <time>2019-09-15T14:59:39Z</time>
      </trkpt>
      <trkpt lat="48.77915" lon="2.09896">
        <ele>120</ele>
        <time>2019-09-15T14:59:43Z</time>
      </trkpt>
      <trkpt lat="48.7791" lon="2.0989">
        <ele>120</ele>
        <time>2019-09-15T14:59:50Z</time>
      </trkpt>
      <trkpt lat="48.77904" lon="2.09888">
        <ele>120</ele>
        <time>2019-09-15T14:59:54Z</time>
      </trkpt>
      <trkpt lat="48.77895" lon="2.09886">
        <ele>120</ele>
        <time>2019-09-15T15:00:01Z</time>
      </trkpt>
      <trkpt lat="48.77891" lon="2.09881">
        <ele>120</ele>
        <time>2019-09-15T15:00:05Z</time>
      </trkpt>
      <trkpt lat="48.77883" lon="2.09874">
        <ele>120</ele>
        <time>2019-09-15T15:00:16Z</time>
      </trkpt>
      <trkpt lat="48.77879" lon="2.09869">
        <ele>120</ele>
        <time>2019-09-15T15:00:20Z</time>
      </trkpt>
      <trkpt lat="48.7786" lon="2.09873">
        <ele>120</ele>
        <time>2019-09-15T15:00:32Z</time>
      </trkpt>
      <trkpt lat="48.77847" lon="2.09888">
        <ele>120</ele>
        <time>2019-09-15T15:00:51Z</time>
      </trkpt>
      <trkpt lat="48.77841" lon="2.09897">
        <ele>120</ele>
        <time>2019-09-15T15:00:56Z</time>
      </trkpt>
      <trkpt lat="48.77838" lon="2.09903">
        <ele>120</ele>
        <time>2019-09-15T15:01:00Z</time>
      </trkpt>
      <trkpt lat="48.77828" lon="2.09919">
        <ele>120</ele>
        <time>2019-09-15T15:01:12Z</time>
      </trkpt>
      <trkpt lat="48.77828" lon="2.09927">
        <ele>121</ele>
        <time>2019-09-15T15:01:16Z</time>
      </trkpt>
      <trkpt lat="48.77826" lon="2.09934">
        <ele>121</ele>
        <time>2019-09-15T15:01:21Z</time>
      </trkpt>
      <trkpt lat="48.77827" lon="2.09941">
        <ele>121</ele>
        <time>2019-09-15T15:01:25Z</time>
      </trkpt>
      <trkpt lat="48.77824" lon="2.09955">
        <ele>120</ele>
        <time>2019-09-15T15:01:34Z</time>
      </trkpt>
      <trkpt lat="48.77822" lon="2.09962">
        <ele>120</ele>
        <time>2019-09-15T15:01:37Z</time>
      </trkpt>
      <trkpt lat="48.77818" lon="2.09967">
        <ele>120</ele>
        <time>2019-09-15T15:01:40Z</time>
      </trkpt>
      <trkpt lat="48.77818" lon="2.09974">
        <ele>120</ele>
        <time>2019-09-15T15:01:44Z</time>
      </trkpt>
      <trkpt lat="48.77813" lon="2.09993">
        <ele>120</ele>
        <time>2019-09-15T15:01:52Z</time>
      </trkpt>
      <trkpt lat="48.77809" lon="2.10008">
        <ele>120</ele>
        <time>2019-09-15T15:02:05Z</time>
      </trkpt>
      <trkpt lat="48.77806" lon="2.10016">
        <ele>120</ele>
        <time>2019-09-15T15:02:09Z</time>
      </trkpt>
      <trkpt lat="48.77794" lon="2.10026">
        <ele>119</ele>
        <time>2019-09-15T15:02:19Z</time>
      </trkpt>
      <trkpt lat="48.77785" lon="2.10026">
        <ele>119</ele>
        <time>2019-09-15T15:02:25Z</time>
      </trkpt>
      <trkpt lat="48.77774" lon="2.10031">
        <ele>119</ele>
        <time>2019-09-15T15:02:30Z</time>
      </trkpt>
      <trkpt lat="48.77768" lon="2.1003">
        <ele>119</ele>
        <time>2019-09-15T15:02:33Z</time>
      </trkpt>
      <trkpt lat="48.77751" lon="2.10032">
        <ele>119</ele>
        <time>2019-09-15T15:02:41Z</time>
      </trkpt>
      <trkpt lat="48.77743" lon="2.1003">
        <ele>119</ele>
        <time>2019-09-15T15:02:52Z</time>
      </trkpt>
      <trkpt lat="48.77737" lon="2.10032">
        <ele>119</ele>
        <time>2019-09-15T15:02:57Z</time>
      </trkpt>
      <trkpt lat="48.77733" lon="2.10035">
        <ele>119</ele>
        <time>2019-09-15T15:03:00Z</time>
      </trkpt>
      <trkpt lat="48.77728" lon="2.10035">
        <ele>119</ele>
        <time>2019-09-15T15:03:04Z</time>
      </trkpt>
      <trkpt lat="48.77716" lon="2.10038">
        <ele>119</ele>
        <time>2019-09-15T15:03:10Z</time>
      </trkpt>
      <trkpt lat="48.77706" lon="2.10036">
        <ele>119</ele>
        <time>2019-09-15T15:03:18Z</time>
      </trkpt>
      <trkpt lat="48.77696" lon="2.10039">
        <ele>119</ele>
        <time>2019-09-15T15:03:27Z</time>
      </trkpt>
      <trkpt lat="48.7768" lon="2.10026">
        <ele>118</ele>
        <time>2019-09-15T15:03:41Z</time>
      </trkpt>
      <trkpt lat="48.77676" lon="2.10028">
        <ele>118</ele>
        <time>2019-09-15T15:03:44Z</time>
      </trkpt>
      <trkpt lat="48.77667" lon="2.10024">
        <ele>118</ele>
        <time>2019-09-15T15:03:54Z</time>
      </trkpt>
      <trkpt lat="48.77662" lon="2.10027">
        <ele>118</ele>
        <time>2019-09-15T15:03:58Z</time>
      </trkpt>
      <trkpt lat="48.77652" lon="2.10028">
        <ele>118</ele>
        <time>2019-09-15T15:04:05Z</time>
      </trkpt>
      <trkpt lat="48.77644" lon="2.10041">
        <ele>119</ele>
        <time>2019-09-15T15:04:14Z</time>
      </trkpt>
      <trkpt lat="48.77641" lon="2.10053">
        <ele>119</ele>
        <time>2019-09-15T15:04:21Z</time>
      </trkpt>
      <trkpt lat="48.77634" lon="2.10067">
        <ele>119</ele>
        <time>2019-09-15T15:04:31Z</time>
      </trkpt>
      <trkpt lat="48.77631" lon="2.10072">
        <ele>119</ele>
        <time>2019-09-15T15:04:34Z</time>
      </trkpt>
      <trkpt lat="48.77626" lon="2.10087">
        <ele>119</ele>
        <time>2019-09-15T15:04:42Z</time>
      </trkpt>
      <trkpt lat="48.77626" lon="2.10095">
        <ele>119</ele>
        <time>2019-09-15T15:04:45Z</time>
      </trkpt>
      <trkpt lat="48.77627" lon="2.10102">
        <ele>119</ele>
        <time>2019-09-15T15:04:49Z</time>
      </trkpt>
      <trkpt lat="48.77636" lon="2.1013">
        <ele>119</ele>
        <time>2019-09-15T15:05:05Z</time>
      </trkpt>
      <trkpt lat="48.77635" lon="2.10138">
        <ele>119</ele>
        <time>2019-09-15T15:05:09Z</time>
      </trkpt>
      <trkpt lat="48.77632" lon="2.10153">
        <ele>119</ele>
        <time>2019-09-15T15:05:16Z</time>
      </trkpt>
      <trkpt lat="48.77621" lon="2.10182">
        <ele>119</ele>
        <time>2019-09-15T15:05:39Z</time>
      </trkpt>
      <trkpt lat="48.77617" lon="2.10197">
        <ele>119</ele>
        <time>2019-09-15T15:05:45Z</time>
      </trkpt>
      <trkpt lat="48.77617" lon="2.10206">
        <ele>119</ele>
        <time>2019-09-15T15:05:54Z</time>
      </trkpt>
      <trkpt lat="48.77615" lon="2.10213">
        <ele>119</ele>
        <time>2019-09-15T15:05:57Z</time>
      </trkpt>
      <trkpt lat="48.77614" lon="2.10245">
        <ele>119</ele>
        <time>2019-09-15T15:06:10Z</time>
      </trkpt>
      <trkpt lat="48.77617" lon="2.10259">
        <ele>119</ele>
        <time>2019-09-15T15:06:16Z</time>
      </trkpt>
      <trkpt lat="48.77616" lon="2.10267">
        <ele>119</ele>
        <time>2019-09-15T15:06:20Z</time>
      </trkpt>
      <trkpt lat="48.77619" lon="2.10279">
        <ele>119</ele>
        <time>2019-09-15T15:06:39Z</time>
      </trkpt>
      <trkpt lat="48.77622" lon="2.10292">
        <ele>119</ele>
        <time>2019-09-15T15:06:46Z</time>
      </trkpt>
      <trkpt lat="48.77634" lon="2.10296">
        <ele>119</ele>
        <time>2019-09-15T15:06:51Z</time>
      </trkpt>
      <trkpt lat="48.7764" lon="2.10306">
        <ele>119</ele>
        <time>2019-09-15T15:06:57Z</time>
      </trkpt>
      <trkpt lat="48.77635" lon="2.1036">
        <ele>119</ele>
        <time>2019-09-15T15:07:23Z</time>
      </trkpt>
      <trkpt lat="48.77637" lon="2.10366">
        <ele>119</ele>
        <time>2019-09-15T15:07:26Z</time>
      </trkpt>
      <trkpt lat="48.7764" lon="2.10372">
        <ele>119</ele>
        <time>2019-09-15T15:07:30Z</time>
      </trkpt>
      <trkpt lat="48.77639" lon="2.10388">
        <ele>120</ele>
        <time>2019-09-15T15:07:38Z</time>
      </trkpt>
      <trkpt lat="48.77637" lon="2.10397">
        <ele>120</ele>
        <time>2019-09-15T15:07:44Z</time>
      </trkpt>
      <trkpt lat="48.77636" lon="2.10415">
        <ele>119</ele>
        <time>2019-09-15T15:07:52Z</time>
      </trkpt>
      <trkpt lat="48.77638" lon="2.10425">
        <ele>120</ele>
        <time>2019-09-15T15:07:57Z</time>
      </trkpt>
      <trkpt lat="48.77634" lon="2.10433">
        <ele>120</ele>
        <time>2019-09-15T15:08:00Z</time>
      </trkpt>
      <trkpt lat="48.7763" lon="2.10437">
        <ele>120</ele>
        <time>2019-09-15T15:08:03Z</time>
      </trkpt>
      <trkpt lat="48.77617" lon="2.10492">
        <ele>120</ele>
        <time>2019-09-15T15:08:31Z</time>
      </trkpt>
      <trkpt lat="48.77616" lon="2.10507">
        <ele>120</ele>
        <time>2019-09-15T15:08:38Z</time>
      </trkpt>
      <trkpt lat="48.77609" lon="2.10527">
        <ele>120</ele>
        <time>2019-09-15T15:08:50Z</time>
      </trkpt>
      <trkpt lat="48.77607" lon="2.10549">
        <ele>120</ele>
        <time>2019-09-15T15:09:00Z</time>
      </trkpt>
      <trkpt lat="48.77603" lon="2.10557">
        <ele>120</ele>
        <time>2019-09-15T15:09:04Z</time>
      </trkpt>
      <trkpt lat="48.77592" lon="2.10566">
        <ele>120</ele>
        <time>2019-09-15T15:09:10Z</time>
      </trkpt>
      <trkpt lat="48.77595" lon="2.10575">
        <ele>120</ele>
        <time>2019-09-15T15:09:17Z</time>
      </trkpt>
      <trkpt lat="48.77595" lon="2.10584">
        <ele>120</ele>
        <time>2019-09-15T15:09:22Z</time>
      </trkpt>
      <trkpt lat="48.77573" lon="2.10628">
        <ele>119</ele>
        <time>2019-09-15T15:09:46Z</time>
      </trkpt>
      <trkpt lat="48.77566" lon="2.10635">
        <ele>119</ele>
        <time>2019-09-15T15:09:51Z</time>
      </trkpt>
      <trkpt lat="48.77563" lon="2.10649">
        <ele>119</ele>
        <time>2019-09-15T15:09:57Z</time>
      </trkpt>
      <trkpt lat="48.77559" lon="2.10655">
        <ele>119</ele>
        <time>2019-09-15T15:10:01Z</time>
      </trkpt>
      <trkpt lat="48.77555" lon="2.10658">
        <ele>119</ele>
        <time>2019-09-15T15:10:06Z</time>
      </trkpt>
      <trkpt lat="48.77547" lon="2.1067">
        <ele>120</ele>
        <time>2019-09-15T15:10:14Z</time>
      </trkpt>
      <trkpt lat="48.77549" lon="2.10682">
        <ele>120</ele>
        <time>2019-09-15T15:10:23Z</time>
      </trkpt>
      <trkpt lat="48.77547" lon="2.10689">
        <ele>120</ele>
        <time>2019-09-15T15:10:27Z</time>
      </trkpt>
      <trkpt lat="48.7755" lon="2.10695">
        <ele>121</ele>
        <time>2019-09-15T15:10:31Z</time>
      </trkpt>
      <trkpt lat="48.77554" lon="2.107">
        <ele>121</ele>
        <time>2019-09-15T15:10:36Z</time>
      </trkpt>
      <trkpt lat="48.7757" lon="2.10738">
        <ele>121</ele>
        <time>2019-09-15T15:10:59Z</time>
      </trkpt>
      <trkpt lat="48.77571" lon="2.10745">
        <ele>121</ele>
        <time>2019-09-15T15:11:03Z</time>
      </trkpt>
      <trkpt lat="48.77572" lon="2.10761">
        <ele>121</ele>
        <time>2019-09-15T15:11:11Z</time>
      </trkpt>
      <trkpt lat="48.77576" lon="2.10777">
        <ele>120</ele>
        <time>2019-09-15T15:11:24Z</time>
      </trkpt>
      <trkpt lat="48.77579" lon="2.10783">
        <ele>121</ele>
        <time>2019-09-15T15:11:30Z</time>
      </trkpt>
      <trkpt lat="48.77579" lon="2.10794">
        <ele>120</ele>
        <time>2019-09-15T15:11:38Z</time>
      </trkpt>
      <trkpt lat="48.77589" lon="2.10827">
        <ele>119</ele>
        <time>2019-09-15T15:11:56Z</time>
      </trkpt>
      <trkpt lat="48.77609" lon="2.10866">
        <ele>119</ele>
        <time>2019-09-15T15:12:19Z</time>
      </trkpt>
      <trkpt lat="48.7761" lon="2.10877">
        <ele>119</ele>
        <time>2019-09-15T15:12:26Z</time>
      </trkpt>
      <trkpt lat="48.77612" lon="2.10884">
        <ele>119</ele>
        <time>2019-09-15T15:12:30Z</time>
      </trkpt>
      <trkpt lat="48.7762" lon="2.10894">
        <ele>119</ele>
        <time>2019-09-15T15:12:36Z</time>
      </trkpt>
      <trkpt lat="48.77624" lon="2.10898">
        <ele>119</ele>
        <time>2019-09-15T15:12:40Z</time>
      </trkpt>
      <trkpt lat="48.77635" lon="2.10918">
        <ele>119</ele>
        <time>2019-09-15T15:12:50Z</time>
      </trkpt>
      <trkpt lat="48.77636" lon="2.10926">
        <ele>119</ele>
        <time>2019-09-15T15:12:54Z</time>
      </trkpt>
      <trkpt lat="48.77639" lon="2.10932">
        <ele>119</ele>
        <time>2019-09-15T15:12:58Z</time>
      </trkpt>
      <trkpt lat="48.77646" lon="2.10944">
        <ele>119</ele>
        <time>2019-09-15T15:13:04Z</time>
      </trkpt>
      <trkpt lat="48.77649" lon="2.10952">
        <ele>119</ele>
        <time>2019-09-15T15:13:08Z</time>
      </trkpt>
      <trkpt lat="48.77655" lon="2.10956">
        <ele>118</ele>
        <time>2019-09-15T15:13:12Z</time>
      </trkpt>
      <trkpt lat="48.77658" lon="2.10962">
        <ele>118</ele>
        <time>2019-09-15T15:13:16Z</time>
      </trkpt>
      <trkpt lat="48.7766" lon="2.10971">
        <ele>118</ele>
        <time>2019-09-15T15:13:21Z</time>
      </trkpt>
      <trkpt lat="48.77668" lon="2.10981">
        <ele>118</ele>
        <time>2019-09-15T15:13:29Z</time>
      </trkpt>
      <trkpt lat="48.77676" lon="2.10988">
        <ele>118</ele>
        <time>2019-09-15T15:13:35Z</time>
      </trkpt>
      <trkpt lat="48.77679" lon="2.10995">
        <ele>118</ele>
        <time>2019-09-15T15:13:39Z</time>
      </trkpt>
      <trkpt lat="48.7768" lon="2.11011">
        <ele>118</ele>
        <time>2019-09-15T15:13:46Z</time>
      </trkpt>
      <trkpt lat="48.77686" lon="2.11027">
        <ele>118</ele>
        <time>2019-09-15T15:13:55Z</time>
      </trkpt>
      <trkpt lat="48.7769" lon="2.1105">
        <ele>118</ele>
        <time>2019-09-15T15:14:05Z</time>
      </trkpt>
      <trkpt lat="48.77698" lon="2.11061">
        <ele>117</ele>
        <time>2019-09-15T15:14:12Z</time>
      </trkpt>
      <trkpt lat="48.77699" lon="2.11068">
        <ele>117</ele>
        <time>2019-09-15T15:14:15Z</time>
      </trkpt>
      <trkpt lat="48.77698" lon="2.11076">
        <ele>117</ele>
        <time>2019-09-15T15:14:19Z</time>
      </trkpt>
      <trkpt lat="48.777" lon="2.11098">
        <ele>117</ele>
        <time>2019-09-15T15:14:30Z</time>
      </trkpt>
      <trkpt lat="48.77711" lon="2.11126">
        <ele>117</ele>
        <time>2019-09-15T15:14:45Z</time>
      </trkpt>
      <trkpt lat="48.77712" lon="2.11133">
        <ele>117</ele>
        <time>2019-09-15T15:14:50Z</time>
      </trkpt>
      <trkpt lat="48.77711" lon="2.11141">
        <ele>117</ele>
        <time>2019-09-15T15:14:54Z</time>
      </trkpt>
      <trkpt lat="48.77712" lon="2.11154">
        <ele>118</ele>
        <time>2019-09-15T15:15:01Z</time>
      </trkpt>
      <trkpt lat="48.77721" lon="2.1118">
        <ele>117</ele>
        <time>2019-09-15T15:15:14Z</time>
      </trkpt>
      <trkpt lat="48.77721" lon="2.11204">
        <ele>117</ele>
        <time>2019-09-15T15:15:26Z</time>
      </trkpt>
      <trkpt lat="48.77719" lon="2.11235">
        <ele>117</ele>
        <time>2019-09-15T15:15:41Z</time>
      </trkpt>
      <trkpt lat="48.77722" lon="2.11259">
        <ele>118</ele>
        <time>2019-09-15T15:15:52Z</time>
      </trkpt>
      <trkpt lat="48.77723" lon="2.11274">
        <ele>117</ele>
        <time>2019-09-15T15:16:00Z</time>
      </trkpt>
      <trkpt lat="48.77718" lon="2.1129">
        <ele>117</ele>
        <time>2019-09-15T15:16:06Z</time>
      </trkpt>
      <trkpt lat="48.77711" lon="2.11304">
        <ele>117</ele>
        <time>2019-09-15T15:16:12Z</time>
      </trkpt>
      <trkpt lat="48.77706" lon="2.11317">
        <ele>117</ele>
        <time>2019-09-15T15:16:18Z</time>
      </trkpt>
      <trkpt lat="48.77704" lon="2.11334">
        <ele>117</ele>
        <time>2019-09-15T15:16:25Z</time>
      </trkpt>
      <trkpt lat="48.77702" lon="2.11342">
        <ele>117</ele>
        <time>2019-09-15T15:16:28Z</time>
      </trkpt>
      <trkpt lat="48.77699" lon="2.11364">
        <ele>116</ele>
        <time>2019-09-15T15:16:38Z</time>
      </trkpt>
      <trkpt lat="48.77703" lon="2.11378">
        <ele>116</ele>
        <time>2019-09-15T15:16:45Z</time>
      </trkpt>
      <trkpt lat="48.77707" lon="2.11383">
        <ele>116</ele>
        <time>2019-09-15T15:16:50Z</time>
      </trkpt>
      <trkpt lat="48.77713" lon="2.11385">
        <ele>116</ele>
        <time>2019-09-15T15:16:53Z</time>
      </trkpt>
      <trkpt lat="48.77715" lon="2.11391">
        <ele>116</ele>
        <time>2019-09-15T15:16:57Z</time>
      </trkpt>
      <trkpt lat="48.77709" lon="2.11407">
        <ele>116</ele>
        <time>2019-09-15T15:17:04Z</time>
      </trkpt>
      <trkpt lat="48.77706" lon="2.11413">
        <ele>116</ele>
        <time>2019-09-15T15:17:07Z</time>
      </trkpt>
      <trkpt lat="48.77702" lon="2.11417">
        <ele>116</ele>
        <time>2019-09-15T15:17:10Z</time>
      </trkpt>
      <trkpt lat="48.77696" lon="2.11433">
        <ele>116</ele>
        <time>2019-09-15T15:17:18Z</time>
      </trkpt>
      <trkpt lat="48.77695" lon="2.11448">
        <ele>116</ele>
        <time>2019-09-15T15:17:27Z</time>
      </trkpt>
      <trkpt lat="48.77694" lon="2.11463">
        <ele>116</ele>
        <time>2019-09-15T15:17:35Z</time>
      </trkpt>
      <trkpt lat="48.77692" lon="2.11469">
        <ele>116</ele>
        <time>2019-09-15T15:17:38Z</time>
      </trkpt>
      <trkpt lat="48.77691" lon="2.11477">
        <ele>116</ele>
        <time>2019-09-15T15:17:43Z</time>
      </trkpt>
      <trkpt lat="48.77692" lon="2.11493">
        <ele>116</ele>
        <time>2019-09-15T15:17:52Z</time>
      </trkpt>
      <trkpt lat="48.77692" lon="2.115">
        <ele>116</ele>
        <time>2019-09-15T15:17:55Z</time>
      </trkpt>
      <trkpt lat="48.77689" lon="2.11508">
        <ele>116</ele>
        <time>2019-09-15T15:17:58Z</time>
      </trkpt>
      <trkpt lat="48.77689" lon="2.11515">
        <ele>116</ele>
        <time>2019-09-15T15:18:02Z</time>
      </trkpt>
      <trkpt lat="48.77692" lon="2.11522">
        <ele>116</ele>
        <time>2019-09-15T15:18:06Z</time>
      </trkpt>
      <trkpt lat="48.77696" lon="2.11528">
        <ele>116</ele>
        <time>2019-09-15T15:18:10Z</time>
      </trkpt>
      <trkpt lat="48.777" lon="2.11532">
        <ele>116</ele>
        <time>2019-09-15T15:18:14Z</time>
      </trkpt>
      <trkpt lat="48.77704" lon="2.11541">
        <ele>116</ele>
        <time>2019-09-15T15:18:20Z</time>
      </trkpt>
      <trkpt lat="48.77708" lon="2.11547">
        <ele>116</ele>
        <time>2019-09-15T15:18:24Z</time>
      </trkpt>
      <trkpt lat="48.77714" lon="2.11568">
        <ele>116</ele>
        <time>2019-09-15T15:18:35Z</time>
      </trkpt>
      <trkpt lat="48.77723" lon="2.11577">
        <ele>116</ele>
        <time>2019-09-15T15:18:43Z</time>
      </trkpt>
      <trkpt lat="48.77726" lon="2.11585">
        <ele>116</ele>
        <time>2019-09-15T15:18:47Z</time>
      </trkpt>
      <trkpt lat="48.77731" lon="2.11589">
        <ele>116</ele>
        <time>2019-09-15T15:18:50Z</time>
      </trkpt>
      <trkpt lat="48.77734" lon="2.11595">
        <ele>116</ele>
        <time>2019-09-15T15:18:54Z</time>
      </trkpt>
      <trkpt lat="48.77736" lon="2.1161">
        <ele>116</ele>
        <time>2019-09-15T15:19:03Z</time>
      </trkpt>
      <trkpt lat="48.7774" lon="2.11616">
        <ele>116</ele>
        <time>2019-09-15T15:19:07Z</time>
      </trkpt>
      <trkpt lat="48.77744" lon="2.1162">
        <ele>116</ele>
        <time>2019-09-15T15:19:10Z</time>
      </trkpt>
      <trkpt lat="48.77747" lon="2.11626">
        <ele>116</ele>
        <time>2019-09-15T15:19:14Z</time>
      </trkpt>
      <trkpt lat="48.77748" lon="2.11634">
        <ele>116</ele>
        <time>2019-09-15T15:19:18Z</time>
      </trkpt>
      <trkpt lat="48.77746" lon="2.11641">
        <ele>116</ele>
        <time>2019-09-15T15:19:21Z</time>
      </trkpt>
      <trkpt lat="48.77743" lon="2.11656">
        <ele>116</ele>
        <time>2019-09-15T15:19:28Z</time>
      </trkpt>
      <trkpt lat="48.77741" lon="2.11664">
        <ele>116</ele>
        <time>2019-09-15T15:19:32Z</time>
      </trkpt>
      <trkpt lat="48.77739" lon="2.11703">
        <ele>117</ele>
        <time>2019-09-15T15:19:53Z</time>
      </trkpt>
      <trkpt lat="48.77739" lon="2.11717">
        <ele>117</ele>
        <time>2019-09-15T15:20:01Z</time>
      </trkpt>
      <trkpt lat="48.77738" lon="2.11725">
        <ele>117</ele>
        <time>2019-09-15T15:20:05Z</time>
      </trkpt>
      <trkpt lat="48.77743" lon="2.11747">
        <ele>117</ele>
        <time>2019-09-15T15:20:17Z</time>
      </trkpt>
      <trkpt lat="48.77744" lon="2.11755">
        <ele>117</ele>
        <time>2019-09-15T15:20:22Z</time>
      </trkpt>
      <trkpt lat="48.7774" lon="2.1176">
        <ele>117</ele>
        <time>2019-09-15T15:20:30Z</time>
      </trkpt>
      <trkpt lat="48.77726" lon="2.11767">
        <ele>116</ele>
        <time>2019-09-15T15:20:44Z</time>
      </trkpt>
      <trkpt lat="48.77682" lon="2.11777">
        <ele>116</ele>
        <time>2019-09-15T15:21:17Z</time>
      </trkpt>
      <trkpt lat="48.77671" lon="2.11774">
        <ele>116</ele>
        <time>2019-09-15T15:21:26Z</time>
      </trkpt>
      <trkpt lat="48.7766" lon="2.11769">
        <ele>116</ele>
        <time>2019-09-15T15:21:36Z</time>
      </trkpt>
      <trkpt lat="48.77655" lon="2.11768">
        <ele>116</ele>
        <time>2019-09-15T15:21:41Z</time>
      </trkpt>
      <trkpt lat="48.77644" lon="2.1176">
        <ele>116</ele>
        <time>2019-09-15T15:21:54Z</time>
      </trkpt>
      <trkpt lat="48.77639" lon="2.11759">
        <ele>116</ele>
        <time>2019-09-15T15:21:58Z</time>
      </trkpt>
      <trkpt lat="48.77634" lon="2.11761">
        <ele>117</ele>
        <time>2019-09-15T15:22:01Z</time>
      </trkpt>
      <trkpt lat="48.7763" lon="2.11765">
        <ele>117</ele>
        <time>2019-09-15T15:22:06Z</time>
      </trkpt>
      <trkpt lat="48.77621" lon="2.11782">
        <ele>119</ele>
        <time>2019-09-15T15:22:21Z</time>
      </trkpt>
      <trkpt lat="48.7759" lon="2.1181">
        <ele>122</ele>
        <time>2019-09-15T15:22:51Z</time>
      </trkpt>
      <trkpt lat="48.77575" lon="2.11819">
        <ele>123</ele>
        <time>2019-09-15T15:23:02Z</time>
      </trkpt>
      <trkpt lat="48.77545" lon="2.11823">
        <ele>125</ele>
        <time>2019-09-15T15:23:24Z</time>
      </trkpt>
      <trkpt lat="48.7752" lon="2.11841">
        <ele>126</ele>
        <time>2019-09-15T15:23:46Z</time>
      </trkpt>
      <trkpt lat="48.77515" lon="2.11841">
        <ele>126</ele>
        <time>2019-09-15T15:23:50Z</time>
      </trkpt>
      <trkpt lat="48.7751" lon="2.11843">
        <ele>127</ele>
        <time>2019-09-15T15:23:58Z</time>
      </trkpt>
      <trkpt lat="48.77506" lon="2.11846">
        <ele>127</ele>
        <time>2019-09-15T15:24:03Z</time>
      </trkpt>
      <trkpt lat="48.775" lon="2.11854">
        <ele>128</ele>
        <time>2019-09-15T15:24:10Z</time>
      </trkpt>
      <trkpt lat="48.77497" lon="2.11867">
        <ele>127</ele>
        <time>2019-09-15T15:24:19Z</time>
      </trkpt>
      <trkpt lat="48.77495" lon="2.11873">
        <ele>127</ele>
        <time>2019-09-15T15:24:23Z</time>
      </trkpt>
      <trkpt lat="48.77492" lon="2.11879">
        <ele>127</ele>
        <time>2019-09-15T15:24:27Z</time>
      </trkpt>
      <trkpt lat="48.77485" lon="2.11873">
        <ele>127</ele>
        <time>2019-09-15T15:24:33Z</time>
      </trkpt>
      <trkpt lat="48.77485" lon="2.11867">
        <ele>127</ele>
        <time>2019-09-15T15:24:44Z</time>
      </trkpt>
      <trkpt lat="48.77493" lon="2.11862">
        <ele>127</ele>
        <time>2019-09-15T15:25:07Z</time>
      </trkpt>
      <trkpt lat="48.77494" lon="2.11863">
        <ele>126</ele>
        <time>2019-09-15T15:25:49Z</time>
      </trkpt>
      <trkpt lat="48.77494" lon="2.11863">
        <ele>126</ele>
        <time>2019-09-15T15:25:49Z</time>
      </trkpt>
      <trkpt lat="48.77485" lon="2.11869">
        <ele>124</ele>
        <time>2019-09-15T15:38:25Z</time>
      </trkpt>
      <trkpt lat="48.77482" lon="2.11858">
        <ele>124</ele>
        <time>2019-09-15T15:39:32Z</time>
      </trkpt>
      <trkpt lat="48.77486" lon="2.11842">
        <ele>124</ele>
        <time>2019-09-15T15:39:40Z</time>
      </trkpt>
      <trkpt lat="48.77485" lon="2.11835">
        <ele>124</ele>
        <time>2019-09-15T15:39:45Z</time>
      </trkpt>
      <trkpt lat="48.77487" lon="2.11827">
        <ele>124</ele>
        <time>2019-09-15T15:39:49Z</time>
      </trkpt>
      <trkpt lat="48.77489" lon="2.11821">
        <ele>124</ele>
        <time>2019-09-15T15:39:53Z</time>
      </trkpt>
      <trkpt lat="48.77492" lon="2.11804">
        <ele>124</ele>
        <time>2019-09-15T15:40:01Z</time>
      </trkpt>
      <trkpt lat="48.77495" lon="2.11795">
        <ele>125</ele>
        <time>2019-09-15T15:40:07Z</time>
      </trkpt>
      <trkpt lat="48.77499" lon="2.11791">
        <ele>125</ele>
        <time>2019-09-15T15:40:11Z</time>
      </trkpt>
      <trkpt lat="48.77502" lon="2.11784">
        <ele>125</ele>
        <time>2019-09-15T15:40:15Z</time>
      </trkpt>
      <trkpt lat="48.77506" lon="2.11781">
        <ele>125</ele>
        <time>2019-09-15T15:40:19Z</time>
      </trkpt>
      <trkpt lat="48.77513" lon="2.11749">
        <ele>125</ele>
        <time>2019-09-15T15:40:39Z</time>
      </trkpt>
      <trkpt lat="48.77514" lon="2.11735">
        <ele>125</ele>
        <time>2019-09-15T15:40:47Z</time>
      </trkpt>
      <trkpt lat="48.77521" lon="2.11707">
        <ele>124</ele>
        <time>2019-09-15T15:41:03Z</time>
      </trkpt>
      <trkpt lat="48.77527" lon="2.11698">
        <ele>123</ele>
        <time>2019-09-15T15:41:13Z</time>
      </trkpt>
      <trkpt lat="48.77534" lon="2.11683">
        <ele>122</ele>
        <time>2019-09-15T15:41:24Z</time>
      </trkpt>
      <trkpt lat="48.77537" lon="2.11656">
        <ele>123</ele>
        <time>2019-09-15T15:41:38Z</time>
      </trkpt>
      <trkpt lat="48.77537" lon="2.11627">
        <ele>122</ele>
        <time>2019-09-15T15:41:55Z</time>
      </trkpt>
      <trkpt lat="48.77535" lon="2.11612">
        <ele>122</ele>
        <time>2019-09-15T15:42:01Z</time>
      </trkpt>
      <trkpt lat="48.77537" lon="2.11599">
        <ele>122</ele>
        <time>2019-09-15T15:42:07Z</time>
      </trkpt>
      <trkpt lat="48.77535" lon="2.11584">
        <ele>122</ele>
        <time>2019-09-15T15:42:16Z</time>
      </trkpt>
      <trkpt lat="48.77537" lon="2.11569">
        <ele>122</ele>
        <time>2019-09-15T15:42:24Z</time>
      </trkpt>
      <trkpt lat="48.77532" lon="2.11556">
        <ele>122</ele>
        <time>2019-09-15T15:42:30Z</time>
      </trkpt>
      <trkpt lat="48.77528" lon="2.11527">
        <ele>122</ele>
        <time>2019-09-15T15:42:46Z</time>
      </trkpt>
      <trkpt lat="48.77523" lon="2.11499">
        <ele>121</ele>
        <time>2019-09-15T15:43:03Z</time>
      </trkpt>
      <trkpt lat="48.77518" lon="2.11485">
        <ele>120</ele>
        <time>2019-09-15T15:43:10Z</time>
      </trkpt>
      <trkpt lat="48.77516" lon="2.11471">
        <ele>120</ele>
        <time>2019-09-15T15:43:17Z</time>
      </trkpt>
      <trkpt lat="48.77516" lon="2.11457">
        <ele>121</ele>
        <time>2019-09-15T15:43:24Z</time>
      </trkpt>
      <trkpt lat="48.77512" lon="2.11442">
        <ele>121</ele>
        <time>2019-09-15T15:43:30Z</time>
      </trkpt>
      <trkpt lat="48.77508" lon="2.11418">
        <ele>122</ele>
        <time>2019-09-15T15:43:46Z</time>
      </trkpt>
      <trkpt lat="48.77506" lon="2.11404">
        <ele>122</ele>
        <time>2019-09-15T15:43:56Z</time>
      </trkpt>
      <trkpt lat="48.77501" lon="2.11344">
        <ele>122</ele>
        <time>2019-09-15T15:44:30Z</time>
      </trkpt>
      <trkpt lat="48.77501" lon="2.11329">
        <ele>122</ele>
        <time>2019-09-15T15:44:37Z</time>
      </trkpt>
      <trkpt lat="48.77501" lon="2.11315">
        <ele>123</ele>
        <time>2019-09-15T15:44:46Z</time>
      </trkpt>
      <trkpt lat="48.77495" lon="2.11277">
        <ele>126</ele>
        <time>2019-09-15T15:45:08Z</time>
      </trkpt>
      <trkpt lat="48.77482" lon="2.11237">
        <ele>128</ele>
        <time>2019-09-15T15:45:33Z</time>
      </trkpt>
      <trkpt lat="48.77484" lon="2.11191">
        <ele>129</ele>
        <time>2019-09-15T15:45:58Z</time>
      </trkpt>
      <trkpt lat="48.77481" lon="2.11181">
        <ele>129</ele>
        <time>2019-09-15T15:46:03Z</time>
      </trkpt>
      <trkpt lat="48.77481" lon="2.11174">
        <ele>129</ele>
        <time>2019-09-15T15:46:07Z</time>
      </trkpt>
      <trkpt lat="48.7748" lon="2.11167">
        <ele>129</ele>
        <time>2019-09-15T15:46:12Z</time>
      </trkpt>
      <trkpt lat="48.77467" lon="2.11125">
        <ele>123</ele>
        <time>2019-09-15T15:46:45Z</time>
      </trkpt>
      <trkpt lat="48.77464" lon="2.11118">
        <ele>122</ele>
        <time>2019-09-15T15:46:50Z</time>
      </trkpt>
      <trkpt lat="48.77464" lon="2.11106">
        <ele>119</ele>
        <time>2019-09-15T15:47:01Z</time>
      </trkpt>
      <trkpt lat="48.77462" lon="2.111">
        <ele>118</ele>
        <time>2019-09-15T15:47:07Z</time>
      </trkpt>
      <trkpt lat="48.77462" lon="2.11093">
        <ele>117</ele>
        <time>2019-09-15T15:47:11Z</time>
      </trkpt>
      <trkpt lat="48.77459" lon="2.11087">
        <ele>116</ele>
        <time>2019-09-15T15:47:15Z</time>
      </trkpt>
      <trkpt lat="48.77454" lon="2.11083">
        <ele>115</ele>
        <time>2019-09-15T15:47:18Z</time>
      </trkpt>
      <trkpt lat="48.77457" lon="2.11074">
        <ele>114</ele>
        <time>2019-09-15T15:47:22Z</time>
      </trkpt>
      <trkpt lat="48.77471" lon="2.11061">
        <ele>113</ele>
        <time>2019-09-15T15:47:30Z</time>
      </trkpt>
      <trkpt lat="48.77477" lon="2.11058">
        <ele>113</ele>
        <time>2019-09-15T15:47:33Z</time>
      </trkpt>
      <trkpt lat="48.77483" lon="2.11057">
        <ele>113</ele>
        <time>2019-09-15T15:47:37Z</time>
      </trkpt>
      <trkpt lat="48.77503" lon="2.11047">
        <ele>112</ele>
        <time>2019-09-15T15:47:49Z</time>
      </trkpt>
      <trkpt lat="48.77507" lon="2.11043">
        <ele>112</ele>
        <time>2019-09-15T15:47:52Z</time>
      </trkpt>
      <trkpt lat="48.77532" lon="2.10987">
        <ele>111</ele>
        <time>2019-09-15T15:48:27Z</time>
      </trkpt>
      <trkpt lat="48.77536" lon="2.10964">
        <ele>111</ele>
        <time>2019-09-15T15:48:44Z</time>
      </trkpt>
      <trkpt lat="48.77539" lon="2.10958">
        <ele>111</ele>
        <time>2019-09-15T15:48:49Z</time>
      </trkpt>
      <trkpt lat="48.77541" lon="2.10941">
        <ele>111</ele>
        <time>2019-09-15T15:48:58Z</time>
      </trkpt>
      <trkpt lat="48.77544" lon="2.10927">
        <ele>111</ele>
        <time>2019-09-15T15:49:05Z</time>
      </trkpt>
      <trkpt lat="48.77541" lon="2.10922">
        <ele>111</ele>
        <time>2019-09-15T15:49:09Z</time>
      </trkpt>
      <trkpt lat="48.77523" lon="2.10923">
        <ele>112</ele>
        <time>2019-09-15T15:49:28Z</time>
      </trkpt>
      <trkpt lat="48.77519" lon="2.10926">
        <ele>112</ele>
        <time>2019-09-15T15:49:32Z</time>
      </trkpt>
      <trkpt lat="48.77512" lon="2.10917">
        <ele>112</ele>
        <time>2019-09-15T15:49:43Z</time>
      </trkpt>
      <trkpt lat="48.77508" lon="2.10924">
        <ele>112</ele>
        <time>2019-09-15T15:49:54Z</time>
      </trkpt>
      <trkpt lat="48.77464" lon="2.10926">
        <ele>111</ele>
        <time>2019-09-15T15:50:25Z</time>
      </trkpt>
      <trkpt lat="48.77447" lon="2.10907">
        <ele>111</ele>
        <time>2019-09-15T15:50:43Z</time>
      </trkpt>
      <trkpt lat="48.77443" lon="2.10893">
        <ele>111</ele>
        <time>2019-09-15T15:50:50Z</time>
      </trkpt>
      <trkpt lat="48.77445" lon="2.10884">
        <ele>111</ele>
        <time>2019-09-15T15:50:56Z</time>
      </trkpt>
      <trkpt lat="48.77448" lon="2.10878">
        <ele>111</ele>
        <time>2019-09-15T15:50:59Z</time>
      </trkpt>
      <trkpt lat="48.7745" lon="2.10869">
        <ele>111</ele>
        <time>2019-09-15T15:51:03Z</time>
      </trkpt>
      <trkpt lat="48.77446" lon="2.10802">
        <ele>111</ele>
        <time>2019-09-15T15:51:35Z</time>
      </trkpt>
      <trkpt lat="48.77444" lon="2.10793">
        <ele>111</ele>
        <time>2019-09-15T15:51:42Z</time>
      </trkpt>
      <trkpt lat="48.77444" lon="2.10786">
        <ele>111</ele>
        <time>2019-09-15T15:51:46Z</time>
      </trkpt>
      <trkpt lat="48.77443" lon="2.10776">
        <ele>111</ele>
        <time>2019-09-15T15:51:53Z</time>
      </trkpt>
      <trkpt lat="48.7744" lon="2.1077">
        <ele>111</ele>
        <time>2019-09-15T15:51:56Z</time>
      </trkpt>
      <trkpt lat="48.77438" lon="2.10763">
        <ele>111</ele>
        <time>2019-09-15T15:52:01Z</time>
      </trkpt>
      <trkpt lat="48.7744" lon="2.10755">
        <ele>110</ele>
        <time>2019-09-15T15:52:05Z</time>
      </trkpt>
      <trkpt lat="48.77442" lon="2.10739">
        <ele>111</ele>
        <time>2019-09-15T15:52:13Z</time>
      </trkpt>
      <trkpt lat="48.77442" lon="2.10731">
        <ele>110</ele>
        <time>2019-09-15T15:52:18Z</time>
      </trkpt>
      <trkpt lat="48.77445" lon="2.10724">
        <ele>111</ele>
        <time>2019-09-15T15:52:23Z</time>
      </trkpt>
      <trkpt lat="48.77457" lon="2.10684">
        <ele>111</ele>
        <time>2019-09-15T15:52:46Z</time>
      </trkpt>
      <trkpt lat="48.77461" lon="2.10676">
        <ele>111</ele>
        <time>2019-09-15T15:52:50Z</time>
      </trkpt>
      <trkpt lat="48.77457" lon="2.10667">
        <ele>112</ele>
        <time>2019-09-15T15:52:59Z</time>
      </trkpt>
      <trkpt lat="48.77454" lon="2.10661">
        <ele>112</ele>
        <time>2019-09-15T15:53:07Z</time>
      </trkpt>
      <trkpt lat="48.7742" lon="2.10635">
        <ele>114</ele>
        <time>2019-09-15T15:53:39Z</time>
      </trkpt>
      <trkpt lat="48.77417" lon="2.10629">
        <ele>114</ele>
        <time>2019-09-15T15:53:44Z</time>
      </trkpt>
      <trkpt lat="48.77409" lon="2.10622">
        <ele>115</ele>
        <time>2019-09-15T15:53:52Z</time>
      </trkpt>
      <trkpt lat="48.77406" lon="2.10615">
        <ele>115</ele>
        <time>2019-09-15T15:53:56Z</time>
      </trkpt>
      <trkpt lat="48.77399" lon="2.10606">
        <ele>116</ele>
        <time>2019-09-15T15:54:04Z</time>
      </trkpt>
      <trkpt lat="48.77395" lon="2.10603">
        <ele>116</ele>
        <time>2019-09-15T15:54:08Z</time>
      </trkpt>
      <trkpt lat="48.77386" lon="2.10588">
        <ele>117</ele>
        <time>2019-09-15T15:54:21Z</time>
      </trkpt>
      <trkpt lat="48.77381" lon="2.10583">
        <ele>118</ele>
        <time>2019-09-15T15:54:26Z</time>
      </trkpt>
      <trkpt lat="48.77373" lon="2.10574">
        <ele>118</ele>
        <time>2019-09-15T15:54:34Z</time>
      </trkpt>
      <trkpt lat="48.77363" lon="2.10568">
        <ele>119</ele>
        <time>2019-09-15T15:54:44Z</time>
      </trkpt>
      <trkpt lat="48.77333" lon="2.1053">
        <ele>123</ele>
        <time>2019-09-15T15:55:18Z</time>
      </trkpt>
      <trkpt lat="48.77316" lon="2.10508">
        <ele>124</ele>
        <time>2019-09-15T15:55:36Z</time>
      </trkpt>
      <trkpt lat="48.77311" lon="2.10504">
        <ele>125</ele>
        <time>2019-09-15T15:55:40Z</time>
      </trkpt>
      <trkpt lat="48.77308" lon="2.105">
        <ele>125</ele>
        <time>2019-09-15T15:55:44Z</time>
      </trkpt>
      <trkpt lat="48.77291" lon="2.10486">
        <ele>127</ele>
        <time>2019-09-15T15:56:02Z</time>
      </trkpt>
      <trkpt lat="48.77275" lon="2.10467">
        <ele>129</ele>
        <time>2019-09-15T15:56:18Z</time>
      </trkpt>
      <trkpt lat="48.77245" lon="2.10431">
        <ele>133</ele>
        <time>2019-09-15T15:56:51Z</time>
      </trkpt>
      <trkpt lat="48.77235" lon="2.10428">
        <ele>135</ele>
        <time>2019-09-15T15:57:03Z</time>
      </trkpt>
      <trkpt lat="48.77228" lon="2.10439">
        <ele>138</ele>
        <time>2019-09-15T15:57:17Z</time>
      </trkpt>
      <trkpt lat="48.7722" lon="2.10476">
        <ele>142</ele>
        <time>2019-09-15T15:57:45Z</time>
      </trkpt>
      <trkpt lat="48.7721" lon="2.10458">
        <ele>145</ele>
        <time>2019-09-15T15:58:08Z</time>
      </trkpt>
      <trkpt lat="48.77207" lon="2.10441">
        <ele>145</ele>
        <time>2019-09-15T15:58:14Z</time>
      </trkpt>
      <trkpt lat="48.77201" lon="2.1043">
        <ele>144</ele>
        <time>2019-09-15T15:58:20Z</time>
      </trkpt>
      <trkpt lat="48.772" lon="2.10365">
        <ele>143</ele>
        <time>2019-09-15T15:58:53Z</time>
      </trkpt>
      <trkpt lat="48.77201" lon="2.10349">
        <ele>142</ele>
        <time>2019-09-15T15:58:59Z</time>
      </trkpt>
      <trkpt lat="48.77199" lon="2.10334">
        <ele>142</ele>
        <time>2019-09-15T15:59:09Z</time>
      </trkpt>
      <trkpt lat="48.772" lon="2.10325">
        <ele>142</ele>
        <time>2019-09-15T15:59:12Z</time>
      </trkpt>
      <trkpt lat="48.772" lon="2.10318">
        <ele>141</ele>
        <time>2019-09-15T15:59:16Z</time>
      </trkpt>
      <trkpt lat="48.772" lon="2.1031">
        <ele>141</ele>
        <time>2019-09-15T15:59:19Z</time>
      </trkpt>
      <trkpt lat="48.77224" lon="2.10249">
        <ele>140</ele>
        <time>2019-09-15T15:59:50Z</time>
      </trkpt>
      <trkpt lat="48.77232" lon="2.1024">
        <ele>140</ele>
        <time>2019-09-15T15:59:56Z</time>
      </trkpt>
      <trkpt lat="48.77233" lon="2.10233">
        <ele>140</ele>
        <time>2019-09-15T16:00:00Z</time>
      </trkpt>
      <trkpt lat="48.77234" lon="2.10225">
        <ele>140</ele>
        <time>2019-09-15T16:00:04Z</time>
      </trkpt>
      <trkpt lat="48.77232" lon="2.10216">
        <ele>140</ele>
        <time>2019-09-15T16:00:08Z</time>
      </trkpt>
      <trkpt lat="48.77232" lon="2.10203">
        <ele>140</ele>
        <time>2019-09-15T16:00:18Z</time>
      </trkpt>
      <trkpt lat="48.77235" lon="2.10196">
        <ele>140</ele>
        <time>2019-09-15T16:00:21Z</time>
      </trkpt>
      <trkpt lat="48.77238" lon="2.10191">
        <ele>140</ele>
        <time>2019-09-15T16:00:25Z</time>
      </trkpt>
      <trkpt lat="48.77238" lon="2.10181">
        <ele>140</ele>
        <time>2019-09-15T16:00:29Z</time>
      </trkpt>
      <trkpt lat="48.77238" lon="2.10174">
        <ele>140</ele>
        <time>2019-09-15T16:00:32Z</time>
      </trkpt>
      <trkpt lat="48.77238" lon="2.10167">
        <ele>140</ele>
        <time>2019-09-15T16:00:35Z</time>
      </trkpt>
      <trkpt lat="48.77242" lon="2.10157">
        <ele>141</ele>
        <time>2019-09-15T16:00:41Z</time>
      </trkpt>
      <trkpt lat="48.77245" lon="2.10152">
        <ele>141</ele>
        <time>2019-09-15T16:00:44Z</time>
      </trkpt>
      <trkpt lat="48.77253" lon="2.10132">
        <ele>141</ele>
        <time>2019-09-15T16:00:55Z</time>
      </trkpt>
      <trkpt lat="48.77262" lon="2.10124">
        <ele>141</ele>
        <time>2019-09-15T16:01:01Z</time>
      </trkpt>
      <trkpt lat="48.77285" lon="2.10122">
        <ele>141</ele>
        <time>2019-09-15T16:01:14Z</time>
      </trkpt>
      <trkpt lat="48.7729" lon="2.10122">
        <ele>141</ele>
        <time>2019-09-15T16:01:17Z</time>
      </trkpt>
      <trkpt lat="48.77295" lon="2.10121">
        <ele>141</ele>
        <time>2019-09-15T16:01:20Z</time>
      </trkpt>
      <trkpt lat="48.77303" lon="2.10114">
        <ele>141</ele>
        <time>2019-09-15T16:01:26Z</time>
      </trkpt>
      <trkpt lat="48.77307" lon="2.10107">
        <ele>141</ele>
        <time>2019-09-15T16:01:30Z</time>
      </trkpt>
      <trkpt lat="48.77309" lon="2.10101">
        <ele>140</ele>
        <time>2019-09-15T16:01:33Z</time>
      </trkpt>
      <trkpt lat="48.7731" lon="2.10093">
        <ele>140</ele>
        <time>2019-09-15T16:01:37Z</time>
      </trkpt>
      <trkpt lat="48.77308" lon="2.10078">
        <ele>140</ele>
        <time>2019-09-15T16:01:42Z</time>
      </trkpt>
      <trkpt lat="48.7731" lon="2.10071">
        <ele>140</ele>
        <time>2019-09-15T16:01:45Z</time>
      </trkpt>
      <trkpt lat="48.77317" lon="2.10063">
        <ele>140</ele>
        <time>2019-09-15T16:01:55Z</time>
      </trkpt>
      <trkpt lat="48.77345" lon="2.10059">
        <ele>140</ele>
        <time>2019-09-15T16:02:10Z</time>
      </trkpt>
      <trkpt lat="48.77358" lon="2.10046">
        <ele>140</ele>
        <time>2019-09-15T16:02:19Z</time>
      </trkpt>
      <trkpt lat="48.77363" lon="2.10033">
        <ele>139</ele>
        <time>2019-09-15T16:02:27Z</time>
      </trkpt>
      <trkpt lat="48.77364" lon="2.10019">
        <ele>139</ele>
        <time>2019-09-15T16:02:32Z</time>
      </trkpt>
      <trkpt lat="48.77362" lon="2.09997">
        <ele>139</ele>
        <time>2019-09-15T16:02:42Z</time>
      </trkpt>
      <trkpt lat="48.7736" lon="2.0999">
        <ele>139</ele>
        <time>2019-09-15T16:02:46Z</time>
      </trkpt>
      <trkpt lat="48.77361" lon="2.09983">
        <ele>139</ele>
        <time>2019-09-15T16:02:51Z</time>
      </trkpt>
      <trkpt lat="48.77367" lon="2.0998">
        <ele>139</ele>
        <time>2019-09-15T16:02:55Z</time>
      </trkpt>
      <trkpt lat="48.77374" lon="2.0998">
        <ele>139</ele>
        <time>2019-09-15T16:02:58Z</time>
      </trkpt>
      <trkpt lat="48.77384" lon="2.09973">
        <ele>139</ele>
        <time>2019-09-15T16:03:04Z</time>
      </trkpt>
      <trkpt lat="48.77389" lon="2.09969">
        <ele>139</ele>
        <time>2019-09-15T16:03:07Z</time>
      </trkpt>
      <trkpt lat="48.77395" lon="2.09958">
        <ele>139</ele>
        <time>2019-09-15T16:03:13Z</time>
      </trkpt>
      <trkpt lat="48.77397" lon="2.09951">
        <ele>139</ele>
        <time>2019-09-15T16:03:18Z</time>
      </trkpt>
      <trkpt lat="48.77405" lon="2.09951">
        <ele>139</ele>
        <time>2019-09-15T16:03:31Z</time>
      </trkpt>
      <trkpt lat="48.77411" lon="2.09947">
        <ele>139</ele>
        <time>2019-09-15T16:03:50Z</time>
      </trkpt>
      <trkpt lat="48.77418" lon="2.09948">
        <ele>136</ele>
        <time>2019-09-15T16:04:33Z</time>
      </trkpt>
      <trkpt lat="48.77423" lon="2.09946">
        <ele>136</ele>
        <time>2019-09-15T16:04:36Z</time>
      </trkpt>
      <trkpt lat="48.77433" lon="2.09939">
        <ele>132</ele>
        <time>2019-09-15T16:04:46Z</time>
      </trkpt>
      <trkpt lat="48.77448" lon="2.0994">
        <ele>130</ele>
        <time>2019-09-15T16:05:00Z</time>
      </trkpt>
      <trkpt lat="48.77497" lon="2.09948">
        <ele>127</ele>
        <time>2019-09-15T16:05:28Z</time>
      </trkpt>
      <trkpt lat="48.77513" lon="2.09945">
        <ele>125</ele>
        <time>2019-09-15T16:05:40Z</time>
      </trkpt>
      <trkpt lat="48.77518" lon="2.09947">
        <ele>125</ele>
        <time>2019-09-15T16:05:45Z</time>
      </trkpt>
      <trkpt lat="48.77522" lon="2.09942">
        <ele>123</ele>
        <time>2019-09-15T16:05:50Z</time>
      </trkpt>
      <trkpt lat="48.77529" lon="2.09939">
        <ele>121</ele>
        <time>2019-09-15T16:05:59Z</time>
      </trkpt>
      <trkpt lat="48.77533" lon="2.09941">
        <ele>120</ele>
        <time>2019-09-15T16:06:01Z</time>
      </trkpt>
      <trkpt lat="48.77538" lon="2.09941">
        <ele>119</ele>
        <time>2019-09-15T16:06:04Z</time>
      </trkpt>
      <trkpt lat="48.77543" lon="2.0994">
        <ele>119</ele>
        <time>2019-09-15T16:06:09Z</time>
      </trkpt>
      <trkpt lat="48.77549" lon="2.09943">
        <ele>118</ele>
        <time>2019-09-15T16:06:13Z</time>
      </trkpt>
      <trkpt lat="48.77553" lon="2.09945">
        <ele>118</ele>
        <time>2019-09-15T16:06:15Z</time>
      </trkpt>
      <trkpt lat="48.7756" lon="2.09947">
        <ele>118</ele>
        <time>2019-09-15T16:06:19Z</time>
      </trkpt>
      <trkpt lat="48.77582" lon="2.09968">
        <ele>118</ele>
        <time>2019-09-15T16:06:32Z</time>
      </trkpt>
      <trkpt lat="48.77586" lon="2.09973">
        <ele>117</ele>
        <time>2019-09-15T16:06:36Z</time>
      </trkpt>
      <trkpt lat="48.77593" lon="2.09993">
        <ele>116</ele>
        <time>2019-09-15T16:06:49Z</time>
      </trkpt>
      <trkpt lat="48.77603" lon="2.10011">
        <ele>117</ele>
        <time>2019-09-15T16:06:59Z</time>
      </trkpt>
      <trkpt lat="48.77601" lon="2.10021">
        <ele>116</ele>
        <time>2019-09-15T16:07:05Z</time>
      </trkpt>
      <trkpt lat="48.77604" lon="2.10027">
        <ele>116</ele>
        <time>2019-09-15T16:07:09Z</time>
      </trkpt>
      <trkpt lat="48.77618" lon="2.10041">
        <ele>115</ele>
        <time>2019-09-15T16:07:23Z</time>
      </trkpt>
      <trkpt lat="48.77622" lon="2.10044">
        <ele>115</ele>
        <time>2019-09-15T16:07:26Z</time>
      </trkpt>
      <trkpt lat="48.77626" lon="2.10045">
        <ele>115</ele>
        <time>2019-09-15T16:07:30Z</time>
      </trkpt>
      <trkpt lat="48.77634" lon="2.10038">
        <ele>116</ele>
        <time>2019-09-15T16:07:39Z</time>
      </trkpt>
      <trkpt lat="48.77642" lon="2.10028">
        <ele>116</ele>
        <time>2019-09-15T16:07:45Z</time>
      </trkpt>
      <trkpt lat="48.77648" lon="2.10026">
        <ele>115</ele>
        <time>2019-09-15T16:07:48Z</time>
      </trkpt>
      <trkpt lat="48.77661" lon="2.10013">
        <ele>115</ele>
        <time>2019-09-15T16:08:00Z</time>
      </trkpt>
      <trkpt lat="48.77666" lon="2.10011">
        <ele>115</ele>
        <time>2019-09-15T16:08:05Z</time>
      </trkpt>
      <trkpt lat="48.77671" lon="2.10012">
        <ele>115</ele>
        <time>2019-09-15T16:08:09Z</time>
      </trkpt>
      <trkpt lat="48.77677" lon="2.10014">
        <ele>115</ele>
        <time>2019-09-15T16:08:12Z</time>
      </trkpt>
      <trkpt lat="48.77694" lon="2.10015">
        <ele>115</ele>
        <time>2019-09-15T16:08:23Z</time>
      </trkpt>
      <trkpt lat="48.77707" lon="2.10022">
        <ele>115</ele>
        <time>2019-09-15T16:08:31Z</time>
      </trkpt>
      <trkpt lat="48.77717" lon="2.10023">
        <ele>115</ele>
        <time>2019-09-15T16:08:38Z</time>
      </trkpt>
      <trkpt lat="48.77735" lon="2.10011">
        <ele>116</ele>
        <time>2019-09-15T16:08:53Z</time>
      </trkpt>
      <trkpt lat="48.77763" lon="2.10015">
        <ele>116</ele>
        <time>2019-09-15T16:09:16Z</time>
      </trkpt>
      <trkpt lat="48.77774" lon="2.10019">
        <ele>116</ele>
        <time>2019-09-15T16:09:22Z</time>
      </trkpt>
      <trkpt lat="48.77789" lon="2.10019">
        <ele>116</ele>
        <time>2019-09-15T16:09:33Z</time>
      </trkpt>
      <trkpt lat="48.77806" lon="2.10009">
        <ele>116</ele>
        <time>2019-09-15T16:09:49Z</time>
      </trkpt>
      <trkpt lat="48.77807" lon="2.09994">
        <ele>116</ele>
        <time>2019-09-15T16:09:56Z</time>
      </trkpt>
      <trkpt lat="48.77809" lon="2.09963">
        <ele>117</ele>
        <time>2019-09-15T16:10:12Z</time>
      </trkpt>
      <trkpt lat="48.77816" lon="2.09934">
        <ele>117</ele>
        <time>2019-09-15T16:10:26Z</time>
      </trkpt>
      <trkpt lat="48.7782" lon="2.0992">
        <ele>118</ele>
        <time>2019-09-15T16:10:33Z</time>
      </trkpt>
      <trkpt lat="48.77834" lon="2.09894">
        <ele>117</ele>
        <time>2019-09-15T16:10:48Z</time>
      </trkpt>
      <trkpt lat="48.77838" lon="2.0989">
        <ele>117</ele>
        <time>2019-09-15T16:10:52Z</time>
      </trkpt>
      <trkpt lat="48.77841" lon="2.09884">
        <ele>117</ele>
        <time>2019-09-15T16:10:56Z</time>
      </trkpt>
      <trkpt lat="48.7785" lon="2.09873">
        <ele>117</ele>
        <time>2019-09-15T16:11:04Z</time>
      </trkpt>
      <trkpt lat="48.77859" lon="2.0987">
        <ele>118</ele>
        <time>2019-09-15T16:11:13Z</time>
      </trkpt>
      <trkpt lat="48.77871" lon="2.0987">
        <ele>118</ele>
        <time>2019-09-15T16:11:20Z</time>
      </trkpt>
      <trkpt lat="48.77882" lon="2.09867">
        <ele>118</ele>
        <time>2019-09-15T16:11:26Z</time>
      </trkpt>
      <trkpt lat="48.77893" lon="2.09871">
        <ele>118</ele>
        <time>2019-09-15T16:11:32Z</time>
      </trkpt>
      <trkpt lat="48.77904" lon="2.09877">
        <ele>118</ele>
        <time>2019-09-15T16:11:38Z</time>
      </trkpt>
      <trkpt lat="48.77917" lon="2.09881">
        <ele>118</ele>
        <time>2019-09-15T16:11:49Z</time>
      </trkpt>
      <trkpt lat="48.77958" lon="2.09907">
        <ele>119</ele>
        <time>2019-09-15T16:12:21Z</time>
      </trkpt>
      <trkpt lat="48.77967" lon="2.0991">
        <ele>119</ele>
        <time>2019-09-15T16:12:27Z</time>
      </trkpt>
      <trkpt lat="48.78006" lon="2.09905">
        <ele>120</ele>
        <time>2019-09-15T16:13:04Z</time>
      </trkpt>
      <trkpt lat="48.78016" lon="2.09904">
        <ele>121</ele>
        <time>2019-09-15T16:13:14Z</time>
      </trkpt>
      <trkpt lat="48.78034" lon="2.0989">
        <ele>123</ele>
        <time>2019-09-15T16:13:36Z</time>
      </trkpt>
      <trkpt lat="48.7805" lon="2.09862">
        <ele>125</ele>
        <time>2019-09-15T16:13:57Z</time>
      </trkpt>
      <trkpt lat="48.78055" lon="2.0984">
        <ele>125</ele>
        <time>2019-09-15T16:14:09Z</time>
      </trkpt>
      <trkpt lat="48.78059" lon="2.09789">
        <ele>125</ele>
        <time>2019-09-15T16:14:30Z</time>
      </trkpt>
      <trkpt lat="48.78055" lon="2.0976">
        <ele>124</ele>
        <time>2019-09-15T16:14:42Z</time>
      </trkpt>
      <trkpt lat="48.78055" lon="2.09727">
        <ele>125</ele>
        <time>2019-09-15T16:14:57Z</time>
      </trkpt>
      <trkpt lat="48.78051" lon="2.0971">
        <ele>125</ele>
        <time>2019-09-15T16:15:06Z</time>
      </trkpt>
      <trkpt lat="48.78049" lon="2.09703">
        <ele>124</ele>
        <time>2019-09-15T16:15:11Z</time>
      </trkpt>
      <trkpt lat="48.78028" lon="2.0964">
        <ele>123</ele>
        <time>2019-09-15T16:15:42Z</time>
      </trkpt>
      <trkpt lat="48.78025" lon="2.09594">
        <ele>126</ele>
        <time>2019-09-15T16:16:09Z</time>
      </trkpt>
      <trkpt lat="48.78025" lon="2.09586">
        <ele>126</ele>
        <time>2019-09-15T16:16:12Z</time>
      </trkpt>
      <trkpt lat="48.78026" lon="2.09579">
        <ele>127</ele>
        <time>2019-09-15T16:16:17Z</time>
      </trkpt>
      <trkpt lat="48.78027" lon="2.09569">
        <ele>128</ele>
        <time>2019-09-15T16:16:25Z</time>
      </trkpt>
      <trkpt lat="48.78034" lon="2.09559">
        <ele>129</ele>
        <time>2019-09-15T16:16:32Z</time>
      </trkpt>
      <trkpt lat="48.78043" lon="2.09537">
        <ele>129</ele>
        <time>2019-09-15T16:16:46Z</time>
      </trkpt>
      <trkpt lat="48.78041" lon="2.09529">
        <ele>129</ele>
        <time>2019-09-15T16:16:56Z</time>
      </trkpt>
      <trkpt lat="48.78037" lon="2.09521">
        <ele>128</ele>
        <time>2019-09-15T16:18:08Z</time>
      </trkpt>
      <trkpt lat="48.78028" lon="2.09496">
        <ele>126</ele>
        <time>2019-09-15T16:18:37Z</time>
      </trkpt>
      <trkpt lat="48.78028" lon="2.09488">
        <ele>125</ele>
        <time>2019-09-15T16:19:57Z</time>
      </trkpt>
      <trkpt lat="48.7803" lon="2.09481">
        <ele>126</ele>
        <time>2019-09-15T16:20:02Z</time>
      </trkpt>
      <trkpt lat="48.78028" lon="2.09467">
        <ele>126</ele>
        <time>2019-09-15T16:20:10Z</time>
      </trkpt>
      <trkpt lat="48.78028" lon="2.09456">
        <ele>125</ele>
        <time>2019-09-15T16:20:16Z</time>
      </trkpt>
      <trkpt lat="48.78022" lon="2.09431">
        <ele>125</ele>
        <time>2019-09-15T16:20:34Z</time>
      </trkpt>
      <trkpt lat="48.78022" lon="2.09408">
        <ele>125</ele>
        <time>2019-09-15T16:20:47Z</time>
      </trkpt>
      <trkpt lat="48.78024" lon="2.09401">
        <ele>125</ele>
        <time>2019-09-15T16:20:52Z</time>
      </trkpt>
      <trkpt lat="48.78024" lon="2.09393">
        <ele>125</ele>
        <time>2019-09-15T16:20:56Z</time>
      </trkpt>
      <trkpt lat="48.78027" lon="2.09377">
        <ele>125</ele>
        <time>2019-09-15T16:21:04Z</time>
      </trkpt>
      <trkpt lat="48.78027" lon="2.09354">
        <ele>124</ele>
        <time>2019-09-15T16:21:17Z</time>
      </trkpt>
      <trkpt lat="48.78029" lon="2.09321">
        <ele>125</ele>
        <time>2019-09-15T16:21:34Z</time>
      </trkpt>
      <trkpt lat="48.78029" lon="2.09289">
        <ele>125</ele>
        <time>2019-09-15T16:21:47Z</time>
      </trkpt>
      <trkpt lat="48.78031" lon="2.09281">
        <ele>125</ele>
        <time>2019-09-15T16:21:52Z</time>
      </trkpt>
      <trkpt lat="48.7803" lon="2.0925">
        <ele>125</ele>
        <time>2019-09-15T16:22:07Z</time>
      </trkpt>
      <trkpt lat="48.78032" lon="2.0924">
        <ele>125</ele>
        <time>2019-09-15T16:22:12Z</time>
      </trkpt>
      <trkpt lat="48.78037" lon="2.09226">
        <ele>125</ele>
        <time>2019-09-15T16:22:19Z</time>
      </trkpt>
      <trkpt lat="48.78038" lon="2.0922">
        <ele>125</ele>
        <time>2019-09-15T16:22:23Z</time>
      </trkpt>
      <trkpt lat="48.78039" lon="2.09212">
        <ele>125</ele>
        <time>2019-09-15T16:22:26Z</time>
      </trkpt>
      <trkpt lat="48.7804" lon="2.09205">
        <ele>125</ele>
        <time>2019-09-15T16:22:30Z</time>
      </trkpt>
      <trkpt lat="48.78047" lon="2.09177">
        <ele>125</ele>
        <time>2019-09-15T16:22:47Z</time>
      </trkpt>
      <trkpt lat="48.78067" lon="2.09144">
        <ele>125</ele>
        <time>2019-09-15T16:23:11Z</time>
      </trkpt>
      <trkpt lat="48.7808" lon="2.0913">
        <ele>125</ele>
        <time>2019-09-15T16:23:23Z</time>
      </trkpt>
      <trkpt lat="48.78093" lon="2.09122">
        <ele>125</ele>
        <time>2019-09-15T16:23:35Z</time>
      </trkpt>
      <trkpt lat="48.78107" lon="2.09109">
        <ele>125</ele>
        <time>2019-09-15T16:23:47Z</time>
      </trkpt>
      <trkpt lat="48.78111" lon="2.09103">
        <ele>125</ele>
        <time>2019-09-15T16:23:51Z</time>
      </trkpt>
      <trkpt lat="48.78137" lon="2.09079">
        <ele>125</ele>
        <time>2019-09-15T16:24:12Z</time>
      </trkpt>
      <trkpt lat="48.78146" lon="2.09075">
        <ele>125</ele>
        <time>2019-09-15T16:24:19Z</time>
      </trkpt>
      <trkpt lat="48.78154" lon="2.09062">
        <ele>125</ele>
        <time>2019-09-15T16:24:27Z</time>
      </trkpt>
      <trkpt lat="48.78159" lon="2.09062">
        <ele>125</ele>
        <time>2019-09-15T16:24:31Z</time>
      </trkpt>
      <trkpt lat="48.78164" lon="2.09057">
        <ele>125</ele>
        <time>2019-09-15T16:24:35Z</time>
      </trkpt>
      <trkpt lat="48.78166" lon="2.09051">
        <ele>125</ele>
        <time>2019-09-15T16:24:39Z</time>
      </trkpt>
      <trkpt lat="48.78169" lon="2.09045">
        <ele>125</ele>
        <time>2019-09-15T16:24:44Z</time>
      </trkpt>
      <trkpt lat="48.78175" lon="2.09042">
        <ele>125</ele>
        <time>2019-09-15T16:24:51Z</time>
      </trkpt>
      <trkpt lat="48.78182" lon="2.09035">
        <ele>126</ele>
        <time>2019-09-15T16:25:00Z</time>
      </trkpt>
      <trkpt lat="48.78195" lon="2.09022">
        <ele>126</ele>
        <time>2019-09-15T16:25:10Z</time>
      </trkpt>
      <trkpt lat="48.78196" lon="2.09015">
        <ele>126</ele>
        <time>2019-09-15T16:25:13Z</time>
      </trkpt>
      <trkpt lat="48.78199" lon="2.08991">
        <ele>125</ele>
        <time>2019-09-15T16:25:24Z</time>
      </trkpt>
      <trkpt lat="48.78203" lon="2.08986">
        <ele>126</ele>
        <time>2019-09-15T16:25:28Z</time>
      </trkpt>
      <trkpt lat="48.78213" lon="2.08984">
        <ele>130</ele>
        <time>2019-09-15T16:25:48Z</time>
      </trkpt>
      <trkpt lat="48.78223" lon="2.08979">
        <ele>133</ele>
        <time>2019-09-15T16:26:04Z</time>
      </trkpt>
      <trkpt lat="48.78225" lon="2.0897">
        <ele>133</ele>
        <time>2019-09-15T16:26:08Z</time>
      </trkpt>
      <trkpt lat="48.78225" lon="2.08946">
        <ele>133</ele>
        <time>2019-09-15T16:26:18Z</time>
      </trkpt>
      <trkpt lat="48.78224" lon="2.08938">
        <ele>133</ele>
        <time>2019-09-15T16:26:20Z</time>
      </trkpt>
      <trkpt lat="48.78225" lon="2.08917">
        <ele>132</ele>
        <time>2019-09-15T16:26:29Z</time>
      </trkpt>
      <trkpt lat="48.78223" lon="2.0888">
        <ele>132</ele>
        <time>2019-09-15T16:26:45Z</time>
      </trkpt>
      <trkpt lat="48.78229" lon="2.08857">
        <ele>132</ele>
        <time>2019-09-15T16:26:57Z</time>
      </trkpt>
      <trkpt lat="48.78231" lon="2.08851">
        <ele>132</ele>
        <time>2019-09-15T16:27:01Z</time>
      </trkpt>
      <trkpt lat="48.7823" lon="2.08834">
        <ele>132</ele>
        <time>2019-09-15T16:27:09Z</time>
      </trkpt>
      <trkpt lat="48.78231" lon="2.08826">
        <ele>132</ele>
        <time>2019-09-15T16:27:13Z</time>
      </trkpt>
      <trkpt lat="48.7823" lon="2.08817">
        <ele>132</ele>
        <time>2019-09-15T16:27:17Z</time>
      </trkpt>
      <trkpt lat="48.78235" lon="2.08795">
        <ele>131</ele>
        <time>2019-09-15T16:27:29Z</time>
      </trkpt>
      <trkpt lat="48.78237" lon="2.08789">
        <ele>131</ele>
        <time>2019-09-15T16:27:32Z</time>
      </trkpt>
      <trkpt lat="48.78236" lon="2.08781">
        <ele>131</ele>
        <time>2019-09-15T16:27:35Z</time>
      </trkpt>
      <trkpt lat="48.78234" lon="2.08765">
        <ele>131</ele>
        <time>2019-09-15T16:27:41Z</time>
      </trkpt>
      <trkpt lat="48.78237" lon="2.08742">
        <ele>131</ele>
        <time>2019-09-15T16:27:51Z</time>
      </trkpt>
      <trkpt lat="48.78247" lon="2.08713">
        <ele>132</ele>
        <time>2019-09-15T16:28:07Z</time>
      </trkpt>
      <trkpt lat="48.78253" lon="2.08644">
        <ele>133</ele>
        <time>2019-09-15T16:28:40Z</time>
      </trkpt>
      <trkpt lat="48.78253" lon="2.08636">
        <ele>132</ele>
        <time>2019-09-15T16:28:44Z</time>
      </trkpt>
      <trkpt lat="48.78256" lon="2.08623">
        <ele>132</ele>
        <time>2019-09-15T16:28:52Z</time>
      </trkpt>
      <trkpt lat="48.7826" lon="2.08619">
        <ele>132</ele>
        <time>2019-09-15T16:28:56Z</time>
      </trkpt>
      <trkpt lat="48.78267" lon="2.08606">
        <ele>132</ele>
        <time>2019-09-15T16:29:04Z</time>
      </trkpt>
      <trkpt lat="48.78274" lon="2.08603">
        <ele>132</ele>
        <time>2019-09-15T16:29:11Z</time>
      </trkpt>
      <trkpt lat="48.78282" lon="2.08595">
        <ele>132</ele>
        <time>2019-09-15T16:29:17Z</time>
      </trkpt>
      <trkpt lat="48.78294" lon="2.08593">
        <ele>133</ele>
        <time>2019-09-15T16:29:23Z</time>
      </trkpt>
      <trkpt lat="48.78313" lon="2.0858">
        <ele>133</ele>
        <time>2019-09-15T16:29:35Z</time>
      </trkpt>
      <trkpt lat="48.78316" lon="2.08576">
        <ele>133</ele>
        <time>2019-09-15T16:29:38Z</time>
      </trkpt>
      <trkpt lat="48.7832" lon="2.08573">
        <ele>133</ele>
        <time>2019-09-15T16:29:41Z</time>
      </trkpt>
      <trkpt lat="48.78346" lon="2.08523">
        <ele>134</ele>
        <time>2019-09-15T16:30:12Z</time>
      </trkpt>
      <trkpt lat="48.78351" lon="2.08521">
        <ele>134</ele>
        <time>2019-09-15T16:30:15Z</time>
      </trkpt>
      <trkpt lat="48.78354" lon="2.08513">
        <ele>134</ele>
        <time>2019-09-15T16:30:19Z</time>
      </trkpt>
      <trkpt lat="48.78358" lon="2.08489">
        <ele>135</ele>
        <time>2019-09-15T16:30:31Z</time>
      </trkpt>
      <trkpt lat="48.78363" lon="2.08477">
        <ele>134</ele>
        <time>2019-09-15T16:30:39Z</time>
      </trkpt>
      <trkpt lat="48.78367" lon="2.08472">
        <ele>134</ele>
        <time>2019-09-15T16:30:43Z</time>
      </trkpt>
      <trkpt lat="48.7837" lon="2.08465">
        <ele>134</ele>
        <time>2019-09-15T16:30:47Z</time>
      </trkpt>
      <trkpt lat="48.78374" lon="2.08452">
        <ele>134</ele>
        <time>2019-09-15T16:30:53Z</time>
      </trkpt>
      <trkpt lat="48.78377" lon="2.08446">
        <ele>134</ele>
        <time>2019-09-15T16:30:57Z</time>
      </trkpt>
      <trkpt lat="48.78382" lon="2.08437">
        <ele>134</ele>
        <time>2019-09-15T16:31:08Z</time>
      </trkpt>
      <trkpt lat="48.78384" lon="2.08426">
        <ele>134</ele>
        <time>2019-09-15T16:31:12Z</time>
      </trkpt>
      <trkpt lat="48.784" lon="2.08408">
        <ele>133</ele>
        <time>2019-09-15T16:31:29Z</time>
      </trkpt>
      <trkpt lat="48.78406" lon="2.08379">
        <ele>133</ele>
        <time>2019-09-15T16:31:41Z</time>
      </trkpt>
      <trkpt lat="48.78414" lon="2.08369">
        <ele>134</ele>
        <time>2019-09-15T16:31:50Z</time>
      </trkpt>
      <trkpt lat="48.78432" lon="2.08355">
        <ele>134</ele>
        <time>2019-09-15T16:32:06Z</time>
      </trkpt>
      <trkpt lat="48.78435" lon="2.0835">
        <ele>134</ele>
        <time>2019-09-15T16:32:09Z</time>
      </trkpt>
      <trkpt lat="48.78454" lon="2.08343">
        <ele>133</ele>
        <time>2019-09-15T16:32:24Z</time>
      </trkpt>
      <trkpt lat="48.78458" lon="2.08343">
        <ele>134</ele>
        <time>2019-09-15T16:32:27Z</time>
      </trkpt>
      <trkpt lat="48.78468" lon="2.08335">
        <ele>134</ele>
        <time>2019-09-15T16:32:33Z</time>
      </trkpt>
      <trkpt lat="48.7849" lon="2.08327">
        <ele>134</ele>
        <time>2019-09-15T16:32:52Z</time>
      </trkpt>
      <trkpt lat="48.78498" lon="2.08332">
        <ele>134</ele>
        <time>2019-09-15T16:32:56Z</time>
      </trkpt>
      <trkpt lat="48.78502" lon="2.08331">
        <ele>134</ele>
        <time>2019-09-15T16:32:59Z</time>
      </trkpt>
      <trkpt lat="48.78506" lon="2.08328">
        <ele>134</ele>
        <time>2019-09-15T16:33:02Z</time>
      </trkpt>
      <trkpt lat="48.78516" lon="2.08326">
        <ele>134</ele>
        <time>2019-09-15T16:33:10Z</time>
      </trkpt>
      <trkpt lat="48.78519" lon="2.0832">
        <ele>133</ele>
        <time>2019-09-15T16:33:15Z</time>
      </trkpt>
      <trkpt lat="48.78524" lon="2.08318">
        <ele>133</ele>
        <time>2019-09-15T16:33:19Z</time>
      </trkpt>
      <trkpt lat="48.78528" lon="2.08319">
        <ele>134</ele>
        <time>2019-09-15T16:33:23Z</time>
      </trkpt>
      <trkpt lat="48.78534" lon="2.08316">
        <ele>134</ele>
        <time>2019-09-15T16:33:28Z</time>
      </trkpt>
      <trkpt lat="48.78546" lon="2.08303">
        <ele>134</ele>
        <time>2019-09-15T16:33:38Z</time>
      </trkpt>
      <trkpt lat="48.78576" lon="2.08287">
        <ele>133</ele>
        <time>2019-09-15T16:34:00Z</time>
      </trkpt>
      <trkpt lat="48.78591" lon="2.08286">
        <ele>133</ele>
        <time>2019-09-15T16:34:11Z</time>
      </trkpt>
      <trkpt lat="48.78596" lon="2.08284">
        <ele>133</ele>
        <time>2019-09-15T16:34:15Z</time>
      </trkpt>
      <trkpt lat="48.78606" lon="2.08284">
        <ele>133</ele>
        <time>2019-09-15T16:34:22Z</time>
      </trkpt>
      <trkpt lat="48.78644" lon="2.08257">
        <ele>134</ele>
        <time>2019-09-15T16:34:53Z</time>
      </trkpt>
      <trkpt lat="48.78654" lon="2.08241">
        <ele>134</ele>
        <time>2019-09-15T16:35:04Z</time>
      </trkpt>
      <trkpt lat="48.78659" lon="2.08241">
        <ele>134</ele>
        <time>2019-09-15T16:35:07Z</time>
      </trkpt>
      <trkpt lat="48.78672" lon="2.08231">
        <ele>134</ele>
        <time>2019-09-15T16:35:19Z</time>
      </trkpt>
      <trkpt lat="48.78677" lon="2.08228">
        <ele>134</ele>
        <time>2019-09-15T16:35:23Z</time>
      </trkpt>
      <trkpt lat="48.78682" lon="2.08227">
        <ele>134</ele>
        <time>2019-09-15T16:35:27Z</time>
      </trkpt>
      <trkpt lat="48.78703" lon="2.08214">
        <ele>134</ele>
        <time>2019-09-15T16:35:43Z</time>
      </trkpt>
      <trkpt lat="48.78708" lon="2.08213">
        <ele>134</ele>
        <time>2019-09-15T16:35:46Z</time>
      </trkpt>
      <trkpt lat="48.78712" lon="2.0821">
        <ele>134</ele>
        <time>2019-09-15T16:35:50Z</time>
      </trkpt>
      <trkpt lat="48.78744" lon="2.08218">
        <ele>134</ele>
        <time>2019-09-15T16:36:10Z</time>
      </trkpt>
      <trkpt lat="48.78753" lon="2.08224">
        <ele>134</ele>
        <time>2019-09-15T16:36:17Z</time>
      </trkpt>
      <trkpt lat="48.78763" lon="2.0822">
        <ele>134</ele>
        <time>2019-09-15T16:36:25Z</time>
      </trkpt>
      <trkpt lat="48.78779" lon="2.08206">
        <ele>134</ele>
        <time>2019-09-15T16:36:40Z</time>
      </trkpt>
      <trkpt lat="48.78782" lon="2.082">
        <ele>134</ele>
        <time>2019-09-15T16:36:45Z</time>
      </trkpt>
      <trkpt lat="48.78787" lon="2.08196">
        <ele>134</ele>
        <time>2019-09-15T16:36:49Z</time>
      </trkpt>
      <trkpt lat="48.78796" lon="2.08191">
        <ele>134</ele>
        <time>2019-09-15T16:36:57Z</time>
      </trkpt>
      <trkpt lat="48.78801" lon="2.08194">
        <ele>134</ele>
        <time>2019-09-15T16:37:02Z</time>
      </trkpt>
      <trkpt lat="48.78805" lon="2.08199">
        <ele>134</ele>
        <time>2019-09-15T16:37:05Z</time>
      </trkpt>
      <trkpt lat="48.7881" lon="2.08201">
        <ele>134</ele>
        <time>2019-09-15T16:37:09Z</time>
      </trkpt>
      <trkpt lat="48.78814" lon="2.08201">
        <ele>135</ele>
        <time>2019-09-15T16:37:14Z</time>
      </trkpt>
      <trkpt lat="48.78819" lon="2.08199">
        <ele>135</ele>
        <time>2019-09-15T16:37:19Z</time>
      </trkpt>
      <trkpt lat="48.7882" lon="2.0819">
        <ele>136</ele>
        <time>2019-09-15T16:37:24Z</time>
      </trkpt>
      <trkpt lat="48.78819" lon="2.08175">
        <ele>136</ele>
        <time>2019-09-15T16:37:33Z</time>
      </trkpt>
      <trkpt lat="48.7882" lon="2.08167">
        <ele>136</ele>
        <time>2019-09-15T16:37:37Z</time>
      </trkpt>
      <trkpt lat="48.78819" lon="2.08151">
        <ele>136</ele>
        <time>2019-09-15T16:37:44Z</time>
      </trkpt>
      <trkpt lat="48.78821" lon="2.08138">
        <ele>136</ele>
        <time>2019-09-15T16:37:53Z</time>
      </trkpt>
      <trkpt lat="48.78822" lon="2.08131">
        <ele>137</ele>
        <time>2019-09-15T16:37:57Z</time>
      </trkpt>
      <trkpt lat="48.7882" lon="2.08116">
        <ele>137</ele>
        <time>2019-09-15T16:38:05Z</time>
      </trkpt>
      <trkpt lat="48.78823" lon="2.081">
        <ele>137</ele>
        <time>2019-09-15T16:38:13Z</time>
      </trkpt>
      <trkpt lat="48.78823" lon="2.08091">
        <ele>138</ele>
        <time>2019-09-15T16:38:17Z</time>
      </trkpt>
      <trkpt lat="48.78826" lon="2.08077">
        <ele>138</ele>
        <time>2019-09-15T16:38:25Z</time>
      </trkpt>
      <trkpt lat="48.78825" lon="2.08061">
        <ele>138</ele>
        <time>2019-09-15T16:38:32Z</time>
      </trkpt>
      <trkpt lat="48.78817" lon="2.08041">
        <ele>138</ele>
        <time>2019-09-15T16:38:42Z</time>
      </trkpt>
      <trkpt lat="48.78818" lon="2.08034">
        <ele>138</ele>
        <time>2019-09-15T16:38:46Z</time>
      </trkpt>
      <trkpt lat="48.78817" lon="2.08026">
        <ele>138</ele>
        <time>2019-09-15T16:38:50Z</time>
      </trkpt>
      <trkpt lat="48.78811" lon="2.08002">
        <ele>139</ele>
        <time>2019-09-15T16:39:01Z</time>
      </trkpt>
      <trkpt lat="48.78811" lon="2.07977">
        <ele>140</ele>
        <time>2019-09-15T16:39:14Z</time>
      </trkpt>
      <trkpt lat="48.78801" lon="2.07949">
        <ele>139</ele>
        <time>2019-09-15T16:39:34Z</time>
      </trkpt>
      <trkpt lat="48.78799" lon="2.07943">
        <ele>139</ele>
        <time>2019-09-15T16:39:36Z</time>
      </trkpt>
      <trkpt lat="48.78795" lon="2.07906">
        <ele>140</ele>
        <time>2019-09-15T16:39:57Z</time>
      </trkpt>
      <trkpt lat="48.78793" lon="2.07899">
        <ele>140</ele>
        <time>2019-09-15T16:40:01Z</time>
      </trkpt>
      <trkpt lat="48.78793" lon="2.07892">
        <ele>140</ele>
        <time>2019-09-15T16:40:05Z</time>
      </trkpt>
      <trkpt lat="48.78795" lon="2.07884">
        <ele>140</ele>
        <time>2019-09-15T16:40:10Z</time>
      </trkpt>
      <trkpt lat="48.78789" lon="2.0787">
        <ele>140</ele>
        <time>2019-09-15T16:40:17Z</time>
      </trkpt>
      <trkpt lat="48.78787" lon="2.07855">
        <ele>140</ele>
        <time>2019-09-15T16:40:24Z</time>
      </trkpt>
      <trkpt lat="48.78784" lon="2.07846">
        <ele>140</ele>
        <time>2019-09-15T16:40:27Z</time>
      </trkpt>
      <trkpt lat="48.78786" lon="2.07831">
        <ele>140</ele>
        <time>2019-09-15T16:40:38Z</time>
      </trkpt>
      <trkpt lat="48.78782" lon="2.07793">
        <ele>142</ele>
        <time>2019-09-15T16:41:00Z</time>
      </trkpt>
      <trkpt lat="48.78782" lon="2.07748">
        <ele>143</ele>
        <time>2019-09-15T16:41:24Z</time>
      </trkpt>
      <trkpt lat="48.7878" lon="2.07739">
        <ele>143</ele>
        <time>2019-09-15T16:41:27Z</time>
      </trkpt>
      <trkpt lat="48.78779" lon="2.07731">
        <ele>143</ele>
        <time>2019-09-15T16:41:32Z</time>
      </trkpt>
      <trkpt lat="48.7878" lon="2.07714">
        <ele>143</ele>
        <time>2019-09-15T16:41:38Z</time>
      </trkpt>
      <trkpt lat="48.7878" lon="2.07699">
        <ele>143</ele>
        <time>2019-09-15T16:41:45Z</time>
      </trkpt>
      <trkpt lat="48.78782" lon="2.07693">
        <ele>143</ele>
        <time>2019-09-15T16:41:49Z</time>
      </trkpt>
      <trkpt lat="48.78782" lon="2.07686">
        <ele>143</ele>
        <time>2019-09-15T16:41:53Z</time>
      </trkpt>
      <trkpt lat="48.78779" lon="2.07653">
        <ele>144</ele>
        <time>2019-09-15T16:42:11Z</time>
      </trkpt>
      <trkpt lat="48.7878" lon="2.07638">
        <ele>144</ele>
        <time>2019-09-15T16:42:19Z</time>
      </trkpt>
      <trkpt lat="48.78779" lon="2.0763">
        <ele>144</ele>
        <time>2019-09-15T16:42:23Z</time>
      </trkpt>
      <trkpt lat="48.78775" lon="2.07614">
        <ele>145</ele>
        <time>2019-09-15T16:42:31Z</time>
      </trkpt>
      <trkpt lat="48.78777" lon="2.07606">
        <ele>145</ele>
        <time>2019-09-15T16:42:35Z</time>
      </trkpt>
      <trkpt lat="48.78776" lon="2.07581">
        <ele>145</ele>
        <time>2019-09-15T16:42:48Z</time>
      </trkpt>
      <trkpt lat="48.78774" lon="2.07573">
        <ele>145</ele>
        <time>2019-09-15T16:42:52Z</time>
      </trkpt>
      <trkpt lat="48.78775" lon="2.07564">
        <ele>145</ele>
        <time>2019-09-15T16:42:56Z</time>
      </trkpt>
      <trkpt lat="48.78773" lon="2.07556">
        <ele>146</ele>
        <time>2019-09-15T16:43:00Z</time>
      </trkpt>
      <trkpt lat="48.78758" lon="2.07517">
        <ele>146</ele>
        <time>2019-09-15T16:43:23Z</time>
      </trkpt>
      <trkpt lat="48.78754" lon="2.07487">
        <ele>146</ele>
        <time>2019-09-15T16:43:39Z</time>
      </trkpt>
      <trkpt lat="48.78754" lon="2.07478">
        <ele>146</ele>
        <time>2019-09-15T16:43:43Z</time>
      </trkpt>
      <trkpt lat="48.78756" lon="2.07471">
        <ele>146</ele>
        <time>2019-09-15T16:43:46Z</time>
      </trkpt>
      <trkpt lat="48.78757" lon="2.07464">
        <ele>147</ele>
        <time>2019-09-15T16:43:50Z</time>
      </trkpt>
      <trkpt lat="48.78755" lon="2.07448">
        <ele>147</ele>
        <time>2019-09-15T16:43:56Z</time>
      </trkpt>
      <trkpt lat="48.7876" lon="2.07433">
        <ele>147</ele>
        <time>2019-09-15T16:44:04Z</time>
      </trkpt>
      <trkpt lat="48.78764" lon="2.0743">
        <ele>147</ele>
        <time>2019-09-15T16:44:07Z</time>
      </trkpt>
      <trkpt lat="48.78772" lon="2.07392">
        <ele>148</ele>
        <time>2019-09-15T16:44:28Z</time>
      </trkpt>
      <trkpt lat="48.78778" lon="2.07371">
        <ele>148</ele>
        <time>2019-09-15T16:44:39Z</time>
      </trkpt>
      <trkpt lat="48.78782" lon="2.07348">
        <ele>148</ele>
        <time>2019-09-15T16:44:52Z</time>
      </trkpt>
      <trkpt lat="48.78785" lon="2.07343">
        <ele>148</ele>
        <time>2019-09-15T16:44:56Z</time>
      </trkpt>
      <trkpt lat="48.78792" lon="2.07314">
        <ele>149</ele>
        <time>2019-09-15T16:45:10Z</time>
      </trkpt>
      <trkpt lat="48.78793" lon="2.07308">
        <ele>149</ele>
        <time>2019-09-15T16:45:14Z</time>
      </trkpt>
      <trkpt lat="48.78795" lon="2.073">
        <ele>149</ele>
        <time>2019-09-15T16:45:19Z</time>
      </trkpt>
      <trkpt lat="48.78796" lon="2.07293">
        <ele>149</ele>
        <time>2019-09-15T16:45:23Z</time>
      </trkpt>
      <trkpt lat="48.78798" lon="2.07286">
        <ele>149</ele>
        <time>2019-09-15T16:45:27Z</time>
      </trkpt>
      <trkpt lat="48.78804" lon="2.07272">
        <ele>149</ele>
        <time>2019-09-15T16:45:35Z</time>
      </trkpt>
      <trkpt lat="48.78814" lon="2.07229">
        <ele>150</ele>
        <time>2019-09-15T16:46:00Z</time>
      </trkpt>
      <trkpt lat="48.78818" lon="2.07175">
        <ele>150</ele>
        <time>2019-09-15T16:46:27Z</time>
      </trkpt>
      <trkpt lat="48.78825" lon="2.07145">
        <ele>150</ele>
        <time>2019-09-15T16:46:42Z</time>
      </trkpt>
      <trkpt lat="48.78828" lon="2.07121">
        <ele>151</ele>
        <time>2019-09-15T16:46:55Z</time>
      </trkpt>
      <trkpt lat="48.78826" lon="2.07112">
        <ele>151</ele>
        <time>2019-09-15T16:47:01Z</time>
      </trkpt>
      <trkpt lat="48.78829" lon="2.07106">
        <ele>151</ele>
        <time>2019-09-15T16:47:05Z</time>
      </trkpt>
      <trkpt lat="48.78834" lon="2.07059">
        <ele>152</ele>
        <time>2019-09-15T16:47:29Z</time>
      </trkpt>
      <trkpt lat="48.78839" lon="2.07044">
        <ele>152</ele>
        <time>2019-09-15T16:47:38Z</time>
      </trkpt>
      <trkpt lat="48.78844" lon="2.07032">
        <ele>152</ele>
        <time>2019-09-15T16:47:47Z</time>
      </trkpt>
      <trkpt lat="48.78859" lon="2.06995">
        <ele>156</ele>
        <time>2019-09-15T16:48:13Z</time>
      </trkpt>
      <trkpt lat="48.78863" lon="2.06989">
        <ele>156</ele>
        <time>2019-09-15T16:48:18Z</time>
      </trkpt>
      <trkpt lat="48.78867" lon="2.06986">
        <ele>157</ele>
        <time>2019-09-15T16:48:22Z</time>
      </trkpt>
      <trkpt lat="48.78895" lon="2.06989">
        <ele>160</ele>
        <time>2019-09-15T16:48:48Z</time>
      </trkpt>
      <trkpt lat="48.78899" lon="2.0699">
        <ele>160</ele>
        <time>2019-09-15T16:48:52Z</time>
      </trkpt>
      <trkpt lat="48.78904" lon="2.06994">
        <ele>160</ele>
        <time>2019-09-15T16:48:57Z</time>
      </trkpt>
      <trkpt lat="48.78914" lon="2.07001">
        <ele>161</ele>
        <time>2019-09-15T16:49:06Z</time>
      </trkpt>
      <trkpt lat="48.78932" lon="2.07007">
        <ele>161</ele>
        <time>2019-09-15T16:49:22Z</time>
      </trkpt>
      <trkpt lat="48.78936" lon="2.07011">
        <ele>161</ele>
        <time>2019-09-15T16:49:26Z</time>
      </trkpt>
      <trkpt lat="48.78944" lon="2.07023">
        <ele>162</ele>
        <time>2019-09-15T16:49:38Z</time>
      </trkpt>
      <trkpt lat="48.78947" lon="2.07032">
        <ele>162</ele>
        <time>2019-09-15T16:49:46Z</time>
      </trkpt>
      <trkpt lat="48.78951" lon="2.07038">
        <ele>162</ele>
        <time>2019-09-15T16:49:51Z</time>
      </trkpt>
      <trkpt lat="48.78973" lon="2.07061">
        <ele>162</ele>
        <time>2019-09-15T16:50:09Z</time>
      </trkpt>
      <trkpt lat="48.78982" lon="2.07073">
        <ele>163</ele>
        <time>2019-09-15T16:50:17Z</time>
      </trkpt>
      <trkpt lat="48.78985" lon="2.07077">
        <ele>163</ele>
        <time>2019-09-15T16:50:20Z</time>
      </trkpt>
      <trkpt lat="48.78987" lon="2.07084">
        <ele>163</ele>
        <time>2019-09-15T16:50:24Z</time>
      </trkpt>
      <trkpt lat="48.78991" lon="2.0709">
        <ele>163</ele>
        <time>2019-09-15T16:50:28Z</time>
      </trkpt>
      <trkpt lat="48.79004" lon="2.07103">
        <ele>164</ele>
        <time>2019-09-15T16:50:39Z</time>
      </trkpt>
      <trkpt lat="48.79008" lon="2.0711">
        <ele>164</ele>
        <time>2019-09-15T16:50:44Z</time>
      </trkpt>
      <trkpt lat="48.79032" lon="2.07138">
        <ele>164</ele>
        <time>2019-09-15T16:51:05Z</time>
      </trkpt>
      <trkpt lat="48.79035" lon="2.07144">
        <ele>164</ele>
        <time>2019-09-15T16:51:09Z</time>
      </trkpt>
      <trkpt lat="48.79041" lon="2.0715">
        <ele>164</ele>
        <time>2019-09-15T16:51:15Z</time>
      </trkpt>
      <trkpt lat="48.79046" lon="2.07158">
        <ele>165</ele>
        <time>2019-09-15T16:51:22Z</time>
      </trkpt>
      <trkpt lat="48.79051" lon="2.07162">
        <ele>165</ele>
        <time>2019-09-15T16:51:27Z</time>
      </trkpt>
      <trkpt lat="48.79056" lon="2.07164">
        <ele>165</ele>
        <time>2019-09-15T16:51:30Z</time>
      </trkpt>
      <trkpt lat="48.79078" lon="2.07157">
        <ele>164</ele>
        <time>2019-09-15T16:51:43Z</time>
      </trkpt>
      <trkpt lat="48.79082" lon="2.07154">
        <ele>164</ele>
        <time>2019-09-15T16:51:46Z</time>
      </trkpt>
      <trkpt lat="48.79086" lon="2.0715">
        <ele>165</ele>
        <time>2019-09-15T16:51:50Z</time>
      </trkpt>
      <trkpt lat="48.79092" lon="2.07127">
        <ele>165</ele>
        <time>2019-09-15T16:52:02Z</time>
      </trkpt>
      <trkpt lat="48.79094" lon="2.07112">
        <ele>164</ele>
        <time>2019-09-15T16:52:10Z</time>
      </trkpt>
      <trkpt lat="48.79099" lon="2.07103">
        <ele>165</ele>
        <time>2019-09-15T16:52:19Z</time>
      </trkpt>
      <trkpt lat="48.79101" lon="2.0709">
        <ele>164</ele>
        <time>2019-09-15T16:52:24Z</time>
      </trkpt>
      <trkpt lat="48.79104" lon="2.07084">
        <ele>164</ele>
        <time>2019-09-15T16:52:28Z</time>
      </trkpt>
      <trkpt lat="48.79108" lon="2.0707">
        <ele>164</ele>
        <time>2019-09-15T16:52:35Z</time>
      </trkpt>
      <trkpt lat="48.79112" lon="2.07068">
        <ele>164</ele>
        <time>2019-09-15T16:52:39Z</time>
      </trkpt>
      <trkpt lat="48.79123" lon="2.0707">
        <ele>164</ele>
        <time>2019-09-15T16:52:48Z</time>
      </trkpt>
      <trkpt lat="48.79133" lon="2.07077">
        <ele>164</ele>
        <time>2019-09-15T16:52:56Z</time>
      </trkpt>
      <trkpt lat="48.79141" lon="2.07078">
        <ele>164</ele>
        <time>2019-09-15T16:53:13Z</time>
      </trkpt>
      <trkpt lat="48.79149" lon="2.07083">
        <ele>164</ele>
        <time>2019-09-15T16:53:42Z</time>
      </trkpt>
      <trkpt lat="48.79155" lon="2.07081">
        <ele>164</ele>
        <time>2019-09-15T16:53:46Z</time>
      </trkpt>
      <trkpt lat="48.79166" lon="2.07083">
        <ele>164</ele>
        <time>2019-09-15T16:53:55Z</time>
      </trkpt>
      <trkpt lat="48.79174" lon="2.07089">
        <ele>163</ele>
        <time>2019-09-15T16:54:06Z</time>
      </trkpt>
      <trkpt lat="48.79191" lon="2.07098">
        <ele>163</ele>
        <time>2019-09-15T16:54:19Z</time>
      </trkpt>
      <trkpt lat="48.79196" lon="2.07102">
        <ele>163</ele>
        <time>2019-09-15T16:54:24Z</time>
      </trkpt>
      <trkpt lat="48.79219" lon="2.0711">
        <ele>163</ele>
        <time>2019-09-15T16:54:44Z</time>
      </trkpt>
      <trkpt lat="48.79233" lon="2.07116">
        <ele>163</ele>
        <time>2019-09-15T16:54:57Z</time>
      </trkpt>
      <trkpt lat="48.79272" lon="2.07129">
        <ele>162</ele>
        <time>2019-09-15T16:55:30Z</time>
      </trkpt>
      <trkpt lat="48.79307" lon="2.07141">
        <ele>162</ele>
        <time>2019-09-15T16:55:56Z</time>
      </trkpt>
      <trkpt lat="48.79322" lon="2.07148">
        <ele>162</ele>
        <time>2019-09-15T16:56:09Z</time>
      </trkpt>
      <trkpt lat="48.79352" lon="2.07157">
        <ele>162</ele>
        <time>2019-09-15T16:56:31Z</time>
      </trkpt>
      <trkpt lat="48.79357" lon="2.07157">
        <ele>162</ele>
        <time>2019-09-15T16:56:36Z</time>
      </trkpt>
      <trkpt lat="48.79362" lon="2.07159">
        <ele>162</ele>
        <time>2019-09-15T16:56:45Z</time>
      </trkpt>
      <trkpt lat="48.79384" lon="2.07166">
        <ele>161</ele>
        <time>2019-09-15T16:57:02Z</time>
      </trkpt>
      <trkpt lat="48.79393" lon="2.07171">
        <ele>162</ele>
        <time>2019-09-15T16:57:10Z</time>
      </trkpt>
      <trkpt lat="48.79398" lon="2.07169">
        <ele>162</ele>
        <time>2019-09-15T16:57:14Z</time>
      </trkpt>
      <trkpt lat="48.79415" lon="2.07169">
        <ele>162</ele>
        <time>2019-09-15T16:57:28Z</time>
      </trkpt>
      <trkpt lat="48.79424" lon="2.07173">
        <ele>162</ele>
        <time>2019-09-15T16:57:36Z</time>
      </trkpt>
      <trkpt lat="48.79428" lon="2.07178">
        <ele>162</ele>
        <time>2019-09-15T16:57:41Z</time>
      </trkpt>
      <trkpt lat="48.79433" lon="2.07178">
        <ele>162</ele>
        <time>2019-09-15T16:57:45Z</time>
      </trkpt>
      <trkpt lat="48.7945" lon="2.07188">
        <ele>162</ele>
        <time>2019-09-15T16:58:00Z</time>
      </trkpt>
      <trkpt lat="48.79456" lon="2.07189">
        <ele>163</ele>
        <time>2019-09-15T16:58:05Z</time>
      </trkpt>
      <trkpt lat="48.79461" lon="2.07193">
        <ele>163</ele>
        <time>2019-09-15T16:58:09Z</time>
      </trkpt>
      <trkpt lat="48.79501" lon="2.07207">
        <ele>164</ele>
        <time>2019-09-15T16:58:43Z</time>
      </trkpt>
      <trkpt lat="48.7951" lon="2.07214">
        <ele>164</ele>
        <time>2019-09-15T16:58:52Z</time>
      </trkpt>
      <trkpt lat="48.79524" lon="2.07215">
        <ele>164</ele>
        <time>2019-09-15T16:59:04Z</time>
      </trkpt>
      <trkpt lat="48.79545" lon="2.07223">
        <ele>165</ele>
        <time>2019-09-15T16:59:22Z</time>
      </trkpt>
      <trkpt lat="48.79561" lon="2.07227">
        <ele>165</ele>
        <time>2019-09-15T16:59:35Z</time>
      </trkpt>
      <trkpt lat="48.79598" lon="2.07244">
        <ele>167</ele>
        <time>2019-09-15T17:00:08Z</time>
      </trkpt>
      <trkpt lat="48.79633" lon="2.07254">
        <ele>168</ele>
        <time>2019-09-15T17:00:41Z</time>
      </trkpt>
      <trkpt lat="48.79637" lon="2.07256">
        <ele>169</ele>
        <time>2019-09-15T17:00:45Z</time>
      </trkpt>
      <trkpt lat="48.79649" lon="2.07268">
        <ele>169</ele>
        <time>2019-09-15T17:00:58Z</time>
      </trkpt>
      <trkpt lat="48.79664" lon="2.07268">
        <ele>169</ele>
        <time>2019-09-15T17:01:09Z</time>
      </trkpt>
      <trkpt lat="48.79669" lon="2.07271">
        <ele>170</ele>
        <time>2019-09-15T17:01:14Z</time>
      </trkpt>
      <trkpt lat="48.79673" lon="2.07275">
        <ele>170</ele>
        <time>2019-09-15T17:01:18Z</time>
      </trkpt>
      <trkpt lat="48.79678" lon="2.07277">
        <ele>170</ele>
        <time>2019-09-15T17:01:22Z</time>
      </trkpt>
      <trkpt lat="48.79688" lon="2.07279">
        <ele>171</ele>
        <time>2019-09-15T17:01:31Z</time>
      </trkpt>
      <trkpt lat="48.79693" lon="2.07284">
        <ele>171</ele>
        <time>2019-09-15T17:01:36Z</time>
      </trkpt>
      <trkpt lat="48.79708" lon="2.07289">
        <ele>171</ele>
        <time>2019-09-15T17:01:47Z</time>
      </trkpt>
      <trkpt lat="48.79724" lon="2.0729">
        <ele>172</ele>
        <time>2019-09-15T17:02:00Z</time>
      </trkpt>
      <trkpt lat="48.79745" lon="2.07294">
        <ele>172</ele>
        <time>2019-09-15T17:02:18Z</time>
      </trkpt>
      <trkpt lat="48.79748" lon="2.07303">
        <ele>172</ele>
        <time>2019-09-15T17:02:29Z</time>
      </trkpt>
      <trkpt lat="48.79769" lon="2.07308">
        <ele>171</ele>
        <time>2019-09-15T17:02:44Z</time>
      </trkpt>
      <trkpt lat="48.79785" lon="2.07306">
        <ele>169</ele>
        <time>2019-09-15T17:02:54Z</time>
      </trkpt>
      <trkpt lat="48.7979" lon="2.07308">
        <ele>169</ele>
        <time>2019-09-15T17:02:58Z</time>
      </trkpt>
      <trkpt lat="48.79793" lon="2.07315">
        <ele>168</ele>
        <time>2019-09-15T17:03:03Z</time>
      </trkpt>
      <trkpt lat="48.79797" lon="2.0732">
        <ele>168</ele>
        <time>2019-09-15T17:03:07Z</time>
      </trkpt>
      <trkpt lat="48.79803" lon="2.07321">
        <ele>167</ele>
        <time>2019-09-15T17:03:11Z</time>
      </trkpt>
      <trkpt lat="48.79813" lon="2.07319">
        <ele>166</ele>
        <time>2019-09-15T17:03:18Z</time>
      </trkpt>
      <trkpt lat="48.79818" lon="2.07321">
        <ele>165</ele>
        <time>2019-09-15T17:03:22Z</time>
      </trkpt>
      <trkpt lat="48.79823" lon="2.07318">
        <ele>165</ele>
        <time>2019-09-15T17:03:26Z</time>
      </trkpt>
      <trkpt lat="48.79827" lon="2.07314">
        <ele>164</ele>
        <time>2019-09-15T17:03:31Z</time>
      </trkpt>
      <trkpt lat="48.79842" lon="2.07306">
        <ele>162</ele>
        <time>2019-09-15T17:03:46Z</time>
      </trkpt>
      <trkpt lat="48.79842" lon="2.07298">
        <ele>161</ele>
        <time>2019-09-15T17:03:52Z</time>
      </trkpt>
      <trkpt lat="48.79842" lon="2.0729">
        <ele>160</ele>
        <time>2019-09-15T17:03:56Z</time>
      </trkpt>
      <trkpt lat="48.79845" lon="2.0728">
        <ele>160</ele>
        <time>2019-09-15T17:04:05Z</time>
      </trkpt>
      <trkpt lat="48.79842" lon="2.07242">
        <ele>155</ele>
        <time>2019-09-15T17:04:33Z</time>
      </trkpt>
      <trkpt lat="48.79855" lon="2.07148">
        <ele>154</ele>
        <time>2019-09-15T17:04:59Z</time>
      </trkpt>
      <trkpt lat="48.79898" lon="2.07225">
        <ele>153</ele>
        <time>2019-09-15T17:05:08Z</time>
      </trkpt>
      <trkpt lat="48.79905" lon="2.07248">
        <ele>153</ele>
        <time>2019-09-15T17:05:15Z</time>
      </trkpt>
      <trkpt lat="48.79908" lon="2.07261">
        <ele>154</ele>
        <time>2019-09-15T17:05:21Z</time>
      </trkpt>
    </trkseg>
  </trk>
</gpx>